[[{"header":{"parameterUnit":"m.s-1","parameterCategory":1,"la1":31.0,"la2":29.5877,"lo1":-88.7671,"lo2":-86.6584,"dx":0.0162,"dy":0.0185,"nx":115,"ny":88,"refTime":"2023-01-10T06:00:00:Z","depth":0,"parameterNumber":2,"parameterNumberName":"U-component_of_WINDS"},"data":[0.0,0.0,0.0,0.0,0.0,0.0,0.0,0.0,0.0,0.0,0.0,0.0,0.0,0.0,0.0,0.0,0.0,0.0,0.0,0.0,0.0,0.0,0.0,0.0,0.0,0.0,0.0,0.0,0.0,0.0,0.0,0.0,0.0,0.0,0.0,0.0,0.0,0.0,0.0,0.0,0.0,0.0,0.0,0.0,0.0,0.0,0.0,0.0,0.0,0.0,0.0,0.0,0.0,0.0,0.0,0.0,0.0,0.0,0.0,0.0,0.0,0.0,0.0,0.0,0.0,0.0,0.0,0.0,0.0,0.0,0.0,0.0,0.0,0.0,0.0,0.0,0.0,0.0,0.0,0.0,0.0,0.0,0.0,0.0,0.0,0.0,0.0,0.0,0.0,0.0,0.0,0.0,0.0,0.0,0.0,0.0,0.0,0.0,0.0,0.0,0.0,0.0,0.0,0.0,0.0,0.0,0.0,0.0,0.0,0.0,0.0,0.0,0.0,0.0,0.0,0.0,0.0,0.0,0.0,0.0,0.0,0.0,0.0,0.0,0.0,0.0,0.0,0.0,0.0,0.0,0.0,0.0,0.0,0.0,0.0,0.0,0.0,0.0,0.0,0.0,0.0,0.0,0.0,0.0,0.0,0.0,0.0,0.0,0.0,0.0,0.0,0.0,0.0,0.0,0.0,0.0,0.0,0.0,0.0,0.0,0.0,0.0,0.0,0.0,0.0,0.0,0.0,0.0,0.0,0.0,0.0,0.0,0.0,0.0,0.0,0.0,0.0,0.0,0.0,0.0,0.0,0.0,0.0,0.0,0.0,0.0,0.0,0.0,0.0,0.0,0.0,0.0,0.0,0.0,0.0,0.0,0.0,0.0,0.0,0.0,0.0,0.0,0.0,0.0,0.0,0.0,0.0,0.0,0.0,0.0,0.0,0.0,0.0,0.0,0.0,0.0,0.0,0.0,0.0,0.0,0.0,0.0,0.0,0.0,0.0,0.0,0.0,0.0,0.0,0.0,0.0,0.0,0.0,0.0,0.0,0.0,0.0,0.0,0.0,0.0,0.0,0.0,0.0,0.0,0.0,0.0,0.0,0.0,0.0,0.0,0.0,0.0,0.0,0.0,0.0,0.0,0.0,0.0,0.0,0.0,0.0,0.0,0.0,0.0,0.0,0.0,0.0,0.0,0.0,0.0,0.0,0.0,0.0,0.0,0.0,0.0,0.0,0.0,0.0,0.0,0.0,0.0,0.0,0.0,0.0,0.0,0.0,0.0,0.0,0.0,0.0,0.0,0.0,0.0,0.0,0.0,0.0,0.0,0.0,0.0,0.0,0.0,0.0,0.0,0.0,0.0,0.0,0.0,0.0,0.0,0.0,0.0,0.0,0.0,0.0,0.0,0.0,0.0,0.0,0.0,0.0,0.0,0.0,0.0,0.0,0.0,0.0,0.0,0.0,0.0,0.0,0.0,0.0,0.0,0.0,0.0,0.0,0.0,0.0,0.0,0.0,0.0,0.0,0.0,0.0,0.0,0.0,0.0,0.0,0.0,0.0,0.0,0.0,0.0,0.0,0.0,0.0,0.0,0.0,0.0,0.0,0.0,0.0,0.0,0.0,0.0,0.0,0.0,0.0,0.0,0.0,0.0,0.0,0.0,0.0,0.0,0.0,0.0,0.0,0.0,0.0,0.0,0.0,0.0,0.0,0.0,0.0,0.0,0.0,0.0,0.0,0.0,0.0,0.0,0.0,0.0,0.0,0.0,0.0,0.0,0.0,0.0,0.0,0.0,0.0,0.0,0.0,0.0,0.0,0.0,0.0,0.0,0.0,0.0,0.0,0.0,0.0,0.0,0.0,0.0,0.0,0.0,0.0,0.0,0.0,0.0,0.0,0.0,0.0,0.0,0.0,0.0,0.0,0.0,0.0,0.0,0.0,0.0,0.0,0.0,0.0,0.0,0.0,0.0,0.0,0.0,0.0,0.0,0.0,0.0,0.0,0.0,0.0,0.0,0.0,0.0,0.0,0.0,0.0,0.0,0.0,0.0,0.0,0.0,0.0,0.0,0.0,0.0,0.0,0.0,0.0,0.0,0.0,0.0,0.0,0.0,0.0,0.0,0.0,0.0,0.0,0.0,0.0,0.0,0.0,0.0,0.0,0.0,0.0,0.0,0.0,0.0,0.0,0.0,0.0,0.0,0.0,0.0,0.0,0.0,0.0,0.0,0.0,0.0,0.0,0.0,0.0,0.0,0.0,0.0,0.0,0.0,0.0,0.0,0.0,0.0,0.0,0.0,0.0,0.0,0.0,0.0,0.0,0.0,0.0,0.0,0.0,0.0,0.0,0.0,0.0,0.0,0.0,0.0,0.0,0.0,0.0,0.0,0.0,0.0,0.0,0.0,0.0,0.0,0.0,0.0,0.0,0.0,0.0,0.0,0.0,0.0,0.0,0.0,0.0,0.0,0.0,0.0,0.0,0.0,0.0,0.0,0.0,0.0,0.0,0.0,0.0,0.0,0.0,0.0,0.0,0.0,0.0,0.0,0.0,0.0,0.0,0.0,0.0,0.0,0.0,0.0,0.0,0.0,0.0,0.0,0.0,0.0,0.0,0.0,0.0,0.0,0.0,0.0,0.0,0.0,0.0,0.0,0.0,0.0,0.0,0.0,0.0,0.0,0.0,0.0,0.0,0.0,0.0,0.0,0.0,0.0,0.0,0.0,0.0,0.0,0.0,0.0,0.0,0.0,0.0,0.0,0.0,0.0,0.0,0.0,0.0,0.0,0.0,0.0,0.0,0.0,0.0,0.0,0.0,0.0,0.0,0.0,0.0,0.0,0.0,0.0,0.0,0.0,0.0,0.0,0.0,0.0,0.0,0.0,0.0,0.0,0.0,0.0,0.0,0.0,0.0,0.0,0.0,0.0,0.0,0.0,0.0,0.0,0.0,0.0,0.0,0.0,0.0,0.0,0.0,0.0,0.0,0.0,0.0,0.0,0.0,0.0,0.0,0.0,0.0,0.0,0.0,0.0,0.0,0.0,0.0,0.0,0.0,0.0,0.0,0.0,0.0,0.0,0.0,0.0,0.0,0.0,0.0,0.0,0.0,0.0,0.0,0.0,0.0,0.0,0.0,0.0,0.0,0.0,0.0,0.0,0.0,0.0,0.0,0.0,0.0,0.0,0.0,0.0,0.0,0.0,0.0,0.0,0.0,0.0,0.0,0.0,0.0,0.0,0.0,0.0,0.0,0.0,0.0,0.0,0.0,0.0,0.0,0.0,0.0,0.0,0.0,0.0,0.0,0.0,0.0,0.0,0.0,0.0,0.0,0.0,0.0,0.0,0.0,0.0,0.0,0.0,0.0,0.0,0.0,0.0,0.0,0.0,0.0,0.0,0.0,0.0,0.0,0.0,0.0,0.0,0.0,0.0,0.0,0.0,0.0,0.0,0.0,0.0,0.0,0.0,0.0,0.0,0.0,0.0,0.0,0.0,0.0,0.0,0.0,0.0,0.0,0.0,0.0,0.0,0.0,0.0,0.0,0.0,0.0,0.0,0.0,0.0,0.0,0.0,0.0,0.0,0.0,0.0,0.0,0.0,0.0,0.0,0.0,0.0,0.0,0.0,0.0,0.0,0.0,0.0,0.0,0.0,0.0,0.0,0.0,0.0,0.0,0.0,0.0,0.0,0.0,0.0,0.0,0.0,0.0,0.0,0.0,0.0,0.0,0.0,0.0,0.0,0.0,0.0,0.0,0.0,0.0,0.0,0.0,0.0,0.0,0.0,0.0,0.0,0.0,0.0,0.0,0.0,0.0,0.0,0.0,0.0,0.0,0.0,0.0,0.0,0.0,0.0,0.0,0.0,0.0,0.0,0.0,0.0,0.0,0.0,0.0,0.0,0.0,0.0,0.0,0.0,0.0,0.0,0.0,0.0,0.0,0.0,0.0,0.0,0.0,0.0,0.0,0.0,0.0,0.0,0.0,0.0,0.0,0.0,0.0,0.0,0.0,0.0,0.0,0.0,0.0,0.0,0.0,0.0,0.0,0.0,0.0,0.0,0.0,0.0,0.0,0.0,0.0,0.0,0.0,0.0,0.0,0.0,0.0,0.0,0.0,0.0,0.0,0.0,0.0,0.0,0.0,0.0,0.0,0.0,0.0,0.0,0.0,0.0,0.0,0.0,0.0,0.0,0.0,0.0,0.0,0.0,0.0,0.0,0.0,0.0,0.0,0.0,0.0,0.0,0.0,0.0,0.0,0.0,-3.026,0.0,0.0,0.0,-3.0305,0.0,0.0,0.0,0.0,0.0,0.0,0.0,0.0,0.0,0.0,0.0,0.0,0.0,0.0,0.0,0.0,0.0,0.0,0.0,0.0,0.0,0.0,0.0,0.0,0.0,0.0,0.0,0.0,0.0,0.0,0.0,0.0,0.0,0.0,0.0,0.0,0.0,0.0,0.0,0.0,0.0,0.0,0.0,0.0,0.0,0.0,0.0,0.0,0.0,0.0,0.0,0.0,0.0,0.0,0.0,0.0,0.0,0.0,0.0,0.0,0.0,0.0,0.0,0.0,0.0,0.0,0.0,0.0,0.0,0.0,0.0,0.0,0.0,0.0,0.0,0.0,0.0,0.0,0.0,0.0,0.0,0.0,0.0,0.0,0.0,0.0,0.0,0.0,0.0,0.0,0.0,0.0,0.0,0.0,0.0,0.0,0.0,0.0,0.0,0.0,0.0,0.0,0.0,0.0,0.0,0.0,0.0,0.0,0.0,0.0,-3.0164,-3.0161,-3.0226,-3.0246,-3.026,0.0,0.0,0.0,0.0,0.0,0.0,0.0,0.0,0.0,0.0,0.0,0.0,0.0,0.0,0.0,0.0,0.0,0.0,0.0,0.0,0.0,0.0,0.0,0.0,0.0,0.0,0.0,0.0,0.0,0.0,0.0,0.0,0.0,0.0,0.0,0.0,0.0,0.0,0.0,0.0,0.0,0.0,0.0,0.0,0.0,0.0,0.0,0.0,0.0,0.0,0.0,0.0,0.0,0.0,0.0,0.0,0.0,0.0,0.0,0.0,0.0,0.0,0.0,0.0,0.0,0.0,0.0,0.0,0.0,0.0,0.0,0.0,0.0,0.0,0.0,0.0,0.0,0.0,0.0,0.0,0.0,0.0,0.0,0.0,0.0,0.0,0.0,0.0,0.0,0.0,0.0,0.0,0.0,0.0,0.0,0.0,0.0,0.0,0.0,0.0,0.0,0.0,0.0,0.0,0.0,0.0,0.0,0.0,0.0,0.0,0.0,0.0,-3.038,-3.0348,-3.0192,0.0,0.0,0.0,0.0,0.0,0.0,0.0,0.0,0.0,0.0,0.0,0.0,0.0,0.0,0.0,0.0,0.0,0.0,0.0,0.0,0.0,0.0,0.0,0.0,0.0,0.0,0.0,0.0,0.0,0.0,0.0,0.0,0.0,0.0,0.0,0.0,0.0,0.0,0.0,0.0,0.0,0.0,0.0,0.0,0.0,0.0,0.0,0.0,0.0,0.0,0.0,0.0,0.0,0.0,0.0,0.0,0.0,0.0,0.0,0.0,0.0,0.0,0.0,0.0,0.0,0.0,0.0,0.0,0.0,0.0,0.0,0.0,0.0,0.0,0.0,0.0,0.0,0.0,0.0,0.0,0.0,0.0,0.0,0.0,0.0,0.0,0.0,0.0,0.0,0.0,0.0,0.0,0.0,0.0,0.0,0.0,0.0,0.0,0.0,0.0,0.0,0.0,0.0,0.0,0.0,0.0,0.0,0.0,0.0,0.0,-3.1037,-3.1088,-3.1097,0.0,-3.016,0.0,0.0,0.0,0.0,0.0,0.0,0.0,0.0,0.0,0.0,0.0,0.0,0.0,0.0,0.0,0.0,0.0,0.0,0.0,0.0,0.0,0.0,0.0,0.0,0.0,0.0,0.0,0.0,0.0,0.0,0.0,0.0,0.0,0.0,0.0,0.0,0.0,0.0,0.0,0.0,0.0,0.0,0.0,0.0,0.0,0.0,0.0,0.0,0.0,0.0,0.0,0.0,0.0,0.0,0.0,0.0,0.0,0.0,0.0,0.0,0.0,0.0,0.0,0.0,0.0,0.0,0.0,0.0,0.0,0.0,0.0,0.0,0.0,0.0,0.0,0.0,0.0,0.0,0.0,0.0,0.0,0.0,0.0,0.0,0.0,0.0,0.0,0.0,0.0,0.0,0.0,0.0,0.0,0.0,0.0,0.0,0.0,0.0,0.0,0.0,0.0,0.0,0.0,0.0,0.0,0.0,0.0,0.0,0.0,0.0,-3.1026,-3.1069,-3.1133,-3.1016,0.0,0.0,0.0,0.0,0.0,0.0,0.0,0.0,0.0,0.0,0.0,0.0,0.0,0.0,0.0,0.0,0.0,0.0,0.0,0.0,0.0,0.0,0.0,0.0,0.0,0.0,0.0,0.0,0.0,0.0,0.0,0.0,0.0,0.0,0.0,0.0,0.0,0.0,0.0,0.0,0.0,0.0,0.0,0.0,0.0,0.0,0.0,0.0,0.0,0.0,0.0,0.0,0.0,0.0,0.0,0.0,0.0,0.0,0.0,0.0,0.0,0.0,0.0,0.0,0.0,0.0,0.0,0.0,0.0,0.0,0.0,0.0,0.0,0.0,0.0,0.0,0.0,0.0,0.0,0.0,0.0,0.0,0.0,0.0,0.0,0.0,0.0,0.0,0.0,0.0,0.0,0.0,0.0,0.0,0.0,0.0,0.0,0.0,0.0,0.0,0.0,0.0,0.0,0.0,0.0,0.0,0.0,0.0,0.0,0.0,-3.0769,-3.1334,-3.16,-3.1422,-3.1261,-3.1026,0.0,0.0,0.0,0.0,0.0,0.0,0.0,0.0,0.0,0.0,0.0,0.0,0.0,0.0,0.0,0.0,0.0,0.0,0.0,0.0,0.0,0.0,0.0,0.0,0.0,0.0,0.0,0.0,0.0,0.0,0.0,0.0,0.0,0.0,0.0,0.0,0.0,0.0,0.0,0.0,0.0,0.0,0.0,0.0,0.0,0.0,0.0,0.0,0.0,0.0,0.0,0.0,0.0,0.0,0.0,0.0,0.0,0.0,0.0,0.0,0.0,0.0,0.0,0.0,0.0,0.0,0.0,0.0,0.0,0.0,0.0,0.0,0.0,0.0,0.0,0.0,0.0,0.0,0.0,0.0,0.0,0.0,0.0,0.0,0.0,0.0,0.0,0.0,0.0,0.0,0.0,0.0,0.0,0.0,0.0,0.0,0.0,0.0,0.0,0.0,0.0,0.0,0.0,0.0,0.0,0.0,0.0,0.0,-3.0634,-3.1507,-3.2313,-3.3071,-3.2377,-3.1621,0.0,0.0,0.0,0.0,0.0,0.0,0.0,0.0,0.0,0.0,0.0,0.0,0.0,0.0,0.0,0.0,0.0,0.0,0.0,0.0,0.0,0.0,0.0,0.0,0.0,0.0,0.0,0.0,0.0,0.0,0.0,0.0,0.0,0.0,0.0,0.0,0.0,0.0,0.0,0.0,0.0,0.0,0.0,0.0,0.0,0.0,0.0,0.0,0.0,0.0,0.0,0.0,0.0,0.0,0.0,0.0,0.0,0.0,0.0,0.0,0.0,0.0,0.0,0.0,0.0,0.0,0.0,0.0,0.0,0.0,0.0,0.0,0.0,0.0,0.0,0.0,0.0,0.0,0.0,0.0,0.0,0.0,0.0,0.0,0.0,0.0,0.0,0.0,0.0,0.0,0.0,0.0,0.0,0.0,0.0,0.0,0.0,0.0,0.0,0.0,0.0,0.0,0.0,0.0,0.0,0.0,0.0,0.0,0.0,-3.0627,-3.2452,-3.3911,-3.4741,-3.4005,-3.2921,0.0,0.0,0.0,0.0,0.0,0.0,0.0,0.0,0.0,0.0,0.0,0.0,0.0,0.0,0.0,0.0,0.0,0.0,0.0,0.0,0.0,0.0,0.0,0.0,0.0,0.0,0.0,0.0,0.0,0.0,0.0,0.0,0.0,0.0,0.0,0.0,0.0,0.0,0.0,0.0,0.0,0.0,0.0,0.0,0.0,0.0,0.0,0.0,0.0,0.0,0.0,0.0,0.0,0.0,0.0,0.0,0.0,0.0,0.0,0.0,0.0,0.0,0.0,0.0,0.0,0.0,0.0,0.0,0.0,0.0,0.0,0.0,0.0,0.0,0.0,0.0,0.0,0.0,0.0,0.0,0.0,0.0,0.0,0.0,0.0,0.0,0.0,0.0,0.0,0.0,0.0,0.0,0.0,0.0,0.0,0.0,0.0,0.0,0.0,0.0,0.0,0.0,0.0,0.0,0.0,0.0,0.0,0.0,0.0,-3.2045,-3.4229,-3.5714,-3.6285,-3.5231,-3.3892,0.0,0.0,0.0,0.0,0.0,0.0,0.0,0.0,0.0,0.0,0.0,0.0,0.0,0.0,0.0,0.0,0.0,0.0,0.0,0.0,0.0,0.0,0.0,0.0,0.0,0.0,0.0,0.0,0.0,0.0,0.0,0.0,0.0,0.0,0.0,0.0,0.0,0.0,0.0,0.0,0.0,0.0,0.0,0.0,0.0,0.0,0.0,0.0,0.0,0.0,0.0,0.0,0.0,0.0,0.0,0.0,0.0,0.0,0.0,0.0,0.0,0.0,0.0,0.0,0.0,0.0,0.0,0.0,0.0,0.0,0.0,0.0,0.0,0.0,0.0,0.0,0.0,0.0,0.0,0.0,0.0,0.0,0.0,0.0,0.0,0.0,0.0,0.0,0.0,0.0,0.0,0.0,0.0,0.0,0.0,0.0,0.0,0.0,0.0,0.0,0.0,0.0,0.0,0.0,0.0,0.0,0.0,0.0,-3.2035,-3.5135,-3.6883,-3.7747,-3.771,-3.6232,-3.4521,0.0,0.0,0.0,0.0,0.0,0.0,0.0,0.0,0.0,0.0,0.0,0.0,0.0,0.0,0.0,0.0,0.0,0.0,0.0,0.0,0.0,0.0,0.0,0.0,0.0,0.0,0.0,0.0,0.0,0.0,0.0,0.0,0.0,0.0,0.0,0.0,0.0,0.0,0.0,0.0,0.0,0.0,0.0,0.0,0.0,0.0,0.0,0.0,0.0,0.0,0.0,0.0,0.0,0.0,0.0,0.0,0.0,0.0,0.0,0.0,0.0,0.0,0.0,0.0,0.0,0.0,0.0,0.0,0.0,0.0,0.0,0.0,0.0,0.0,0.0,0.0,0.0,0.0,0.0,0.0,0.0,0.0,0.0,0.0,0.0,0.0,0.0,0.0,0.0,0.0,0.0,0.0,0.0,0.0,0.0,0.0,0.0,0.0,0.0,0.0,0.0,0.0,0.0,0.0,0.0,0.0,0.0,0.0,0.0,-3.842,-3.9577,-4.0124,-4.0154,-3.9158,-3.7275,0.0,0.0,0.0,0.0,0.0,0.0,0.0,0.0,0.0,0.0,0.0,0.0,0.0,0.0,0.0,0.0,0.0,0.0,0.0,0.0,0.0,0.0,0.0,0.0,0.0,0.0,0.0,0.0,0.0,0.0,0.0,0.0,0.0,0.0,0.0,0.0,0.0,0.0,0.0,0.0,0.0,0.0,0.0,0.0,0.0,0.0,0.0,0.0,0.0,0.0,0.0,0.0,0.0,0.0,0.0,0.0,0.0,0.0,0.0,0.0,0.0,0.0,0.0,0.0,0.0,0.0,0.0,0.0,0.0,0.0,0.0,0.0,0.0,0.0,0.0,0.0,0.0,0.0,0.0,0.0,0.0,0.0,0.0,0.0,0.0,0.0,0.0,0.0,0.0,0.0,0.0,0.0,0.0,0.0,0.0,0.0,0.0,0.0,0.0,0.0,0.0,0.0,0.0,0.0,0.0,0.0,0.0,0.0,0.0,-4.2059,-4.2112,-4.2092,-4.2104,-4.1072,-3.8973,-3.5731,0.0,0.0,0.0,0.0,0.0,0.0,0.0,0.0,0.0,0.0,0.0,0.0,0.0,0.0,0.0,0.0,0.0,0.0,0.0,0.0,0.0,0.0,0.0,0.0,0.0,0.0,0.0,0.0,0.0,0.0,0.0,0.0,0.0,0.0,0.0,0.0,0.0,0.0,0.0,0.0,0.0,0.0,0.0,0.0,0.0,0.0,0.0,0.0,0.0,0.0,0.0,0.0,0.0,0.0,0.0,0.0,0.0,0.0,0.0,0.0,0.0,0.0,0.0,0.0,0.0,0.0,0.0,0.0,0.0,0.0,0.0,0.0,0.0,0.0,0.0,0.0,0.0,0.0,0.0,0.0,0.0,0.0,0.0,0.0,0.0,0.0,0.0,0.0,0.0,0.0,0.0,0.0,0.0,0.0,0.0,0.0,0.0,0.0,0.0,0.0,0.0,0.0,0.0,0.0,0.0,0.0,0.0,0.0,-4.5847,-4.4488,-4.3808,-4.3772,-4.2139,-3.9753,0.0,0.0,0.0,0.0,0.0,0.0,0.0,0.0,0.0,0.0,0.0,0.0,0.0,0.0,0.0,0.0,0.0,0.0,0.0,0.0,0.0,0.0,0.0,0.0,0.0,0.0,0.0,0.0,0.0,0.0,0.0,0.0,0.0,0.0,0.0,0.0,0.0,0.0,0.0,0.0,0.0,0.0,0.0,0.0,0.0,0.0,0.0,0.0,0.0,0.0,0.0,0.0,0.0,0.0,0.0,0.0,0.0,0.0,0.0,0.0,0.0,0.0,0.0,0.0,0.0,0.0,0.0,0.0,0.0,0.0,0.0,0.0,0.0,0.0,0.0,0.0,0.0,0.0,0.0,0.0,0.0,0.0,0.0,0.0,0.0,0.0,0.0,0.0,0.0,0.0,0.0,0.0,0.0,0.0,0.0,0.0,0.0,0.0,0.0,0.0,0.0,0.0,0.0,0.0,0.0,0.0,0.0,0.0,0.0,-4.5736,-4.6654,-4.7058,-4.6985,-4.4342,-4.1625,0.0,0.0,0.0,0.0,0.0,0.0,0.0,0.0,0.0,0.0,0.0,0.0,0.0,0.0,0.0,0.0,0.0,0.0,0.0,0.0,0.0,0.0,0.0,0.0,0.0,0.0,0.0,0.0,0.0,0.0,0.0,0.0,0.0,0.0,0.0,0.0,0.0,0.0,0.0,0.0,0.0,0.0,0.0,0.0,0.0,0.0,0.0,0.0,0.0,0.0,0.0,0.0,0.0,0.0,0.0,0.0,0.0,0.0,0.0,0.0,0.0,0.0,0.0,0.0,0.0,0.0,0.0,0.0,0.0,0.0,0.0,0.0,0.0,0.0,0.0,0.0,0.0,0.0,0.0,0.0,0.0,0.0,0.0,0.0,0.0,0.0,0.0,0.0,0.0,0.0,0.0,0.0,0.0,0.0,0.0,0.0,0.0,0.0,0.0,0.0,0.0,0.0,0.0,0.0,0.0,0.0,0.0,0.0,-4.4195,-4.7388,-4.8379,-4.9003,-4.937,-4.6214,-4.3057,0.0,0.0,0.0,0.0,0.0,0.0,0.0,0.0,0.0,0.0,0.0,0.0,0.0,0.0,0.0,0.0,0.0,0.0,0.0,0.0,0.0,0.0,0.0,0.0,0.0,0.0,0.0,0.0,0.0,0.0,0.0,0.0,0.0,0.0,0.0,0.0,0.0,0.0,0.0,0.0,0.0,0.0,0.0,0.0,0.0,0.0,0.0,0.0,0.0,0.0,0.0,0.0,0.0,0.0,0.0,0.0,0.0,0.0,0.0,0.0,0.0,0.0,0.0,0.0,0.0,0.0,0.0,0.0,0.0,0.0,0.0,0.0,0.0,0.0,0.0,0.0,0.0,0.0,0.0,0.0,0.0,0.0,0.0,0.0,0.0,0.0,0.0,0.0,0.0,0.0,0.0,0.0,0.0,0.0,0.0,0.0,0.0,0.0,0.0,0.0,0.0,0.0,0.0,0.0,0.0,0.0,0.0,0.0,-4.6361,-4.95,-4.9757,-5.0141,-5.0692,-4.7609,-4.4048,0.0,0.0,0.0,0.0,0.0,0.0,0.0,0.0,0.0,0.0,0.0,0.0,0.0,0.0,0.0,0.0,0.0,0.0,0.0,0.0,0.0,0.0,0.0,0.0,0.0,0.0,0.0,0.0,0.0,0.0,0.0,0.0,0.0,0.0,0.0,0.0,0.0,0.0,0.0,0.0,0.0,0.0,0.0,0.0,0.0,0.0,0.0,0.0,0.0,0.0,0.0,0.0,0.0,0.0,0.0,0.0,0.0,0.0,0.0,0.0,0.0,0.0,0.0,0.0,0.0,0.0,0.0,0.0,0.0,0.0,0.0,0.0,0.0,0.0,0.0,0.0,0.0,0.0,0.0,0.0,0.0,0.0,0.0,0.0,0.0,0.0,0.0,0.0,0.0,0.0,0.0,0.0,0.0,0.0,0.0,0.0,0.0,0.0,0.0,0.0,0.0,0.0,0.0,0.0,0.0,0.0,0.0,0.0,-4.6911,-4.9463,-5.0802,-5.1242,-5.0802,-4.7609,-4.4305,0.0,0.0,0.0,0.0,0.0,0.0,0.0,0.0,0.0,0.0,0.0,0.0,0.0,0.0,0.0,0.0,0.0,0.0,0.0,0.0,0.0,0.0,0.0,0.0,0.0,0.0,0.0,0.0,0.0,0.0,0.0,0.0,0.0,0.0,0.0,0.0,0.0,0.0,0.0,0.0,0.0,0.0,0.0,0.0,0.0,0.0,0.0,0.0,-2.8987,0.0,0.0,0.0,0.0,0.0,0.0,0.0,0.0,0.0,0.0,0.0,0.0,0.0,0.0,0.0,0.0,0.0,0.0,0.0,0.0,0.0,0.0,0.0,0.0,0.0,0.0,0.0,0.0,0.0,0.0,0.0,0.0,0.0,0.0,0.0,0.0,0.0,0.0,0.0,0.0,0.0,0.0,0.0,0.0,0.0,0.0,0.0,0.0,0.0,0.0,0.0,0.0,0.0,0.0,0.0,0.0,0.0,0.0,0.0,-4.7645,-5.0031,-5.1316,-5.161,-5.0765,-4.8343,-4.5369,0.0,0.0,0.0,0.0,0.0,0.0,0.0,0.0,0.0,0.0,0.0,0.0,0.0,0.0,0.0,0.0,0.0,0.0,0.0,0.0,0.0,0.0,0.0,0.0,0.0,0.0,0.0,0.0,0.0,0.0,0.0,0.0,0.0,0.0,0.0,0.0,0.0,0.0,0.0,0.0,0.0,0.0,0.0,0.0,0.0,0.0,0.0,0.0,0.0,0.0,0.0,0.0,0.0,0.0,0.0,0.0,0.0,0.0,0.0,0.0,0.0,0.0,0.0,0.0,0.0,0.0,0.0,0.0,0.0,0.0,0.0,0.0,0.0,0.0,0.0,0.0,0.0,0.0,0.0,0.0,0.0,0.0,0.0,0.0,0.0,0.0,0.0,0.0,0.0,0.0,0.0,0.0,0.0,0.0,0.0,0.0,0.0,0.0,0.0,0.0,0.0,0.0,0.0,0.0,0.0,0.0,0.0,-4.5663,-4.8434,-5.0729,-5.172,-5.172,-5.0802,-4.9187,-4.6471,-4.2616,0.0,0.0,0.0,0.0,0.0,0.0,0.0,0.0,0.0,0.0,0.0,0.0,0.0,0.0,0.0,0.0,0.0,0.0,0.0,0.0,0.0,0.0,0.0,0.0,0.0,0.0,0.0,0.0,0.0,0.0,0.0,0.0,0.0,0.0,0.0,0.0,0.0,0.0,-2.7016,-2.9145,0.0,0.0,0.0,0.0,0.0,0.0,0.0,0.0,-3.0797,0.0,0.0,0.0,0.0,0.0,0.0,0.0,0.0,0.0,0.0,0.0,0.0,0.0,0.0,0.0,0.0,0.0,0.0,0.0,0.0,0.0,0.0,0.0,0.0,0.0,0.0,0.0,0.0,0.0,0.0,0.0,0.0,0.0,0.0,0.0,0.0,0.0,0.0,0.0,0.0,0.0,0.0,0.0,0.0,0.0,0.0,0.0,0.0,0.0,0.0,0.0,0.0,0.0,0.0,0.0,0.0,-4.3294,-4.6471,-4.9003,-5.0765,-5.227,-5.2307,-5.0839,-4.9187,-4.6728,-4.3368,0.0,0.0,0.0,0.0,0.0,0.0,0.0,0.0,0.0,0.0,0.0,0.0,0.0,0.0,0.0,0.0,0.0,0.0,0.0,0.0,0.0,0.0,0.0,0.0,0.0,0.0,0.0,0.0,0.0,0.0,0.0,0.0,0.0,0.0,0.0,0.0,0.0,0.0,0.0,-3.1115,-3.1995,0.0,0.0,0.0,0.0,0.0,0.0,0.0,0.0,-3.087,0.0,0.0,0.0,0.0,0.0,0.0,0.0,0.0,0.0,0.0,0.0,0.0,0.0,0.0,0.0,0.0,0.0,0.0,0.0,0.0,0.0,0.0,0.0,0.0,0.0,0.0,0.0,0.0,0.0,0.0,0.0,0.0,0.0,0.0,0.0,0.0,0.0,0.0,0.0,0.0,0.0,0.0,0.0,0.0,0.0,0.0,0.0,0.0,0.0,0.0,0.0,0.0,0.0,0.0,0.0,-4.3551,-4.7131,-4.9554,-5.0802,-5.238,-5.2417,-5.0839,-4.9187,-4.6801,0.0,0.0,0.0,0.0,0.0,0.0,0.0,0.0,0.0,0.0,0.0,0.0,0.0,0.0,0.0,0.0,0.0,0.0,0.0,0.0,0.0,0.0,0.0,0.0,0.0,0.0,0.0,0.0,0.0,0.0,0.0,0.0,0.0,0.0,0.0,0.0,0.0,0.0,0.0,0.0,-3.2228,-3.3256,-3.328,0.0,0.0,0.0,0.0,0.0,0.0,-3.322,-3.2522,0.0,0.0,0.0,0.0,0.0,0.0,0.0,0.0,0.0,0.0,0.0,0.0,0.0,0.0,0.0,0.0,0.0,0.0,0.0,0.0,0.0,0.0,0.0,0.0,0.0,0.0,0.0,0.0,0.0,0.0,0.0,0.0,0.0,0.0,0.0,0.0,0.0,0.0,0.0,0.0,0.0,0.0,0.0,0.0,0.0,0.0,0.0,0.0,0.0,0.0,0.0,0.0,0.0,0.0,0.0,-4.3754,-4.7627,-5.0088,-5.1059,-5.2454,-5.2417,-5.0839,-4.9187,-4.6801,0.0,0.0,0.0,0.0,0.0,0.0,0.0,0.0,0.0,0.0,0.0,0.0,0.0,0.0,0.0,0.0,0.0,0.0,0.0,0.0,0.0,0.0,0.0,0.0,0.0,0.0,0.0,0.0,0.0,0.0,0.0,0.0,0.0,0.0,0.0,0.0,0.0,0.0,0.0,0.0,0.0,-3.4394,-3.5371,-3.6119,0.0,0.0,0.0,0.0,-3.656,-3.5436,0.0,0.0,0.0,0.0,0.0,0.0,0.0,0.0,0.0,0.0,0.0,0.0,0.0,0.0,0.0,0.0,0.0,0.0,0.0,0.0,0.0,0.0,0.0,0.0,0.0,0.0,0.0,0.0,0.0,0.0,0.0,0.0,0.0,0.0,0.0,0.0,0.0,0.0,0.0,0.0,0.0,0.0,0.0,0.0,0.0,0.0,0.0,0.0,0.0,0.0,0.0,0.0,0.0,0.0,0.0,0.0,-4.4562,-4.7865,-5.0345,-5.1793,-5.2747,-5.2433,-5.0839,-4.9187,-4.6801,0.0,0.0,0.0,0.0,0.0,0.0,0.0,0.0,0.0,0.0,0.0,0.0,0.0,0.0,0.0,0.0,0.0,0.0,0.0,0.0,0.0,0.0,0.0,0.0,0.0,0.0,0.0,0.0,0.0,0.0,0.0,0.0,0.0,0.0,0.0,0.0,0.0,0.0,0.0,0.0,0.0,-3.5445,-3.7,-3.7309,-3.7588,0.0,0.0,-3.8175,-3.7492,-3.7199,0.0,0.0,0.0,0.0,0.0,0.0,0.0,0.0,0.0,0.0,0.0,0.0,0.0,0.0,0.0,0.0,0.0,0.0,0.0,0.0,0.0,0.0,0.0,0.0,0.0,0.0,0.0,0.0,0.0,0.0,0.0,0.0,0.0,0.0,0.0,0.0,0.0,0.0,0.0,0.0,0.0,0.0,0.0,0.0,0.0,0.0,0.0,0.0,0.0,0.0,0.0,0.0,0.0,0.0,0.0,-4.1956,-4.4728,-4.8379,-5.0802,-5.1977,-5.2784,-5.2674,-5.1499,-4.9407,-4.7021,0.0,0.0,0.0,0.0,0.0,0.0,0.0,0.0,0.0,0.0,0.0,0.0,0.0,0.0,0.0,0.0,0.0,0.0,0.0,0.0,0.0,0.0,0.0,0.0,0.0,0.0,0.0,0.0,0.0,0.0,0.0,0.0,0.0,0.0,0.0,0.0,0.0,0.0,0.0,0.0,0.0,0.0,-3.7991,-3.8946,0.0,0.0,0.0,-3.9937,-3.9606,0.0,0.0,0.0,0.0,0.0,0.0,0.0,0.0,0.0,0.0,0.0,0.0,0.0,0.0,0.0,0.0,0.0,0.0,0.0,0.0,0.0,0.0,0.0,0.0,0.0,0.0,0.0,0.0,0.0,0.0,0.0,0.0,0.0,0.0,0.0,0.0,0.0,0.0,0.0,0.0,0.0,0.0,0.0,0.0,0.0,0.0,0.0,0.0,0.0,0.0,0.0,0.0,0.0,0.0,0.0,0.0,0.0,-4.5002,-4.882,-5.1389,-5.2564,-5.2968,-5.2931,-5.2307,-4.9921,0.0,0.0,0.0,0.0,0.0,0.0,0.0,0.0,0.0,0.0,0.0,0.0,0.0,0.0,0.0,0.0,0.0,0.0,0.0,0.0,0.0,0.0,0.0,0.0,0.0,0.0,0.0,-2.1465,0.0,0.0,0.0,0.0,0.0,0.0,0.0,0.0,0.0,0.0,0.0,0.0,0.0,0.0,-3.8337,-3.9717,-4.0928,-4.1846,0.0,0.0,-4.2233,-4.2049,-4.1332,-4.0451,0.0,0.0,0.0,0.0,0.0,0.0,0.0,0.0,0.0,0.0,0.0,0.0,0.0,0.0,0.0,0.0,0.0,0.0,0.0,0.0,0.0,0.0,0.0,0.0,0.0,0.0,0.0,0.0,0.0,0.0,0.0,0.0,0.0,0.0,0.0,0.0,0.0,0.0,0.0,0.0,0.0,0.0,0.0,0.0,0.0,0.0,0.0,0.0,0.0,0.0,0.0,0.0,0.0,0.0,-4.2636,-4.581,-4.9114,-5.1903,-5.4106,-5.3555,-5.3188,-5.3078,-5.0765,-4.8362,0.0,0.0,0.0,0.0,0.0,0.0,0.0,0.0,0.0,0.0,0.0,0.0,0.0,0.0,0.0,0.0,0.0,0.0,0.0,0.0,0.0,0.0,0.0,0.0,0.0,0.0,0.0,0.0,0.0,0.0,0.0,0.0,0.0,0.0,0.0,0.0,0.0,0.0,0.0,0.0,0.0,-3.9717,-4.278,-4.3294,-4.3864,0.0,-4.559,-4.5333,-4.4562,-4.3754,-4.2727,-4.1168,0.0,0.0,0.0,0.0,0.0,0.0,0.0,0.0,0.0,0.0,0.0,0.0,0.0,0.0,0.0,0.0,0.0,0.0,0.0,0.0,0.0,0.0,0.0,0.0,0.0,0.0,0.0,0.0,0.0,0.0,0.0,0.0,0.0,0.0,0.0,0.0,0.0,0.0,0.0,0.0,0.0,0.0,0.0,0.0,0.0,0.0,0.0,0.0,0.0,0.0,0.0,0.0,0.0,-4.293,-4.6599,-4.9848,-5.2454,-5.4326,-5.4583,-5.4436,-5.3959,-5.161,-4.9187,0.0,0.0,0.0,0.0,0.0,0.0,0.0,0.0,0.0,0.0,0.0,0.0,0.0,0.0,0.0,0.0,0.0,0.0,0.0,0.0,0.0,0.0,0.0,0.0,0.0,0.0,0.0,0.0,-2.59,-2.6182,-2.6421,0.0,0.0,0.0,0.0,0.0,0.0,0.0,0.0,0.0,0.0,-4.1765,-4.4401,-4.5205,0.0,0.0,-4.6523,-4.6304,-4.5498,-4.515,-4.4452,-4.2837,-4.1625,0.0,0.0,0.0,0.0,0.0,0.0,0.0,0.0,0.0,0.0,0.0,0.0,0.0,0.0,0.0,0.0,0.0,0.0,0.0,0.0,0.0,0.0,0.0,0.0,0.0,0.0,0.0,0.0,0.0,0.0,0.0,0.0,0.0,0.0,0.0,0.0,0.0,0.0,0.0,0.0,0.0,0.0,0.0,0.0,0.0,0.0,0.0,0.0,0.0,0.0,0.0,0.0,-4.3297,-4.7076,-5.0325,-5.2894,-5.473,-5.528,-5.5427,-5.5097,-5.2784,-5.0472,0.0,0.0,0.0,0.0,0.0,0.0,0.0,0.0,0.0,0.0,0.0,0.0,0.0,0.0,0.0,0.0,0.0,0.0,0.0,0.0,0.0,0.0,0.0,0.0,0.0,0.0,0.0,0.0,-2.7554,-2.7323,-2.6829,0.0,0.0,0.0,0.0,0.0,0.0,0.0,0.0,0.0,0.0,-4.3926,-4.604,-4.7024,-4.7607,-4.7826,-4.7979,-4.7726,-4.6922,-4.667,-4.6085,-4.4783,0.0,0.0,0.0,0.0,0.0,0.0,0.0,0.0,0.0,0.0,0.0,0.0,0.0,0.0,0.0,0.0,0.0,0.0,0.0,0.0,0.0,0.0,0.0,0.0,0.0,0.0,0.0,-3.7382,0.0,0.0,-3.4931,0.0,0.0,0.0,0.0,0.0,0.0,0.0,0.0,0.0,0.0,0.0,0.0,0.0,0.0,0.0,0.0,0.0,0.0,0.0,0.0,0.0,0.0,-4.3901,-4.7113,-5.0398,-5.3188,-5.5464,-5.5596,-5.5978,-5.6638,-5.4414,-5.238,-5.0655,0.0,0.0,0.0,0.0,0.0,0.0,0.0,0.0,0.0,0.0,0.0,0.0,0.0,0.0,0.0,0.0,0.0,0.0,0.0,0.0,0.0,0.0,0.0,0.0,0.0,0.0,-2.9806,-2.9904,-2.9284,0.0,0.0,0.0,0.0,0.0,0.0,0.0,0.0,0.0,-4.1483,-4.4016,-4.613,-4.7769,-4.8644,-4.9461,-5.0174,-5.0305,-5.0049,-4.9211,-4.8466,-4.7756,0.0,0.0,0.0,0.0,0.0,0.0,0.0,0.0,0.0,0.0,0.0,0.0,0.0,0.0,0.0,0.0,0.0,0.0,0.0,0.0,0.0,0.0,0.0,0.0,0.0,0.0,0.0,-4.0928,-4.0561,0.0,0.0,0.0,0.0,0.0,0.0,0.0,0.0,0.0,0.0,0.0,-4.5095,-4.5095,0.0,0.0,0.0,0.0,0.0,0.0,0.0,0.0,0.0,0.0,0.0,0.0,-4.5773,-4.9481,-5.2234,-5.4509,-5.6345,-5.6895,-5.7079,-5.6785,-5.4987,-5.2234,-4.8434,0.0,0.0,0.0,0.0,0.0,0.0,0.0,0.0,0.0,0.0,0.0,0.0,0.0,0.0,0.0,0.0,0.0,0.0,0.0,0.0,0.0,0.0,0.0,0.0,0.0,-2.9902,0.0,0.0,0.0,0.0,0.0,0.0,0.0,0.0,0.0,0.0,0.0,-4.1339,-4.3923,-4.6795,-4.9168,-5.0669,-5.1516,-5.1904,0.0,0.0,0.0,0.0,0.0,0.0,0.0,0.0,0.0,0.0,0.0,0.0,0.0,0.0,-4.3277,-4.0084,-3.9496,-3.968,-4.0194,0.0,0.0,0.0,0.0,0.0,0.0,0.0,0.0,0.0,0.0,0.0,0.0,0.0,0.0,-4.4232,0.0,-4.2873,0.0,0.0,0.0,0.0,0.0,0.0,0.0,0.0,-4.6985,-4.8196,-4.9204,-4.9204,-4.9204,0.0,-4.8416,-4.625,0.0,0.0,0.0,0.0,0.0,0.0,0.0,0.0,-4.7425,-5.1132,-5.3335,-5.517,-5.6748,-5.7593,-5.774,-5.7226,-5.539,-5.2637,-4.8911,-4.6177,-4.3387,0.0,0.0,0.0,0.0,0.0,0.0,0.0,0.0,0.0,0.0,0.0,0.0,0.0,0.0,0.0,0.0,0.0,0.0,0.0,0.0,0.0,0.0,0.0,-3.2078,0.0,0.0,0.0,0.0,0.0,0.0,0.0,0.0,0.0,-3.8799,-4.1305,-4.4122,-4.6694,-4.9264,-5.1348,-5.2546,0.0,0.0,0.0,0.0,0.0,0.0,0.0,-5.1009,-5.0301,-5.0322,-5.0289,-4.9939,-4.9931,-5.0031,-4.9994,0.0,0.0,-4.4782,-4.4048,-4.4268,-4.5112,-4.5259,-4.5663,-4.6985,-4.7865,-4.893,0.0,0.0,0.0,0.0,0.0,0.0,0.0,0.0,-4.8489,-4.8067,0.0,-4.7259,0.0,0.0,0.0,0.0,-4.5002,-4.5736,0.0,0.0,-5.0582,-5.1793,-5.3261,-5.3314,-5.3314,-5.3277,-5.2564,-5.172,-5.0655,-4.6177,0.0,0.0,0.0,0.0,0.0,0.0,-4.8837,-5.2087,-5.3702,-5.528,-5.6859,-5.7629,-5.796,-5.7886,-5.5684,-5.3702,-5.2013,-4.893,-4.614,-4.3698,-4.0598,0.0,0.0,0.0,0.0,0.0,0.0,0.0,0.0,0.0,0.0,0.0,0.0,0.0,0.0,0.0,0.0,0.0,0.0,0.0,0.0,-3.4935,0.0,0.0,0.0,0.0,0.0,0.0,0.0,0.0,0.0,0.0,-4.223,-4.4114,-4.6649,-4.9764,0.0,0.0,0.0,0.0,-5.4496,-5.4424,-5.446,-5.4173,-5.3322,-5.3203,-5.3025,-5.2532,0.0,0.0,-5.304,-5.3191,-5.3277,-5.335,-5.335,-5.2601,-5.0251,-4.9627,-4.9848,-5.0729,-5.0875,-5.1242,-5.2013,-5.2747,-5.3775,-5.5317,0.0,0.0,0.0,0.0,-5.2417,-5.2674,-5.2637,-5.2637,-5.2527,-5.2234,-5.1096,0.0,0.0,0.0,0.0,0.0,0.0,-5.1536,-5.387,-5.4127,-5.5097,-5.6602,-5.6638,-5.6602,-5.6602,-5.6381,-5.5574,-5.4216,-5.2821,-4.9848,-4.5461,0.0,0.0,0.0,0.0,-5.1903,-5.4436,-5.5574,-5.6895,-5.8487,-5.818,-5.774,-5.7152,-5.6492,-5.5097,-5.2931,-5.1389,-4.9187,-4.6195,-4.4104,0.0,0.0,0.0,0.0,0.0,0.0,0.0,0.0,0.0,0.0,0.0,0.0,0.0,0.0,0.0,0.0,0.0,0.0,0.0,-3.6705,-3.7232,-3.7413,0.0,0.0,0.0,0.0,0.0,0.0,0.0,0.0,0.0,-4.8424,-4.9148,-5.0321,0.0,0.0,-5.4817,-5.4866,-5.5998,-5.6358,-5.5,-5.5375,0.0,-5.3832,-5.3774,-5.3856,-5.3717,-5.3929,-5.4399,-5.5262,-5.5533,-5.5784,-5.637,-5.6571,-5.6528,-5.6418,-5.4509,-5.3628,-5.473,-5.5097,-5.5354,-5.6124,-5.6932,-5.7753,-6.0015,-5.8033,-5.5978,-5.5097,-5.517,-5.5611,-5.5831,-5.5831,-5.5831,-5.5831,-5.5757,-5.4803,-5.4179,-5.3849,-5.3078,0.0,0.0,0.0,-5.5023,-5.7005,-5.7042,-5.774,-5.8914,-5.8951,-5.8951,-5.8951,-5.8951,-5.829,-5.7005,-5.7042,-5.5133,-5.1499,0.0,-5.0178,-5.1499,-5.2784,-5.4436,-5.6455,-5.7336,-5.8377,-5.9625,-5.9208,-5.8584,-5.779,-5.7446,-5.6455,-5.4693,-5.3555,-5.1756,-4.9187,-4.7498,-4.5296,0.0,0.0,0.0,0.0,0.0,0.0,0.0,0.0,0.0,0.0,0.0,-2.93,-3.041,0.0,0.0,0.0,-3.6761,-3.8826,-4.0383,-4.0546,0.0,0.0,0.0,0.0,0.0,0.0,0.0,-4.6323,-4.9039,-5.1393,-5.2951,-5.3711,-5.4315,-5.4819,-5.5671,-5.6335,-5.677,0.0,-5.7639,-5.6545,-5.683,-5.6766,-5.5758,-5.5692,-5.5856,-5.5964,-5.6335,-5.6812,-5.7508,-5.7765,-5.8154,-5.8896,-5.9189,-5.9627,-6.0762,-5.9358,-5.8147,-5.8597,-5.8694,-5.8951,-5.9758,-6.0566,-6.13,-6.42,-6.387,-6.0126,-5.851,-5.84,-5.8474,-5.8474,-5.8474,-5.8474,-5.8437,-5.8364,-5.829,-5.785,-5.7042,-5.6308,0.0,-5.7116,-5.7079,-5.7923,-5.9368,-5.9441,-5.9918,-6.0676,-6.0786,-6.075,-6.0713,-6.0713,-6.0236,-5.9404,-5.9368,-5.8964,-5.8143,-5.5244,-5.4106,-5.4803,-5.55,-5.6638,-5.818,-5.8914,-5.9625,-6.0382,-6.0456,-6.0126,-5.9294,-5.8584,-5.7776,-5.6895,-5.5464,-5.3922,-5.2234,-5.0692,-4.8783,-4.6397,0.0,0.0,0.0,0.0,0.0,0.0,0.0,0.0,0.0,0.0,0.0,0.0,0.0,0.0,0.0,-4.0709,0.0,-4.4331,-4.4476,0.0,0.0,0.0,-4.6069,-4.6794,-4.7678,-4.8822,-5.0307,0.0,0.0,-5.5993,-5.7514,-5.8223,-5.7418,-5.7117,-5.7487,-5.8821,-5.8716,-5.8549,-5.8372,-5.8397,-5.8379,-5.7995,-5.8025,-5.8107,-5.8331,-5.9048,-5.925,-5.9555,-5.9724,-6.0243,-6.122,-6.1418,-6.1844,-6.3401,-6.3471,-6.3481,-6.2132,-6.1887,-6.2108,-6.2768,-6.3466,-6.4016,-6.5007,-6.4934,-6.398,-6.2842,-6.1741,-6.2365,-6.2658,-6.2658,-6.2658,-6.2254,-6.163,-6.1006,-6.0309,-5.9538,-5.9355,-5.9355,-5.9538,-5.9538,-6.0089,-6.1043,-6.1667,-6.2401,-6.3246,-6.387,-6.3833,-6.3246,-6.3209,-6.2438,-6.108,-6.1043,-6.0603,-5.9832,-5.9061,-5.8474,-5.8084,-5.8253,-5.8841,-5.9832,-6.0015,-6.0199,-6.0419,-6.1006,-6.0933,-6.0162,-5.9942,-5.9171,-5.7776,-5.7373,-5.6124,-5.3959,-5.2894,-5.1536,-4.9701,-4.7276,0.0,0.0,0.0,0.0,0.0,0.0,0.0,0.0,0.0,-3.5349,-3.6959,0.0,-4.0057,0.0,-4.3969,-4.6013,-4.7606,-4.7751,0.0,0.0,-4.951,-4.9945,-5.0162,-5.1973,-5.3349,-5.3711,-5.5848,-5.7406,-5.7768,-5.8709,-5.9417,-5.9655,-5.9087,-5.8735,-5.8992,-5.9244,-5.9159,-5.8609,-5.8834,-5.885,-5.8235,-5.8219,-5.8373,-5.8508,-5.8688,-5.9159,-6.0454,-6.0805,-6.1343,-6.2817,-6.3292,-6.3679,-6.4265,-6.4385,-6.4667,-6.4955,-6.4746,-6.4457,-6.4677,-6.4897,-6.5228,-6.6366,-6.6366,-6.6366,-6.5815,-6.4971,-6.4714,-6.464,-6.464,-6.464,-6.4383,-6.3881,-6.3466,-6.3025,-6.2585,-6.2585,-6.2585,-6.2585,-6.2585,-6.2842,-6.3246,-6.3723,-6.4163,-6.464,-6.5118,-6.5081,-6.464,-6.464,-6.4163,-6.3282,-6.3246,-6.2842,-6.2034,-6.2034,-6.163,-6.0799,-6.0456,-6.0493,-6.0933,-6.13,-6.1484,-6.1484,-6.1887,-6.1777,-6.097,-6.0933,-6.0346,-5.9134,-5.9061,-5.8107,-5.6124,-5.553,-5.4349,-5.2407,-5.0252,-4.8267,0.0,0.0,0.0,0.0,0.0,0.0,0.0,0.0,0.0,0.0,0.0,-4.3969,-4.5924,-4.7953,-4.9836,-5.143,-5.1574,-5.2009,-5.3132,-5.3639,-5.3929,-5.3929,-5.545,-5.6464,-5.6464,-5.8239,-5.947,-5.9506,-6.0158,-6.0793,-6.1172,-6.071,-6.0256,-6.0067,-6.0136,-5.9976,-5.9471,-5.947,-5.9394,-5.8815,-5.8839,-5.9135,-5.9545,-5.9642,-6.0189,-6.1574,-6.191,-6.2455,-6.3811,-6.4255,-6.4549,-6.5075,-6.5352,-6.5706,-6.6279,-6.6418,-6.6323,-6.6366,-6.6659,-6.7063,-6.7687,-6.7687,-6.7687,-6.7687,-6.7577,-6.6182,-6.5632,-6.5595,-6.5595,-6.5558,-6.5448,-6.5375,-6.5338,-6.5338,-6.5338,-6.5338,-6.5338,-6.5338,-6.5338,-6.5338,-6.5411,-6.5448,-6.5485,-6.5558,-6.5558,-6.5485,-6.5485,-6.5411,-6.5338,-6.5338,-6.4934,-6.4273,-6.4237,-6.387,-6.311,-6.2328,-6.1851,-6.1777,-6.2475,-6.2805,-6.2805,-6.2805,-6.2475,-6.1777,-6.1741,-6.1374,-6.0603,-6.0566,-5.9869,-5.8377,-5.8077,-5.6969,-5.4728,-5.2974,-5.1333,0.0,-4.8193,0.0,0.0,0.0,0.0,0.0,0.0,0.0,0.0,-4.6504,-4.846,-5.0524,-5.2177,-5.3711,-5.5196,-5.5341,-5.5921,-5.7297,-5.7514,-5.7514,-5.755,-5.8239,-5.8709,-5.8709,-6.005,-6.0955,-6.0928,-6.1543,-6.2014,-6.2087,-6.204,-6.1844,-6.1637,-6.1165,-6.0752,-6.0746,-6.0381,-6.0163,-6.0032,-6.003,-6.0338,-6.0967,-6.1136,-6.1684,-6.2649,-6.2891,-6.3268,-6.4333,-6.4642,-6.4983,-6.5815,-6.6197,-6.6566,-6.6852,-6.7275,-6.757,-6.7807,-6.8238,-6.8898,-6.7687,-6.7687,-6.7687,-6.7687,-6.7677,-6.7357,-6.7247,-6.7247,-6.7273,-6.688,-6.6219,-6.5595,-6.5338,-6.5338,-6.5338,-6.5338,-6.5338,-6.5338,-6.5338,-6.5338,-6.5962,-6.6292,-6.6329,-6.6953,-6.6916,-6.6292,-6.6256,-6.5962,-6.5338,-6.5338,-6.5228,-6.5081,-6.5081,-6.5007,-6.4824,0.0,0.0,0.0,-6.2732,-6.2805,-6.2805,-6.2805,-6.2732,-6.2585,-6.2585,0.0,-6.141,-6.1374,-6.0885,-5.9835,-5.9127,0.0,0.0,0.0,0.0,0.0,0.0,0.0,0.0,0.0,0.0,0.0,-5.1756,-5.1574,-4.9257,-5.1647,-5.3494,-5.4001,-5.5414,-5.6681,-5.7623,-5.7732,-5.813,-5.8999,-5.9144,-5.9144,-5.918,-5.9905,-6.0313,-6.0375,-6.1181,-6.1761,-6.1797,-6.1906,-6.2259,-6.2875,-6.2955,-6.3068,-6.3321,-6.2063,-6.1229,-6.149,-6.1541,-6.1631,-6.1599,-6.1498,-6.1395,-6.1708,-6.1708,-6.209,-6.2821,-6.3168,-6.355,-6.449,-6.4935,-6.5267,-6.5768,-6.6115,-6.6488,-6.6932,-6.7635,-6.8337,-6.8623,-6.8788,-6.9082,-6.7687,-6.7687,-6.7687,-6.7687,0.0,-6.7687,-6.7687,-6.7687,-6.7687,-6.7467,-6.7063,-6.6659,-6.6476,-6.6476,-6.6476,-6.6476,-6.6476,-6.6476,-6.6476,-6.6512,-6.688,-6.71,-6.71,-6.7504,-6.7467,-6.71,-6.71,-6.688,-6.6512,-6.6476,-6.6292,-6.5888,-6.5888,-6.5705,-6.5301,-6.4897,-6.409,-6.2817,-6.2805,-6.2805,-6.2805,-6.2805,-6.2805,-6.2805,-6.2805,0.0,0.0,0.0,0.0,0.0,0.0,0.0,0.0,0.0,0.0,-5.6091,-5.4919,-5.4218,-5.4218,-5.4218,-5.4218,-5.4218,-5.5703,-5.5776,-5.3748,-5.5486,-5.6645,-5.6645,-5.7695,-5.8709,-5.9506,-5.9615,-6.0086,-6.1208,-6.139,-6.1498,-6.1933,-6.2331,-6.2585,-6.2621,-6.2947,-6.32,-6.32,-6.3164,-6.3345,-6.3708,-6.378,-6.384,-6.3935,-6.3101,-6.2388,-6.2146,-6.2008,-6.1951,-6.1848,-6.171,-6.1813,-6.2091,-6.2195,-6.2542,-6.3272,-6.3588,-6.3974,-6.4463,-6.4809,-6.5149,-6.5516,-6.6121,-6.6751,-6.7312,-6.8248,-6.9201,-6.9795,-7.0054,-7.0155,-6.7687,-6.7687,-6.7687,-6.7687,-6.7687,-6.7687,-6.7687,-6.7687,-6.7687,0.0,0.0,-6.7687,-6.7687,-6.7687,-6.7687,-6.7687,-6.7687,-6.7687,-6.7687,-6.7687,-6.7687,-6.7687,-6.7687,-6.7687,-6.7687,-6.7687,-6.7687,-6.7687,-6.7687,-6.7687,-6.7357,-6.6769,-6.6733,-6.6329,-6.5558,-6.5521,-6.4787,-6.3294,-6.3099,-6.3025,-6.3025,-6.2879,-6.2805,-6.2805,-6.2805,-6.2805,-6.2805,-6.278,-6.2412,-6.1601,-6.1438,-6.0944,-6.0025,-5.9232,-5.8746,-5.8601,-5.7985,-5.7623,-5.7623,-5.7623,-5.7768,-5.8021,-5.8637,-5.8637,-5.7695,-5.8347,-5.8818,-5.8818,-5.9687,-6.052,-6.1172,-6.139,-6.1969,-6.3273,-6.3418,-6.3671,-6.4251,-6.4396,-6.4287,-6.4396,-6.4287,-6.4396,-6.4323,-6.4323,-6.4468,-6.4577,-6.4613,-6.4628,-6.4534,-6.4136,-6.3529,-6.2896,-6.2745,-6.2439,-6.2196,-6.202,-6.205,-6.2673,-6.2741,-6.2983,-6.3683,-6.4072,-6.4286,-6.4673,-6.4813,-6.5228,-6.5674,-6.6637,-6.7314,-6.7822,-6.8899,-7.0048,-7.0851,-7.1288,-7.1448,-6.7687,-6.7687,-6.7687,-6.7687,-6.7687,-6.7687,-6.7687,-6.7687,-6.7687,-6.7687,-6.7687,-6.7687,-6.7687,-6.7687,-6.7687,-6.7687,-6.7687,-6.7687,-6.7687,-6.7687,-6.7687,-6.7687,-6.7687,-6.7687,-6.7687,-6.7687,-6.7687,-6.7687,-6.7687,-6.7687,-6.7614,-6.754,-6.7504,-6.71,-6.6402,-6.6329,-6.5888,-6.4971,-6.4273,-6.3906,-6.3906,-6.3209,-6.2805,-6.2805,-6.2842,-6.2805,-6.2805,-6.2679,-6.2541,-6.2277,-6.2146,-6.165,-6.0728,-6.052,-6.0158,-5.9506,-5.9325,-5.9289,-5.9289,-5.9253,-5.9868,-6.1145,-6.1435,-6.0856,-5.947,-6.0013,-6.0484,-6.052,-6.1788,-6.273,-6.2875,-6.3418,-6.3852,-6.4178,-6.4215,-6.4287,-6.4468,-6.4468,-6.4504,-6.4504,-6.4396,-6.4468,-6.4541,-6.4504,-6.4794,-6.5265,-6.541,-6.554,-6.5641,-6.5125,-6.4357,-6.4043,-6.4138,-6.4182,-6.3834,-6.3691,-6.351,-6.3647,-6.3537,-6.357,-6.3889,-6.4211,-6.4635,-6.5301,-6.5759,-6.635,-6.7017,-6.7906,-6.8403,-6.8754,-6.9642,-7.0592,-7.1114,-7.167,-7.2131,-6.8348,-6.8274,-6.7871,-6.7687,-6.7687,-6.7687,-6.7687,-6.7687,-6.7687,-6.7687,-6.7687,-6.7687,-6.7687,-6.7687,-6.7687,-6.7687,-6.7687,-6.7687,-6.7687,-6.7687,-6.7687,-6.7687,-6.7687,-6.7687,-6.7687,-6.7687,-6.7687,-6.7687,-6.7687,-6.7687,-6.7687,-6.7687,-6.7687,-6.7504,-6.7173,-6.7136,-6.6953,-6.6586,-6.5375,-6.4751,-6.4751,-6.4347,-6.4163,-6.4138,-6.4163,-6.4075,-6.3962,-6.3507,-6.3158,-6.292,-6.2466,-6.1986,-6.1498,-6.1462,-6.1317,-6.0955,-6.1317,-6.1571,-6.1534,-6.1969,-6.2512,-6.3237,-6.3309,-6.3019,-6.2295,-6.2549,-6.2766,-6.2766,-6.3454,-6.3852,-6.3852,-6.4178,-6.4577,-6.5011,-6.5048,-6.5229,-6.5627,-6.57,-6.57,-6.57,-6.57,-6.57,-6.57,-6.57,-6.5808,-6.6207,-6.6243,-6.627,-6.6294,-6.5859,-6.5327,-6.485,-6.4734,-6.4567,-6.4323,-6.4073,-6.3891,-6.3747,-6.4019,-6.4189,-6.4403,-6.4832,-6.5538,-6.5997,-6.6567,-6.7057,-6.7583,-6.8447,-6.9089,-6.9457,-7.0413,-7.1223,-7.1616,-7.2043,-7.2372,-6.9192,-6.9119,-6.8495,-6.8128,-6.7981,-6.7944,-6.7871,-6.7714,-6.7687,-6.7687,-6.7687,-6.7687,-6.7687,-6.7687,-6.7687,-6.7687,-6.7687,-6.7687,-6.7687,-6.7687,-6.7687,-6.7687,-6.7687,-6.7687,-6.7687,-6.7687,-6.7687,-6.7687,-6.7687,-6.7687,-6.7687,-6.7687,-6.7687,-6.7687,-6.7687,-6.7687,-6.7687,-6.7614,-6.6476,-6.5778,-6.5558,-6.5411,-6.5301,-6.5338,-6.5212,-6.516,-6.4945,-6.4317,-6.3892,-6.3639,-6.3067,-6.2658,-6.2549,-6.2521,-6.2549,-6.2593,-6.3128,-6.3454,-6.349,-6.4033,-6.4468,-6.4649,-6.4649,-6.4758,-6.4903,-6.4939,-6.4758,-6.4468,-6.4504,-6.4649,-6.4685,-6.4867,-6.5192,-6.5772,-6.5881,-6.6098,-6.6677,-6.6822,-6.6822,-6.6822,-6.6822,-6.6786,-6.6822,-6.6822,-6.675,-6.675,-6.6822,-6.6668,-6.6361,-6.6269,-6.6093,-6.5658,-6.5154,-6.4741,-6.4358,-6.4317,-6.4206,-6.3989,-6.4571,-6.4913,-6.5161,-6.5873,-6.6584,-6.6836,-6.7304,-6.7834,-6.8184,-6.9122,-6.9881,-7.0149,-7.0934,-7.1707,-7.1921,-7.2197,-7.2438,-7.0,-7.0,-6.9853,-6.9449,-6.8825,-6.8788,-6.8385,-6.7797,-6.7687,-6.7687,-6.776,-6.7687,-6.7751,-6.7687,-6.7687,-6.7687,-6.7687,-6.7687,-6.7687,-6.7687,-6.7687,-6.7687,-6.7687,-6.7687,-6.7687,-6.7687,-6.7687,-6.7687,-6.7687,-6.7687,-6.7687,-6.7687,-6.7687,-6.7687,-6.7687,-6.7687,-6.7687,-6.7687,-6.754,-6.7136,-6.6402,-6.5668,-6.5338,-6.5301,-6.5134,-6.5018,-6.5065,-6.4676,-6.4511,-6.4483,-6.4263,-6.417,-6.4142,-6.4142,-6.4142,-6.4142,-6.4215,-6.4287,-6.4323,-6.4359,-6.4758,-6.541,-6.5482,-6.5772,-6.6424,-6.6533,-6.5917,-6.4939,-6.512,-6.5446,-6.5555,-6.6098,-6.646,-6.6533,-6.6605,-6.6714,-6.6786,-6.6822,-6.6822,-6.6822,-6.6822,-6.6822,-6.6822,-6.6822,-6.6822,-6.6822,-6.6822,-6.677,-6.6535,-6.6413,-6.6447,-6.6223,-6.5744,-6.5189,-6.4847,-6.4951,-6.5047,-6.5113,-6.5481,-6.5783,-6.5997,-6.6326,-6.6795,-6.7751,-6.8363,-6.8858,-6.9632,-7.0472,-7.0767,-7.0793,-7.1232,-7.1692,-7.1964,-7.232,-7.2541,-7.0807,-7.077,-7.0293,-6.9926,-6.9633,-6.9596,-6.9412,-6.9119,-6.9119,-6.9119,-6.9119,-6.9119,-6.8605,-6.7687,-6.7687,-6.7687,-6.7687,-6.7687,-6.7687,-6.7687,-6.7687,-6.7687,-6.7687,-6.7687,-6.7687,-6.7687,-6.7687,-6.7687,-6.7687,-6.7687,-6.7687,-6.7687,-6.7687,-6.7687,-6.7687,-6.7687,-6.7687,-6.7687,-6.7687,-6.7504,-6.721,-6.688,-6.6696,-6.6696,-6.6563,-6.6418,-6.6236,-6.5677,-6.5283,-6.517,-6.4678,-6.4396,-6.4396,-6.4396,-6.4396,-6.4432,-6.483,-6.5301,-6.5772,-6.5808,-6.5953,-6.6315,-6.6315,-6.646,-6.675,-6.6822,-6.6496,-6.6025,-6.6134,-6.6315,-6.6315,-6.6605,-6.6822,-6.6822,-6.6822,-6.6822,-6.6822,-6.6822,-6.6822,-6.6822,-6.6822,-6.6822,-6.6822,-6.6822,-6.6822,-6.6822,-6.6822,-6.6878,-6.7029,-6.705,-6.7123,-6.7275,-6.6974,-6.6459,-6.5934,-6.5856,-6.5917,-6.5833,-6.6163,-6.6574,-6.6716,-6.7402,-6.8052,-6.8628,-6.9139,-6.9672,-7.0164,-7.0647,-7.1012,-7.1287,-7.1978,-7.2585,-7.327,-7.3569,-7.375,-7.1623,-7.1541,-7.0991,-7.0624,-7.044,-7.044,-7.0293,-7.011,-7.011,-7.011,-7.011,-7.011,-6.9449,-6.8421,-6.8128,-6.7907,-6.7714,-6.7687,-6.7687,-6.7687,-6.7687,-6.7687,-6.7687,-6.7687,-6.7687,-6.7687,-6.7687,-6.7687,-6.7687,-6.7687,-6.7687,-6.7687,-6.7687,-6.7687,-6.7687,-6.7687,-6.7687,-6.7687,-6.7687,-6.7687,-6.765,-6.7687,-6.7687,-6.7687,-6.7524,-6.7322,-6.7174,-6.6494,-6.6032,-6.5917,-6.5374,-6.5048,-6.5048,-6.5048,-6.5048,-6.5084,-6.5591,-6.617,-6.6786,-6.6822,-6.6822,-6.6822,-6.6822,-6.6822,-6.6822,-6.6822,-6.6822,-6.675,-6.6822,-6.6786,-6.6822,-6.6822,-6.6822,-6.6822,-6.6822,-6.6822,-6.6822,-6.6822,-6.6822,-6.6822,-6.6822,-6.6822,-6.6822,-6.6822,-6.6858,-6.7112,-6.7184,-6.7342,-6.7842,-6.7909,-6.7976,-6.8335,-6.8142,-6.7553,-6.684,-6.6723,-6.6607,-6.662,-6.7023,-6.7669,-6.7709,-6.8609,-6.9447,-6.9998,-7.0303,-7.0736,-7.1372,-7.1605,-7.1726,-7.2098,-7.269,-7.3488,-7.4004,-7.4451,-7.4641,-7.2459,-7.2422,-7.2422,-7.1908,-7.1256,-7.1219,-7.0844,-7.0257,-7.0183,-7.0146,-7.022,-7.0183,-7.0073,-6.9889,-6.9229,-6.8458,-6.7797,-6.776,-6.776,-6.776,-6.7714,-6.7687,-6.7687,-6.7687,-6.7687,-6.7687,-6.7687,-6.7687,-6.7687,-6.7687,-6.7687,-6.7687,-6.7687,-6.7687,-6.7687,-6.7687,-6.7687,-6.7687,-6.7687,-6.7687,-6.7687,-6.7687,-6.7687,-6.7687,-6.7378,-6.7238,-6.7182,-6.6925,-6.675,-6.675,-6.6641,-6.6641,-6.6641,-6.6641,-6.6569,-6.6641,-6.6677,-6.675,-6.6786,-6.6822,-6.6822,-6.6822,-6.6822,-6.6822,-6.6822,-6.6822,-6.6822,-6.6822,-6.6822,-6.6822,-6.6822,-6.6822,-6.6822,-6.6822,-6.6822,-6.6822,-6.6822,-6.6822,-6.6822,-6.6822,-6.6895,-6.6931,-6.6895,-6.6822,-6.7293,-6.7764,-6.7945,-6.8174,-6.8703,-6.8733,-6.887,-6.9154,-6.9029,-6.8364,-6.7339,-6.7536,-6.7585,-6.7596,-6.8231,-6.9124,-6.9554,-7.0065,-7.0702,-7.1301,-7.1574,-7.2013,-7.2725,-7.3107,-7.3269,-7.3468,-7.3602,-7.4159,-7.4879,-7.4546,-7.4811,-7.2532,-7.2532,-7.2532,-7.2349,-7.2092,-7.2055,-7.1908,-7.1651,-7.1651,-7.1615,-7.1651,-7.1615,-7.1358,-7.0844,-7.0559,-7.0,-6.9229,-6.8715,-6.8458,-6.8421,-6.7944,-6.7687,-6.7687,-6.7687,-6.7687,-6.7687,-6.7687,-6.7687,-6.7687,-6.7687,-6.7687,-6.7687,-6.7687,-6.7687,-6.7687,-6.7687,-6.7687,-6.7687,-6.7687,-6.7687,-6.7687,-6.7687,-6.7687,-6.7687,-6.7378,-6.721,-6.721,-6.6961,-6.6822,-6.6822,-6.6822,-6.6822,-6.6822,-6.6822,-6.6822,-6.6822,-6.6822,-6.6822,-6.6822,-6.6822,-6.6822,-6.6822,-6.6822,-6.6822,-6.6822,-6.6822,-6.6822,-6.6822,-6.6822,-6.6822,-6.6822,-6.6822,-6.6822,-6.6822,-6.6822,-6.6858,-6.6822,-6.6822,-6.6822,-6.6895,-6.7221,-6.7583,-6.7655,-6.7981,-6.8416,-6.8669,-6.8742,-6.911,-6.9627,-6.9719,-6.9929,-7.0781,-7.0731,-7.0309,-7.0117,-6.9354,-6.9045,-6.8976,-6.9336,-6.986,-7.0361,-7.0699,-7.1303,-7.1909,-7.2356,-7.2832,-7.3366,-7.3814,-7.4085,-7.4513,-7.4682,-7.4994,-7.5758,-7.5566,-7.5865,-7.2532,-7.2532,-7.2532,-7.2532,-7.2532,-7.2532,-7.2532,-7.2532,-7.2532,-7.2532,-7.2496,-7.2496,-7.2202,-7.1762,-7.1688,-7.1431,-7.077,-6.9779,-6.9155,-6.8862,-6.8348,-6.7944,-6.7724,-6.7687,-6.7687,-6.7687,-6.7687,-6.7687,-6.7687,-6.7687,-6.7687,-6.7687,-6.7687,-6.7687,-6.7687,-6.7687,-6.7687,-6.7687,-6.7687,-6.7687,-6.7687,-6.7687,-6.7687,-6.7606,-6.735,-6.721,-6.721,-6.6961,-6.6822,-6.6822,-6.6822,-6.6822,-6.6822,-6.6822,-6.6822,-6.6822,-6.6822,-6.6822,-6.6822,-6.6822,-6.6822,-6.6822,-6.6822,-6.6822,-6.6822,-6.6822,-6.6931,-6.7112,-6.7184,-6.7221,-6.751,-6.7583,-6.7474,-6.7329,-6.7402,-6.7583,-6.7583,-6.7583,-6.7619,-6.7728,-6.809,-6.8343,-6.8416,-6.885,-6.9243,-6.9533,-6.9605,-7.0004,-7.0879,-7.1042,-7.1211,-7.224,-7.1976,-7.1657,-7.1392,-7.0906,-7.0193,-7.0049,-7.039,-7.0845,-7.1215,-7.1559,-7.1983,-7.2516,-7.3037,-7.3475,-7.3936,-7.4382,-7.4872,-7.5409,-7.5548,-7.5756,-7.6243,-7.666,-7.6956,-7.2532,-7.2532,-7.2532,-7.2532,-7.2532,-7.2532,-7.2532,-7.2532,-7.2532,-7.2532,-7.2532,-7.2532,-7.2459,-7.2459,-7.2386,-7.2422,-7.2055,-7.0844,-6.9853,-6.9192,-6.8972,-6.8495,-6.7834,-6.7834,-6.776,-6.7687,-6.7687,-6.7687,-6.7687,-6.7687,-6.7687,-6.7687,-6.7687,-6.7687,-6.7687,-6.7687,-6.7687,-6.7687,-6.7687,-6.7687,-6.7687,-6.7687,-6.7633,-6.7497,-6.7294,-6.721,-6.7182,-6.6932,-6.6822,-6.6822,-6.6822,-6.6822,-6.6822,-6.6822,-6.6822,-6.6822,-6.6822,-6.6858,-6.6895,-6.6967,-6.7076,-6.7076,-6.6967,-6.7076,-6.7148,-6.7076,-6.7329,-6.7873,-6.8017,-6.8271,-6.8881,-6.9062,-6.8778,-6.8235,-6.8525,-6.8917,-6.9026,-6.9134,-6.9134,-6.9062,-6.9134,-6.9207,-6.9243,-6.9394,-6.9787,-7.0227,-7.0517,-7.0951,-7.211,-7.2308,-7.2759,-7.3103,-7.2974,-7.2654,-7.246,-7.2216,-7.1494,-7.1059,-7.1515,-7.1978,-7.2325,-7.2634,-7.3163,-7.3731,-7.4467,-7.4941,-7.5369,-7.5855,-7.6208,-7.6601,-7.6526,-7.6627,-7.7113,-7.76,-7.7834,-7.2532,-7.2532,-7.2532,-7.2532,-7.2532,-7.2532,-7.2532,-7.2532,-7.2532,-7.2532,-7.2532,-7.2532,-7.2532,-7.2532,-7.2532,-7.2532,-7.2459,-7.1945,-7.1321,-7.055,-7.0,-6.9302,-6.8641,-6.8531,-6.8238,-6.776,-6.7687,-6.7714,-6.7724,-6.7724,-6.7687,-6.7687,-6.7724,-6.7687,-6.776,-6.7687,-6.7687,-6.7687,-6.7687,-6.7687,-6.7687,-6.7687,-6.767,-6.7506,-6.7294,-6.7154,-6.7069,-6.6903,-6.6822,-6.6822,-6.6822,-6.6822,-6.6822,-6.6822,-6.6822,-6.6858,-6.7329,-6.7619,-6.7692,-6.8126,-6.838,-6.8446,-6.8416,-6.8452,-6.8452,-6.838,-6.8488,-6.8778,-6.8814,-6.8959,-6.9243,-6.975,-6.9647,-6.8923,-6.9032,-6.9279,-6.9352,-6.9279,-6.9207,-6.9279,-6.9678,-6.9973,-7.0118,-7.0335,-7.0806,-7.1132,-7.1603,-7.2291,-7.2621,-7.3241,-7.3619,-7.407,-7.3796,-7.3689,-7.3671,-7.3572,-7.3112,-7.2579,-7.2742,-7.2991,-7.3297,-7.3795,-7.4322,-7.5026,-7.5723,-7.6267,-7.6767,-7.7156,-7.7438,-7.776,-7.7831,-7.8037,-7.8343,-7.8541,-7.867,-7.2532,-7.2532,-7.2532,-7.2532,-7.2532,-7.2532,-7.2532,-7.2532,-7.2532,-7.2532,-7.2532,-7.2532,-7.2532,-7.2532,-7.2532,-7.2532,-7.2532,-7.2532,-7.2239,-7.1688,-7.0917,-7.011,-6.9449,-6.9339,-6.9119,-6.8678,-6.8605,-6.8568,-6.8568,-6.8568,-6.8568,-6.8605,-6.8568,-6.8605,-6.8568,-6.8568,-6.8568,-6.8568,-6.8605,-6.8568,-6.8605,-6.855,-6.8468,-6.8264,-6.8122,-6.7949,-6.7803,-6.7751,-6.7547,-6.7366,-6.751,-6.7692,-6.7692,-6.7728,-6.7692,-6.7764,-6.809,-6.8452,-6.8488,-6.885,-6.9207,-6.9207,-6.9207,-6.9171,-6.9171,-6.9207,-6.9279,-6.9605,-6.9678,-6.972,-7.0082,-7.0444,-7.0517,-7.0118,-7.0082,-7.0046,-7.0046,-7.0046,-7.0082,-7.0227,-7.0517,-7.0734,-7.0951,-7.1458,-7.1929,-7.2038,-7.2653,-7.3378,-7.3559,-7.4033,-7.4521,-7.4824,-7.4761,-7.4796,-7.4952,-7.4858,-7.4694,-7.4321,-7.4017,-7.4052,-7.4167,-7.4823,-7.5456,-7.6331,-7.7092,-7.7272,-7.77,-7.8056,-7.8376,-7.8666,-7.8881,-7.8831,-7.8847,-7.9052,-7.9255,-7.2532,-7.2532,-7.2532,-7.2532,-7.2532,-7.2532,-7.2532,-7.2532,-7.2532,-7.2532,-7.2532,-7.2532,-7.2532,-7.2532,-7.2532,-7.2532,-7.2532,-7.2496,-7.2496,-7.2239,-7.1688,-7.0954,-7.0257,-7.0036,-6.9889,-6.9889,-6.9889,-6.9963,-6.9816,-6.9816,-7.011,-6.9889,-6.9853,-7.0036,-6.9853,-7.0036,-6.9889,-6.9853,-6.9926,-6.9926,-6.9926,-6.9823,-6.9681,-6.9464,-6.9288,-6.914,-6.8984,-6.9062,-6.8814,-6.8271,-6.8669,-6.8953,-6.9098,-6.9207,-6.8995,-6.8989,-6.9207,-6.9279,-6.9279,-6.9497,-6.9533,-6.9539,-6.9575,-6.9321,-6.9569,-6.9647,-6.9859,-7.0372,-7.0444,-7.0698,-7.1205,-7.1386,-7.1386,-7.1458,-7.1241,-7.1277,-7.1458,-7.1386,-7.1241,-7.1313,-7.1494,-7.1531,-7.1531,-7.2219,-7.2545,-7.2907,-7.3486,-7.4175,-7.4718,-7.5014,-7.5422,-7.5614,-7.5764,-7.5906,-7.6027,-7.5871,-7.5748,-7.5556,-7.5297,-7.5336,-7.5341,-7.595,-7.6474,-7.7379,-7.8135,-7.835,-7.8636,-7.903,-7.9245,-7.939,-7.9386,-7.9226,-7.9467,-7.9855,-8.0166,-7.2532,-7.2532,-7.2532,-7.2532,-7.2532,-7.2532,-7.2532,-7.2532,-7.2532,-7.2532,-7.2532,-7.2532,-7.2532,-7.2532,-7.2532,-7.2532,-7.2532,-7.2532,-7.2532,-7.2459,-7.2349,-7.1762,-7.0991,-7.0403,-7.0146,-7.0183,-7.0257,-7.011,-7.011,-7.022,-7.0183,-7.011,-7.022,-7.0183,-7.011,-7.0183,-7.011,-7.011,-7.011,-7.0146,-7.0155,-7.0043,-6.9827,-6.9617,-6.9514,-6.94,-6.9316,-6.9787,-6.9714,-6.8959,-6.9032,-6.9207,-6.9279,-6.9316,-6.9352,-6.9388,-6.9823,-7.0113,-7.0154,-7.0553,-7.0842,-7.0879,-7.0734,-7.0879,-7.0879,-7.0879,-7.0987,-7.1205,-7.1241,-7.1277,-7.1458,-7.1494,-7.1494,-7.1494,-7.1494,-7.1494,-7.1494,-7.1494,-7.1494,-7.1494,-7.1531,-7.182,-7.2291,-7.2653,-7.3052,-7.3595,-7.4247,-7.4902,-7.5478,-7.6133,-7.6574,-7.6766,-7.6913,-7.7016,-7.7039,-7.6884,-7.6766,-7.6685,-7.6611,-7.6728,-7.6808,-7.7148,-7.7593,-7.8135,-7.8927,-7.9287,-7.9683,-8.0078,-8.0151,-8.0114,-8.0362,-8.0424,-8.0849,-8.1203,-8.133,-7.2532,-7.2532,-7.2532,-7.2532,-7.2532,-7.2532,-7.2532,-7.2532,-7.2532,-7.2532,-7.2532,-7.2532,-7.2532,-7.2532,-7.2532,-7.2532,-7.2532,-7.2532,-7.2532,-7.2532,-7.2496,-7.2239,-7.1762,-7.1284,-7.1101,-7.1101,-7.1101,-7.1138,-7.1138,-7.1101,-7.1101,-7.1174,-7.1101,-7.1138,-7.1174,-7.1101,-7.1101,-7.1138,-7.1101,-7.1101,-7.1101,-7.0901,-7.0756,-7.0572,-7.0429,-7.0247,-7.0227,-7.0625,-7.0625,-7.0263,-7.0191,-7.0154,-7.0154,-7.0154,-7.0154,-7.0191,-7.0625,-7.0879,-7.0915,-7.1277,-7.1494,-7.1494,-7.1494,-7.1494,-7.1458,-7.1494,-7.1494,-7.1494,-7.1494,-7.1494,-7.1494,-7.1494,-7.1494,-7.1494,-7.1494,-7.1494,-7.1494,-7.1494,-7.1675,-7.1893,-7.2038,-7.2291,-7.3092,-7.3418,-7.3885,-7.4428,-7.5116,-7.5696,-7.6239,-7.7036,-7.7621,-7.7737,-7.7919,-7.7989,-7.8164,-7.8086,-7.8296,-7.8143,-7.8108,-7.8186,-7.8193,-7.8416,-7.8962,-7.9432,-7.9901,-8.0262,-8.0478,-8.0694,-8.073,-8.0873,-8.1304,-8.1478,-8.1615,-8.1852,-8.2055,-7.2532,-7.2532,-7.2532,-7.2532,-7.2532,-7.2532,-7.2532,-7.2532,-7.2532,-7.2532,-7.2532,-7.2532,-7.2532,-7.2532,-7.2532,-7.2532,-7.2532,-7.2532,-7.2532,-7.2532,-7.2532,-7.2422,-7.2386,-7.2275,-7.2239,-7.2275,-7.2459,-7.2386,-7.2239,-7.2312,-7.2422,-7.2275,-7.2349,-7.2459,-7.2239,-7.2349,-7.2459,-7.2312,-7.2239,-7.2173,-7.2116,-7.1874,-7.1689,-7.1605,-7.1391,-7.1272,-7.1313,-7.1422,-7.1386,-7.1458,-7.1494,-7.135,-7.1386,-7.1458,-7.1422,-7.135,-7.1313,-7.1422,-7.1458,-7.1458,-7.1494,-7.1494,-7.1494,-7.1494,-7.1494,-7.1494,-7.1494,-7.1494,-7.1494,-7.1494,-7.1494,-7.1494,-7.1494,-7.1531,-7.1567,-7.1639,-7.1639,-7.1639,-7.1929,-7.2617,-7.2726,-7.3233,-7.3888,-7.4612,-7.5119,-7.5623,-7.6167,-7.6601,-7.7217,-7.7941,-7.8344,-7.853,-7.8711,-7.8927,-7.9179,-7.9357,-7.9642,-7.9782,-7.9746,-7.9749,-7.9499,-7.9755,-8.0406,-8.084,-8.0659,-8.0695,-8.0875,-8.1056,-8.1092,-8.1199,-8.1375,-8.1478,-8.1649,-8.1919,-8.2154,-7.2532,-7.2532,-7.2532,-7.2532,-7.2532,-7.2532,-7.2532,-7.2532,-7.2532,-7.2532,-7.2532,-7.2532,-7.2532,-7.2532,-7.2532,-7.2532,-7.2532,-7.2532,-7.2532,-7.2532,-7.2532,-7.2532,-7.2532,-7.2532,-7.2532,-7.2532,-7.2532,-7.2532,-7.2532,-7.2532,-7.2532,-7.2532,-7.2532,-7.2532,-7.2532,-7.2532,-7.2532,-7.2532,-7.2532,-7.2438,-7.2321,-7.2144,-7.1927,-7.1842,-7.1625,-7.1494,-7.1494,-7.1494,-7.1494,-7.1494,-7.1494,-7.1494,-7.1494,-7.1494,-7.1494,-7.1494,-7.1494,-7.1494,-7.1494,-7.1494,-7.1494,-7.1494,-7.1494,-7.1494,-7.1494,-7.1494,-7.1494,-7.1494,-7.1494,-7.1531,-7.1603,-7.1531,-7.1639,-7.1784,-7.2146,-7.2472,-7.2436,-7.2436,-7.2581,-7.2834,-7.3342,-7.3957,-7.4685,-7.5044,-7.5732,-7.6674,-7.7217,-7.7615,-7.8195,-7.8847,-7.9104,-7.9323,-7.9648,-7.9865,-7.9901,-8.008,-8.026,-8.0548,-8.0657,-8.073,-8.0514,-8.0442,-8.084,-8.1021,-8.102,-8.1092,-8.1092,-8.1128,-8.1128,-8.1234,-8.1339,-8.1512,-8.1717,-8.1985,-8.2186,-7.2532,-7.2532,-7.2532,-7.2532,-7.2532,-7.2532,-7.2532,-7.2532,-7.2532,-7.2532,-7.2532,-7.2532,-7.2532,-7.2532,-7.2532,-7.2532,-7.2532,-7.2532,-7.2532,-7.2532,-7.2532,-7.2532,-7.2532,-7.2532,-7.2532,-7.2532,-7.2532,-7.2532,-7.2532,-7.2532,-7.2532,-7.2532,-7.2532,-7.2532,-7.2532,-7.2532,-7.2532,-7.2532,-7.2496,-7.2409,-7.2299,-7.2114,-7.1866,-7.1718,-7.1562,-7.1494,-7.1494,-7.1494,-7.1494,-7.1494,-7.1494,-7.1494,-7.1494,-7.1494,-7.1494,-7.1494,-7.1494,-7.1494,-7.1494,-7.1494,-7.1494,-7.1494,-7.1494,-7.1494,-7.1494,-7.1494,-7.1494,-7.1494,-7.1531,-7.1603,-7.2001,-7.2074,-7.2183,-7.2653,-7.2979,-7.3269,-7.3269,-7.3269,-7.345,-7.3707,-7.4214,-7.4863,-7.537,-7.5768,-7.6311,-7.7289,-7.7905,-7.834,-7.8919,-7.9535,-7.9898,-8.0225,-8.0587,-8.0768,-8.0695,-8.0731,-8.0695,-8.084,-8.0876,-8.0912,-8.084,-8.0876,-8.0985,-8.1021,-8.1092,-8.1092,-8.1092,-8.1128,-8.12,-8.1305,-8.1443,-8.1581,-8.1785,-8.2055,-8.2154,-7.2532,-7.2532,-7.2532,-7.2532,-7.2532,-7.2532,-7.2532,-7.2532,-7.2532,-7.2532,-7.2532,-7.2532,-7.2532,-7.2532,-7.2532,-7.2532,-7.2532,-7.2532,-7.2532,-7.2532,-7.2532,-7.2532,-7.2532,-7.2532,-7.2532,-7.2532,-7.2532,-7.2532,-7.2532,-7.2532,-7.2532,-7.2532,-7.2532,-7.2532,-7.2532,-7.2532,-7.2532,-7.2532,-7.2438,-7.2351,-7.2233,-7.2054,-7.1775,-7.1557,-7.1494,-7.1494,-7.1494,-7.1494,-7.1494,-7.1494,-7.1494,-7.1494,-7.1494,-7.1494,-7.1494,-7.1494,-7.1494,-7.1494,-7.1494,-7.1494,-7.1494,-7.1494,-7.1494,-7.1494,-7.1494,-7.1494,-7.1494,-7.1603,-7.1675,-7.211,-7.2762,-7.2907,-7.3233,-7.3667,-7.3921,-7.4102,-7.4106,-7.4175,-7.4609,-7.4793,-7.5116,-7.5623,-7.6275,-7.6782,-7.7326,-7.7869,-7.8484,-7.91,-7.968,-8.0114,-8.0441,-8.0658,-8.0912,-8.1021,-8.0948,-8.0948,-8.0948,-8.0985,-8.1021,-8.1056,-8.1056,-8.1056,-8.1021,-8.1056,-8.1092,-8.1092,-8.1128,-8.1163,-8.127,-8.141,-8.1547,-8.1717,-8.1885,-8.2088,-8.2154,-7.2532,-7.2532,-7.2532,-7.2532,-7.2532,-7.2532,-7.2532,-7.2532,-7.2532,-7.2532,-7.2532,-7.2532,-7.2532,-7.2532,-7.2532,-7.2532,-7.2532,-7.2532,-7.2532,-7.2532,-7.2532,-7.2532,-7.2532,-7.2532,-7.2532,-7.2532,-7.2532,-7.2532,-7.2532,-7.2532,-7.2532,-7.2532,-7.2532,-7.2532,-7.2532,-7.2532,-7.2532,-7.2467,-7.238,-7.2263,-7.2114,-7.1903,-7.1749,-7.1531,-7.1494,-7.1494,-7.1494,-7.1494,-7.1494,-7.1494,-7.1494,-7.1494,-7.1494,-7.1494,-7.1494,-7.1494,-7.1494,-7.1494,-7.1494,-7.1494,-7.1494,-7.1494,-7.1494,-7.1494,-7.1494,-7.1531,-7.1567,-7.1784,-7.2219,-7.2834,-7.3631,-7.3704,-7.3776,-7.4066,-7.4537,-7.4899,-7.5008,-7.5297,-7.5478,-7.537,-7.5804,-7.6275,-7.6891,-7.7507,-7.8086,-7.8666,-7.939,-7.9897,-8.044,-8.0694,-8.0839,-8.0948,-8.102,-8.1056,-8.1056,-8.1056,-8.1056,-8.1021,-8.1056,-8.1056,-8.1056,-8.1056,-8.1092,-8.1092,-8.1092,-8.1092,-8.1163,-8.1234,-8.1375,-8.1514,-8.1649,-8.1852,-8.1989,-8.2121,-8.2154,-7.2532,-7.2532,-7.2532,-7.2532,-7.2532,-7.2532,-7.2532,-7.2532,-7.2532,-7.2532,-7.2532,-7.2532,-7.2532,-7.2532,-7.2532,-7.2532,-7.2532,-7.2532,-7.2532,-7.2532,-7.2532,-7.2532,-7.2532,-7.2532,-7.2532,-7.2532,-7.2532,-7.2532,-7.2532,-7.2532,-7.2532,-7.2532,-7.2532,-7.2532,-7.2532,-7.2532,-7.2532,-7.2467,-7.2351,-7.2174,-7.1957,-7.178,-7.1593,-7.1562,-7.1494,-7.1494,-7.1494,-7.1494,-7.1494,-7.1494,-7.1494,-7.1494,-7.1494,-7.1494,-7.1494,-7.1494,-7.1494,-7.1494,-7.1494,-7.1494,-7.1494,-7.1494,-7.1494,-7.1494,-7.1494,-7.1531,-7.1748,-7.2219,-7.2871,-7.3667,-7.4428,-7.45,-7.4718,-7.5116,-7.5478,-7.5659,-7.5804,-7.6094,-7.5949,-7.5696,-7.5985,-7.6529,-7.7289,-7.7977,-7.8702,-7.9462,-8.0187,-8.0658,-8.1056,-8.1092,-8.1092,-8.1092,-8.1092,-8.1092,-8.1092,-8.1092,-8.1092,-8.1092,-8.1092,-8.1092,-8.1092,-8.1092,-8.1092,-8.1092,-8.1092,-8.1128,-8.1234,-8.134,-8.1479,-8.1617,-8.1824,-8.2029,-8.2092,-8.2121,-8.2337,-7.2532,-7.2532,-7.2532,-7.2532,-7.2532,-7.2532,-7.2532,-7.2532,-7.2532,-7.2532,-7.2532,-7.2532,-7.2532,-7.2532,-7.2532,-7.2532,-7.2532,-7.2532,-7.2532,-7.2532,-7.2532,-7.2532,-7.2532,-7.2532,-7.2532,-7.2532,-7.2532,-7.2532,-7.2532,-7.2532,-7.2532,-7.2532,-7.2532,-7.2532,-7.2532,-7.2532,-7.2532,-7.2438,-7.2329,-7.2144,-7.1903,-7.1651,-7.1494,-7.1494,-7.1494,-7.1494,-7.1494,-7.1494,-7.1494,-7.1494,-7.1494,-7.1494,-7.1494,-7.1494,-7.1494,-7.1494,-7.1494,-7.1494,-7.1494,-7.1494,-7.1494,-7.1494,-7.1494,-7.1567,-7.1893,-7.2146,-7.2436,-7.3124,-7.3707,-7.45,-7.5189,-7.537,-7.5623,-7.5949,-7.6167,-7.6275,-7.6203,-7.6239,-7.6239,-7.6167,-7.6275,-7.6674,-7.7326,-7.8159,-7.8847,-7.968,-8.0368,-8.0766,-8.1092,-8.1092,-8.1092,-8.1092,-8.1092,-8.1092,-8.1092,-8.1092,-8.1092,-8.1092,-8.1092,-8.1092,-8.1092,-8.1092,-8.1165,-8.1237,-8.1199,-8.1234,-8.134,-8.1517,-8.1765,-8.1973,-8.2108,-8.2461,-8.2964,-8.3108,-8.3214,-7.2532,-7.2532,-7.2532,-7.2532,-7.2532,-7.2532,-7.2532,-7.2532,-7.2532,-7.2532,-7.2532,-7.2532,-7.2532,-7.2532,-7.2532,-7.2532,-7.2532,-7.2532,-7.2532,-7.2532,-7.2532,-7.2532,-7.2532,-7.2532,-7.2532,-7.2532,-7.2532,-7.2532,-7.2532,-7.2532,-7.2532,-7.2532,-7.2532,-7.2532,-7.2532,-7.2532,-7.2532,-7.2438,-7.2167,-7.1897,-7.162,-7.1526,-7.1494,-7.1494,-7.1494,-7.1494,-7.1494,-7.1494,-7.1494,-7.1494,-7.1494,-7.1494,-7.1494,-7.1494,-7.1494,-7.1494,-7.1494,-7.1494,-7.1494,-7.1494,-7.1603,-7.1639,-7.1603,-7.1893,-7.2472,-7.3197,-7.3812,-7.4685,-7.4902,-7.5225,-7.5841,-7.6058,-7.6203,-7.6203,-7.6275,-7.6275,-7.6275,-7.6275,-7.6275,-7.6275,-7.6275,-7.6674,-7.7253,-7.8122,-7.8992,-7.9788,-8.0513,-8.0875,-8.1092,-8.1092,-8.1092,-8.1092,-8.1092,-8.1092,-8.1273,-8.1237,-8.1346,-8.1273,-8.1418,-8.1418,-8.1599,-8.1708,-8.1454,-8.149,-8.156,-8.1738,-8.1989,-8.2201,-8.2231,-8.2513,-8.3011,-8.3591,-8.4245,-8.4242,-8.3985,-7.2532,-7.2532,-7.2532,-7.2532,-7.2532,-7.2532,-7.2532,-7.2532,-7.2532,-7.2532,-7.2532,-7.2532,-7.2532,-7.2532,-7.2532,-7.2532,-7.2532,-7.2532,-7.2532,-7.2532,-7.2532,-7.2532,-7.2532,-7.2532,-7.2532,-7.2532,-7.2532,-7.2532,-7.2532,-7.2532,-7.2532,-7.2532,-7.2532,-7.2532,-7.2532,-7.2532,-7.2475,-7.2292,-7.2054,-7.178,-7.1593,-7.1494,-7.1494,-7.1494,-7.1494,-7.1494,-7.1494,-7.1494,-7.1494,-7.1494,-7.1494,-7.1494,-7.1494,-7.1494,-7.1494,-7.1494,-7.1494,-7.1494,-7.1494,-7.1531,-7.1784,-7.211,-7.2255,-7.2581,-7.3342,-7.4102,-7.4682,-7.5011,-7.5551,-7.5949,-7.6167,-7.6275,-7.6275,-7.6275,-7.6275,-7.6275,-7.6275,-7.6275,-7.6275,-7.6275,-7.6348,-7.671,-7.7217,-7.8086,-7.8919,-7.9643,-8.0404,-8.0947,-8.1092,-8.1092,-8.1092,-8.1092,-8.1092,-8.1092,-8.1346,-8.1491,-8.178,-8.1925,-8.2468,-8.2505,-8.2613,-8.2577,-8.2323,-8.2503,-8.2936,-8.3005,-8.2928,-8.2849,-8.2915,-8.3417,-8.4028,-8.4465,-8.4866,-8.4646,-8.4462,-7.2532,-7.2532,-7.2532,-7.2532,-7.2532,-7.2532,-7.2532,-7.2532,-7.2532,-7.2532,-7.2532,-7.2532,-7.2532,-7.2532,-7.2532,-7.2532,-7.2532,-7.2532,-7.2532,-7.2532,-7.2532,-7.2532,-7.2532,-7.2532,-7.2532,-7.2532,-7.2532,-7.2532,-7.2532,-7.2532,-7.2532,-7.2532,-7.2532,-7.2532,-7.2532,-7.2467,-7.2409,-7.2204,-7.1933,-7.1718,-7.1562,-7.1494,-7.1494,-7.1494,-7.1494,-7.1494,-7.1494,-7.1494,-7.1494,-7.1494,-7.1494,-7.1494,-7.1494,-7.1494,-7.1675,-7.182,-7.1929,-7.2074,-7.211,-7.2183,-7.2291,-7.2762,-7.3305,-7.3667,-7.4106,-7.4902,-7.5406,-7.5515,-7.5877,-7.6167,-7.6275,-7.6275,-7.6275,-7.6275,-7.6275,-7.6275,-7.6275,-7.6275,-7.6275,-7.6275,-7.6348,-7.6565,-7.7144,-7.8086,-7.8847,-7.9535,-8.0223,-8.0947,-8.1092,-8.1092,-8.1092,-8.1092,-8.1092,-8.1092,-8.1273,-8.1563,-8.1961,-8.2432,-8.2976,-8.3338,-8.3266,-8.3375,-8.3338,-8.3699,-8.3987,-8.4092,-8.3904,-8.3754,-8.3676,-8.4361,-8.4905,-8.5052,-8.5233,-8.5086,-8.5159,-7.2532,-7.2532,-7.2532,-7.2532,-7.2532,-7.2532,-7.2532,-7.2532,-7.2532,-7.2532,-7.2532,-7.2532,-7.2532,-7.2532,-7.2532,-7.2532,-7.2532,-7.2532,-7.2532,-7.2532,-7.2532,-7.2532,-7.2532,-7.2532,-7.2532,-7.2532,-7.2532,-7.2532,-7.2532,-7.2532,-7.2532,-7.2532,-7.2532,-7.2532,-7.2496,-7.2467,-7.2321,-7.2114,-7.1872,-7.1687,-7.1562,-7.1494,-7.1494,-7.1494,-7.1494,-7.1494,-7.1494,-7.1494,-7.1494,-7.1494,-7.1494,-7.1639,-7.1712,-7.1712,-7.1965,-7.2472,-7.2617,-7.2907,-7.3269,-7.3016,-7.3088,-7.374,-7.4392,-7.4826,-7.5011,-7.5732,-7.613,-7.6058,-7.6203,-7.6239,-7.6275,-7.6275,-7.6275,-7.6275,-7.6275,-7.6275,-7.6275,-7.6275,-7.6275,-7.6275,-7.6456,-7.6782,-7.7362,-7.834,-7.8883,-7.9571,-8.0368,-8.1092,-8.1092,-8.1092,-8.1092,-8.1092,-8.1092,-8.1092,-8.1128,-8.1454,-8.1961,-8.236,-8.2867,-8.3302,-8.3592,-8.3773,-8.3952,-8.3949,-8.4052,-8.4487,-8.4774,-8.4369,-8.4364,-8.5272,-8.5783,-8.5894,-8.6077,-8.6151,-8.6297,-7.2532,-7.2532,-7.2532,-7.2532,-7.2532,-7.2532,-7.2532,-7.2532,-7.2532,-7.2532,-7.2532,-7.2532,-7.2532,-7.2532,-7.2532,-7.2532,-7.2532,-7.2532,-7.2532,-7.2532,-7.2532,-7.2532,-7.2532,-7.2532,-7.2532,-7.2532,-7.2532,-7.2532,-7.2532,-7.2679,-7.2532,-7.2532,-7.2679,-7.2532,-7.2467,-7.2409,-7.2233,-7.2018,-7.1872,-7.1687,-7.1562,-7.1494,-7.1494,-7.1494,-7.1494,-7.1494,-7.1494,-7.1494,-7.1494,-7.1531,-7.1531,-7.182,-7.2183,-7.2219,-7.2653,-7.3305,-7.345,-7.3885,-7.4323,-7.3993,-7.3849,-7.4573,-7.5334,-7.5804,-7.5732,-7.613,-7.6275,-7.6275,-7.6275,-7.6275,-7.6275,-7.6275,-7.6275,-7.6275,-7.6275,-7.6275,-7.6275,-7.6275,-7.642,-7.6492,-7.6855,-7.7217,-7.7905,-7.8666,-7.9136,-7.9607,-8.044,-8.1092,-8.1092,-8.1092,-8.1092,-8.1092,-8.1092,-8.1128,-8.1164,-8.1526,-8.1961,-8.2395,-8.2758,-8.3265,-8.3771,-8.4021,-8.4197,-8.412,-8.4117,-8.444,-8.4584,-8.4581,-8.4945,-8.5637,-8.6187,-8.6628,-8.6848,-8.6995,-8.6921,-7.2532,-7.2532,-7.2532,-7.2532,-7.2532,-7.2532,-7.2532,-7.2532,-7.2532,-7.2532,-7.2532,-7.2532,-7.2532,-7.2532,-7.2532,-7.2532,-7.2532,-7.2532,-7.2532,-7.2532,-7.2532,-7.2532,-7.2532,-7.2532,-7.2532,-7.2532,-7.2826,-7.2899,-7.2973,-7.312,-7.334,-7.3377,-7.3193,-7.312,-7.2467,-7.2351,-7.2204,-7.1988,-7.1872,-7.1687,-7.1526,-7.1494,-7.1494,-7.1494,-7.1494,-7.1494,-7.1494,-7.1531,-7.1712,-7.182,-7.2001,-7.2327,-7.2762,-7.316,-7.3523,-7.3957,-7.4323,-7.4645,-7.5044,-7.508,-7.4863,-7.5478,-7.5841,-7.6167,-7.6275,-7.6275,-7.6275,-7.6275,-7.6275,-7.6275,-7.6275,-7.6275,-7.6275,-7.6275,-7.6275,-7.6275,-7.6275,-7.6311,-7.6565,-7.6746,-7.7181,-7.7651,-7.8809,-7.9568,-7.9931,-8.0222,-8.0621,-8.1092,-8.1092,-8.1092,-8.1092,-8.1092,-8.1092,-8.1128,-8.12,-8.1488,-8.1813,-8.2464,-8.2899,-8.3441,-8.3838,-8.4049,-8.4296,-8.433,-8.4361,-8.4392,-8.4318,-8.4282,-8.4942,-8.5857,-8.6187,-8.6407,-8.6958,-8.6995,-8.6738,-7.2532,-7.2532,-7.2532,-7.2532,-7.2532,-7.2532,-7.2532,-7.2532,-7.2532,-7.2532,-7.2532,-7.2532,-7.2532,-7.2532,-7.2532,-7.2532,-7.2532,-7.2532,-7.2532,-7.2532,-7.2532,-7.2532,-7.2569,-7.2569,-7.2789,-7.2753,-7.323,-7.367,-7.367,-7.4147,-7.4515,-7.4588,-7.4331,-7.3891,-7.2614,-7.2351,-7.2204,-7.1988,-7.1872,-7.1687,-7.1526,-7.1494,-7.1494,-7.1494,-7.1494,-7.1494,-7.1748,-7.1748,-7.2038,-7.2581,-7.2653,-7.3088,-7.3776,-7.3885,-7.4283,-7.5008,-7.508,-7.5478,-7.6094,-7.613,-7.6094,-7.6058,-7.6239,-7.6275,-7.6275,-7.6275,-7.6275,-7.6275,-7.6275,-7.6275,-7.6275,-7.6275,-7.6275,-7.6275,-7.6275,-7.6275,-7.6275,-7.6565,-7.6855,-7.7217,-7.7579,-7.8086,-7.9496,-8.0545,-8.0872,-8.1054,-8.1092,-8.1092,-8.1163,-8.1199,-8.1234,-8.1234,-8.1234,-8.127,-8.134,-8.1375,-8.1699,-8.2421,-8.2853,-8.3141,-8.3466,-8.3676,-8.3924,-8.4318,-8.4025,-8.3581,-8.3728,-8.3911,-8.4425,-8.4866,-8.549,-8.5894,-8.6518,-8.6738,-8.6261,-7.2532,-7.2532,-7.2532,-7.2532,-7.2532,-7.2532,-7.2532,-7.2532,-7.2532,-7.2532,-7.2532,-7.2532,-7.2532,-7.2532,-7.2532,-7.2532,-7.2532,-7.2532,-7.2532,-7.2532,-7.2569,-7.2532,-7.2642,-7.3046,-7.3303,-7.3523,-7.4037,-7.4515,-7.4515,-7.4992,-7.4918,-7.4888,-7.4992,-7.4331,-7.3384,-7.2754,-7.2204,-7.1988,-7.1872,-7.1687,-7.1562,-7.1494,-7.1531,-7.1531,-7.1567,-7.1784,-7.2255,-7.2291,-7.2726,-7.3378,-7.3486,-7.3885,-7.4537,-7.4685,-7.508,-7.5696,-7.5877,-7.5985,-7.6239,-7.6239,-7.6275,-7.6275,-7.6275,-7.6275,-7.6275,-7.6275,-7.6275,-7.6275,-7.6275,-7.6275,-7.6275,-7.6275,-7.6275,-7.6275,-7.6275,-7.6275,-7.6384,-7.6927,-7.7326,-7.776,-7.8159,-7.9277,-8.0579,-8.1008,-8.1334,-8.1514,-8.1445,-8.1374,-8.1408,-8.1443,-8.1478,-8.1478,-8.1478,-8.1478,-8.1512,-8.1512,-8.1652,-8.2153,-8.2294,-8.2361,-8.2684,-8.3118,-8.3078,-8.3214,-8.292,-8.27,-8.2957,-8.3177,-8.3287,-8.3691,-8.4352,-8.4976,-8.549,-8.5563,-8.5233,-7.2532,-7.2532,-7.2532,-7.2532,-7.2532,-7.2532,-7.2532,-7.2532,-7.2532,-7.2532,-7.2532,-7.2532,-7.2532,-7.2532,-7.2532,-7.2532,-7.2532,-7.2532,-7.2532,-7.2569,-7.2826,-7.2936,-7.323,-7.367,-7.4037,-7.4331,-7.4845,-7.5322,-7.5359,-7.5616,-7.5806,-7.5836,-7.5469,-7.5079,-7.4389,-7.3756,-7.2911,-7.2619,-7.2325,-7.2014,-7.1702,-7.1531,-7.1675,-7.1857,-7.2074,-7.2291,-7.2871,-7.3233,-7.3454,-7.4066,-7.4428,-7.4718,-7.5261,-7.5587,-7.5804,-7.6167,-7.6275,-7.6275,-7.6275,-7.6275,-7.6275,-7.6275,-7.6275,-7.6275,-7.6275,-7.6275,-7.6275,-7.6275,-7.6275,-7.6275,-7.6275,-7.6275,-7.6275,-7.6275,-7.6348,-7.6348,-7.6818,-7.7326,-7.8046,-7.8481,-7.913,-8.0323,-8.1226,-8.1472,-8.1683,-8.1717,-8.1751,-8.1717,-8.1647,-8.1647,-8.1683,-8.1649,-8.1649,-8.1649,-8.1683,-8.1717,-8.1818,-8.1989,-8.2022,-8.2055,-8.2161,-8.2598,-8.2337,-8.2186,-8.2333,-8.2406,-8.2296,-8.2406,-8.2663,-8.292,-8.3251,-8.3838,-8.4425,-8.4499,-8.4352,-7.2532,-7.2532,-7.2532,-7.2532,-7.2532,-7.2532,-7.2532,-7.2532,-7.2532,-7.2532,-7.2532,-7.2532,-7.2532,-7.2532,-7.2532,-7.2532,-7.2606,-7.2606,-7.2679,-7.2899,-7.3413,-7.3597,-7.4001,-7.4515,-7.4845,-7.5212,-7.5652,-7.6166,-7.6203,-7.657,-7.6907,-7.6943,-7.6387,-7.6002,-7.5513,-7.5019,-7.4097,-7.3401,-7.2984,-7.2636,-7.2219,-7.1929,-7.2291,-7.2581,-7.2798,-7.3197,-7.3667,-7.3961,-7.4395,-7.483,-7.5119,-7.5623,-7.5985,-7.6275,-7.6275,-7.6275,-7.6275,-7.6275,-7.6275,-7.6275,-7.6275,-7.6275,-7.6275,-7.6275,-7.6275,-7.6275,-7.6275,-7.6275,-7.6275,-7.6275,-7.6275,-7.6275,-7.6275,-7.6348,-7.6456,-7.6746,-7.7289,-7.7939,-7.8731,-7.9344,-7.9992,-8.0859,-8.1433,-8.1785,-8.1885,-8.1919,-8.1919,-8.1919,-8.1852,-8.1785,-8.1785,-8.1785,-8.1785,-8.1785,-8.1818,-8.1885,-8.1952,-8.2088,-8.2121,-8.2154,-8.2186,-8.2186,-8.2186,-8.2186,-8.2186,-8.2186,-8.2186,-8.2186,-8.226,-8.248,-8.27,-8.2994,-8.3618,-8.3875,-8.3838,-7.2532,-7.2532,-7.2532,-7.2532,-7.2532,-7.2532,-7.2532,-7.2532,-7.2532,-7.2532,-7.2532,-7.2532,-7.2532,-7.2532,-7.2532,-7.2532,-7.2753,-7.301,-7.3303,-7.367,-7.4184,-7.4441,-7.4845,-7.5322,-7.5652,-7.6019,-7.646,-7.6833,-7.6907,-7.731,-7.731,-7.7163,-7.698,-7.6747,-7.6486,-7.6282,-7.517,-7.4283,-7.3797,-7.3406,-7.316,-7.3016,-7.3305,-7.345,-7.3559,-7.403,-7.4573,-7.4754,-7.5189,-7.5732,-7.5913,-7.6167,-7.6203,-7.6275,-7.6275,-7.6275,-7.6275,-7.6275,-7.6275,-7.6275,-7.6275,-7.6275,-7.6275,-7.6275,-7.6275,-7.6275,-7.6275,-7.6275,-7.6275,-7.6275,-7.6275,-7.6275,-7.6384,-7.6529,-7.6746,-7.7287,-7.7867,-7.8767,-7.9489,-8.0133,-8.0781,-8.1243,-8.1815,-8.1919,-8.2055,-8.2121,-8.2121,-8.2088,-8.2018,-8.1952,-8.1919,-8.1919,-8.1919,-8.1952,-8.1985,-8.2088,-8.2121,-8.2186,-8.2186,-8.2186,-8.2186,-8.2186,-8.2186,-8.2186,-8.2186,-8.2186,-8.2186,-8.2186,-8.2186,-8.2186,-8.237,-8.2553,-8.2774,-8.3067,-8.3214,-7.2532,-7.2532,-7.2532,-7.2532,-7.2532,-7.2532,-7.2532,-7.2532,-7.2532,-7.2532,-7.2532,-7.2532,-7.2679,-7.2973,-7.3046,-7.3193,-7.3597,-7.3964,-7.4184,-7.4368,-7.4992,-7.5249,-7.5652,-7.613,-7.6533,-7.679,-7.6974,-7.72,-7.731,-7.731,-7.731,-7.731,-7.731,-7.7087,-7.6824,-7.6619,-7.6126,-7.5241,-7.4638,-7.4247,-7.4033,-7.3961,-7.4066,-7.4356,-7.4392,-7.4826,-7.5406,-7.5551,-7.5841,-7.6239,-7.6275,-7.6275,-7.6275,-7.6275,-7.6275,-7.6275,-7.6275,-7.6275,-7.6275,-7.6275,-7.6275,-7.6275,-7.6275,-7.6275,-7.6275,-7.6275,-7.6275,-7.6275,-7.6275,-7.6275,-7.6275,-7.6311,-7.6529,-7.6782,-7.7287,-7.7794,-7.8658,-7.9562,-8.0244,-8.0852,-8.1349,-8.1772,-8.2051,-8.2154,-8.2186,-8.2186,-8.2154,-8.2154,-8.2154,-8.2121,-8.2088,-8.2088,-8.2121,-8.2154,-8.2186,-8.2186,-8.2186,-8.2186,-8.2186,-8.2186,-8.2186,-8.2186,-8.2186,-8.2186,-8.2186,-8.2186,-8.2186,-8.2186,-8.2186,-8.2186,-8.2186,-8.2333,-8.2406,-8.248,-8.2517,-7.2532,-7.2532,-7.2532,-7.2532,-7.2532,-7.2532,-7.2532,-7.2532,-7.2532,-7.2532,-7.2532,-7.2606,-7.3046,-7.345,-7.3707,-7.4111,-7.4478,-7.4845,-7.4992,-7.5065,-7.5836,-7.6203,-7.6423,-7.69,-7.7047,-7.72,-7.731,-7.731,-7.731,-7.731,-7.731,-7.731,-7.7243,-7.7087,-7.6834,-7.6773,-7.6425,-7.5977,-7.5403,-7.4971,-7.45,-7.4319,-7.4395,-7.508,-7.5297,-7.5515,-7.6022,-7.6239,-7.6275,-7.6275,-7.6275,-7.6275,-7.6275,-7.6275,-7.6275,-7.6275,-7.6275,-7.6275,-7.6275,-7.6275,-7.6275,-7.6275,-7.6275,-7.6275,-7.6275,-7.6275,-7.6275,-7.6275,-7.6275,-7.6529,-7.6601,-7.678,-7.6997,-7.7538,-7.8189,-7.8765,-7.9485,-8.0313,-8.0956,-8.1456,-8.1736,-8.2121,-8.2121,-8.2186,-8.2186,-8.2186,-8.2186,-8.2186,-8.2186,-8.2186,-8.2186,-8.2186,-8.2186,-8.2186,-8.2186,-8.2186,-8.2186,-8.2186,-8.2186,-8.2186,-8.2186,-8.2186,-8.2186,-8.2186,-8.2186,-8.2186,-8.2186,-8.2186,-8.2186,-8.2186,-8.2186,-8.2186,-8.2186,-8.2186,-8.2186,-7.2532,-7.2532,-7.2532,-7.2532,-7.2532,-7.2532,-7.2532,-7.2532,-7.2532,-7.2532,-7.2606,-7.312,-7.3523,-7.378,-7.4404,-7.4845,-7.5065,-7.5652,-7.5799,-7.6019,-7.6607,-7.6827,-7.6974,-7.7127,-7.731,-7.731,-7.731,-7.731,-7.731,-7.731,-7.731,-7.731,-7.7248,-7.7029,-7.6769,-7.6708,-7.6545,-7.6309,-7.6058,-7.5768,-7.5551,-7.5623,-7.5877,-7.5985,-7.6022,-7.5985,-7.6275,-7.6275,-7.6275,-7.6275,-7.6275,-7.6275,-7.6275,-7.6275,-7.6275,-7.6275,-7.6275,-7.6309,-7.6345,-7.6345,-7.6345,-7.6345,-7.6345,-7.6311,-7.6275,-7.6275,-7.6311,-7.6348,-7.6456,-7.6746,-7.707,-7.7251,-7.7575,-7.8368,-7.909,-7.9735,-8.031,-8.0953,-8.1596,-8.1875,-8.2117,-8.2186,-8.2186,-8.2186,-8.2186,-8.2186,-8.2186,-8.2186,-8.2186,-8.2186,-8.2186,-8.2186,-8.2186,-8.2186,-8.2186,-8.2186,-8.2186,-8.2186,-8.2186,-8.2186,-8.2186,-8.2186,-8.2186,-8.2186,-8.2186,-8.2186,-8.2186,-8.2186,-8.2186,-8.2186,-8.2186,-8.2186,-8.2186,-8.2186,-8.2186,-7.2532,-7.2532,-7.2532,-7.2532,-7.2532,-7.2532,-7.2532,-7.2532,-7.2532,-7.2716,-7.3046,-7.3487,-7.3891,-7.4294,-7.5065,-7.5689,-7.5909,-7.6423,-7.6607,-7.6864,-7.6974,-7.7163,-7.731,-7.731,-7.731,-7.731,-7.731,-7.731,-7.731,-7.7273,-7.7273,-7.7217,-7.7124,-7.6966,-7.6741,-7.661,-7.6478,-7.6345,-7.6275,-7.6275,-7.6275,-7.6275,-7.6275,-7.6275,-7.6275,-7.6275,-7.6275,-7.6275,-7.6275,-7.6275,-7.6275,-7.6275,-7.6275,-7.6275,-7.6275,-7.6275,-7.6309,-7.6309,-7.6412,-7.6481,-7.6481,-7.6554,-7.6917,-7.7095,-7.707,-7.7142,-7.7285,-7.7285,-7.7,-7.7217,-7.7933,-7.8257,-7.8758,-7.9408,-7.9839,-8.0308,-8.095,-8.1593,-8.1912,-8.2047,-8.2186,-8.2186,-8.2186,-8.2186,-8.2186,-8.2186,-8.2186,-8.2186,-8.2186,-8.2186,-8.2186,-8.2186,-8.2186,-8.2186,-8.2186,-8.2186,-8.2186,-8.2186,-8.2186,-8.2186,-8.2186,-8.2186,-8.2186,-8.2186,-8.2186,-8.2186,-8.2186,-8.2186,-8.2186,-8.2186,-8.2186,-8.2186,-8.2186,-8.2186,-8.2186,-7.2532,-7.2532,-7.2532,-7.2532,-7.2532,-7.2532,-7.2532,-7.2532,-7.2642,-7.3046,-7.367,-7.3964,-7.4478,-7.5102,-7.5873,-7.6644,-7.7053,-7.7017,-7.7163,-7.72,-7.7237,-7.731,-7.731,-7.731,-7.731,-7.731,-7.731,-7.731,-7.731,-7.7273,-7.7212,-7.7124,-7.6998,-7.6902,-7.6712,-7.6548,-7.6445,-7.6345,-7.6275,-7.6275,-7.6275,-7.6275,-7.6275,-7.6275,-7.6275,-7.6275,-7.6275,-7.6275,-7.6275,-7.6275,-7.6275,-7.6275,-7.6275,-7.6275,-7.6378,-7.6378,-7.6378,-7.6478,-7.6581,-7.6829,-7.6829,-7.701,-7.7592,-7.7959,-7.7967,-7.8078,-7.8221,-7.8293,-7.7971,-7.8078,-7.8795,-7.9262,-7.98,-8.0339,-8.0661,-8.0877,-8.1553,-8.2051,-8.2121,-8.2186,-8.2186,-8.2186,-8.2186,-8.2186,-8.2186,-8.2186,-8.2186,-8.2186,-8.2186,-8.2186,-8.2186,-8.2186,-8.2186,-8.2186,-8.2186,-8.2186,-8.2186,-8.2186,-8.2186,-8.2186,-8.2186,-8.2186,-8.2186,-8.2186,-8.2186,-8.2186,-8.2186,-8.2186,-8.2186,-8.2186,-8.2186,-8.2186,-8.2186,-8.2186,-8.2186,-7.2532,-7.2532,-7.2532,-7.2532,-7.2532,-7.2532,-7.2532,-7.2606,-7.3193,-7.3597,-7.4037,-7.5102,-7.5799,-7.5909,-7.6686,-7.72,-7.72,-7.731,-7.731,-7.7273,-7.731,-7.731,-7.731,-7.731,-7.731,-7.731,-7.731,-7.731,-7.731,-7.731,-7.7248,-7.7092,-7.6897,-7.6773,-7.661,-7.6478,-7.6378,-7.6275,-7.6275,-7.6275,-7.6275,-7.6275,-7.6275,-7.6275,-7.6275,-7.6275,-7.6275,-7.6275,-7.6275,-7.6275,-7.6275,-7.6309,-7.6309,-7.6378,-7.6412,-7.6512,-7.6512,-7.6752,-7.6927,-7.732,-7.7466,-7.7826,-7.841,-7.8923,-7.8966,-7.9072,-7.9327,-7.9728,-7.9548,-7.9473,-7.9904,-8.0053,-8.0485,-8.1197,-8.1626,-8.1729,-8.2011,-8.2154,-8.2186,-8.2186,-8.2186,-8.2186,-8.2186,-8.2186,-8.2186,-8.2186,-8.2186,-8.2186,-8.2186,-8.2186,-8.2186,-8.2186,-8.2186,-8.2186,-8.2186,-8.2186,-8.2186,-8.2186,-8.2186,-8.2186,-8.2186,-8.2186,-8.2186,-8.2186,-8.2186,-8.2186,-8.2186,-8.2186,-8.2186,-8.2186,-8.2186,-8.2186,-8.2186,-8.2186,-8.2186]},{"header":{"parameterUnit":"m.s-1","parameterCategory":1,"la1":31.0,"la2":29.5877,"lo1":-88.7671,"lo2":-86.6584,"dx":0.0162,"dy":0.0185,"nx":115,"ny":88,"refTime":"2023-01-10T06:00:00:Z","depth":0,"parameterNumber":3,"parameterNumberName":"V-component_of_WINDS"},"data":[0.0,0.0,0.0,0.0,0.0,0.0,0.0,0.0,0.0,0.0,0.0,0.0,0.0,0.0,0.0,0.0,0.0,0.0,0.0,0.0,0.0,0.0,0.0,0.0,0.0,0.0,0.0,0.0,0.0,0.0,0.0,0.0,0.0,0.0,0.0,0.0,0.0,0.0,0.0,0.0,0.0,0.0,0.0,0.0,0.0,0.0,0.0,0.0,0.0,0.0,0.0,0.0,0.0,0.0,0.0,0.0,0.0,0.0,0.0,0.0,0.0,0.0,0.0,0.0,0.0,0.0,0.0,0.0,0.0,0.0,0.0,0.0,0.0,0.0,0.0,0.0,0.0,0.0,0.0,0.0,0.0,0.0,0.0,0.0,0.0,0.0,0.0,0.0,0.0,0.0,0.0,0.0,0.0,0.0,0.0,0.0,0.0,0.0,0.0,0.0,0.0,0.0,0.0,0.0,0.0,0.0,0.0,0.0,0.0,0.0,0.0,0.0,0.0,0.0,0.0,0.0,0.0,0.0,0.0,0.0,0.0,0.0,0.0,0.0,0.0,0.0,0.0,0.0,0.0,0.0,0.0,0.0,0.0,0.0,0.0,0.0,0.0,0.0,0.0,0.0,0.0,0.0,0.0,0.0,0.0,0.0,0.0,0.0,0.0,0.0,0.0,0.0,0.0,0.0,0.0,0.0,0.0,0.0,0.0,0.0,0.0,0.0,0.0,0.0,0.0,0.0,0.0,0.0,0.0,0.0,0.0,0.0,0.0,0.0,0.0,0.0,0.0,0.0,0.0,0.0,0.0,0.0,0.0,0.0,0.0,0.0,0.0,0.0,0.0,0.0,0.0,0.0,0.0,0.0,0.0,0.0,0.0,0.0,0.0,0.0,0.0,0.0,0.0,0.0,0.0,0.0,0.0,0.0,0.0,0.0,0.0,0.0,0.0,0.0,0.0,0.0,0.0,0.0,0.0,0.0,0.0,0.0,0.0,0.0,0.0,0.0,0.0,0.0,0.0,0.0,0.0,0.0,0.0,0.0,0.0,0.0,0.0,0.0,0.0,0.0,0.0,0.0,0.0,0.0,0.0,0.0,0.0,0.0,0.0,0.0,0.0,0.0,0.0,0.0,0.0,0.0,0.0,0.0,0.0,0.0,0.0,0.0,0.0,0.0,0.0,0.0,0.0,0.0,0.0,0.0,0.0,0.0,0.0,0.0,0.0,0.0,0.0,0.0,0.0,0.0,0.0,0.0,0.0,0.0,0.0,0.0,0.0,0.0,0.0,0.0,0.0,0.0,0.0,0.0,0.0,0.0,0.0,0.0,0.0,0.0,0.0,0.0,0.0,0.0,0.0,0.0,0.0,0.0,0.0,0.0,0.0,0.0,0.0,0.0,0.0,0.0,0.0,0.0,0.0,0.0,0.0,0.0,0.0,0.0,0.0,0.0,0.0,0.0,0.0,0.0,0.0,0.0,0.0,0.0,0.0,0.0,0.0,0.0,0.0,0.0,0.0,0.0,0.0,0.0,0.0,0.0,0.0,0.0,0.0,0.0,0.0,0.0,0.0,0.0,0.0,0.0,0.0,0.0,0.0,0.0,0.0,0.0,0.0,0.0,0.0,0.0,0.0,0.0,0.0,0.0,0.0,0.0,0.0,0.0,0.0,0.0,0.0,0.0,0.0,0.0,0.0,0.0,0.0,0.0,0.0,0.0,0.0,0.0,0.0,0.0,0.0,0.0,0.0,0.0,0.0,0.0,0.0,0.0,0.0,0.0,0.0,0.0,0.0,0.0,0.0,0.0,0.0,0.0,0.0,0.0,0.0,0.0,0.0,0.0,0.0,0.0,0.0,0.0,0.0,0.0,0.0,0.0,0.0,0.0,0.0,0.0,0.0,0.0,0.0,0.0,0.0,0.0,0.0,0.0,0.0,0.0,0.0,0.0,0.0,0.0,0.0,0.0,0.0,0.0,0.0,0.0,0.0,0.0,0.0,0.0,0.0,0.0,0.0,0.0,0.0,0.0,0.0,0.0,0.0,0.0,0.0,0.0,0.0,0.0,0.0,0.0,0.0,0.0,0.0,0.0,0.0,0.0,0.0,0.0,0.0,0.0,0.0,0.0,0.0,0.0,0.0,0.0,0.0,0.0,0.0,0.0,0.0,0.0,0.0,0.0,0.0,0.0,0.0,0.0,0.0,0.0,0.0,0.0,0.0,0.0,0.0,0.0,0.0,0.0,0.0,0.0,0.0,0.0,0.0,0.0,0.0,0.0,0.0,0.0,0.0,0.0,0.0,0.0,0.0,0.0,0.0,0.0,0.0,0.0,0.0,0.0,0.0,0.0,0.0,0.0,0.0,0.0,0.0,0.0,0.0,0.0,0.0,0.0,0.0,0.0,0.0,0.0,0.0,0.0,0.0,0.0,0.0,0.0,0.0,0.0,0.0,0.0,0.0,0.0,0.0,0.0,0.0,0.0,0.0,0.0,0.0,0.0,0.0,0.0,0.0,0.0,0.0,0.0,0.0,0.0,0.0,0.0,0.0,0.0,0.0,0.0,0.0,0.0,0.0,0.0,0.0,0.0,0.0,0.0,0.0,0.0,0.0,0.0,0.0,0.0,0.0,0.0,0.0,0.0,0.0,0.0,0.0,0.0,0.0,0.0,0.0,0.0,0.0,0.0,0.0,0.0,0.0,0.0,0.0,0.0,0.0,0.0,0.0,0.0,0.0,0.0,0.0,0.0,0.0,0.0,0.0,0.0,0.0,0.0,0.0,0.0,0.0,0.0,0.0,0.0,0.0,0.0,0.0,0.0,0.0,0.0,0.0,0.0,0.0,0.0,0.0,0.0,0.0,0.0,0.0,0.0,0.0,0.0,0.0,0.0,0.0,0.0,0.0,0.0,0.0,0.0,0.0,0.0,0.0,0.0,0.0,0.0,0.0,0.0,0.0,0.0,0.0,0.0,0.0,0.0,0.0,0.0,0.0,0.0,0.0,0.0,0.0,0.0,0.0,0.0,0.0,0.0,0.0,0.0,0.0,0.0,0.0,0.0,0.0,0.0,0.0,0.0,0.0,0.0,0.0,0.0,0.0,0.0,0.0,0.0,0.0,0.0,0.0,0.0,0.0,0.0,0.0,0.0,0.0,0.0,0.0,0.0,0.0,0.0,0.0,0.0,0.0,0.0,0.0,0.0,0.0,0.0,0.0,0.0,0.0,0.0,0.0,0.0,0.0,0.0,0.0,0.0,0.0,0.0,0.0,0.0,0.0,0.0,0.0,0.0,0.0,0.0,0.0,0.0,0.0,0.0,0.0,0.0,0.0,0.0,0.0,0.0,0.0,0.0,0.0,0.0,0.0,0.0,0.0,0.0,0.0,0.0,0.0,0.0,0.0,0.0,0.0,0.0,0.0,0.0,0.0,0.0,0.0,0.0,0.0,0.0,0.0,0.0,0.0,0.0,0.0,0.0,0.0,0.0,0.0,0.0,0.0,0.0,0.0,0.0,0.0,0.0,0.0,0.0,0.0,0.0,0.0,0.0,0.0,0.0,0.0,0.0,0.0,0.0,0.0,0.0,0.0,0.0,0.0,0.0,0.0,0.0,0.0,0.0,0.0,0.0,0.0,0.0,0.0,0.0,0.0,0.0,0.0,0.0,0.0,0.0,0.0,0.0,0.0,0.0,0.0,0.0,0.0,0.0,0.0,0.0,0.0,0.0,0.0,0.0,0.0,0.0,0.0,0.0,0.0,0.0,0.0,0.0,0.0,0.0,0.0,0.0,0.0,0.0,0.0,0.0,0.0,0.0,0.0,0.0,0.0,0.0,0.0,0.0,0.0,0.0,0.0,0.0,0.0,0.0,0.0,0.0,0.0,0.0,0.0,0.0,0.0,0.0,0.0,0.0,0.0,0.0,0.0,0.0,0.0,0.0,0.0,0.0,0.0,0.0,0.0,0.0,0.0,0.0,0.0,0.0,0.0,0.0,0.0,0.0,0.0,0.0,0.0,0.0,0.0,0.0,0.0,0.0,0.0,0.0,0.0,0.0,0.0,0.0,0.0,0.0,0.0,0.0,0.0,0.0,0.0,0.0,0.0,0.0,0.0,0.0,0.0,0.0,0.0,0.0,0.0,0.0,0.0,0.0,0.0,0.0,0.0,0.0,0.0,0.0,0.0,0.0,0.0,0.0,0.0,0.0,0.0,0.0,0.0,0.0,0.0,0.0,0.0,0.0,0.0,0.0,0.0,0.0,0.0,0.0,0.0,0.0,-0.6053,0.0,0.0,0.0,-0.5822,0.0,0.0,0.0,0.0,0.0,0.0,0.0,0.0,0.0,0.0,0.0,0.0,0.0,0.0,0.0,0.0,0.0,0.0,0.0,0.0,0.0,0.0,0.0,0.0,0.0,0.0,0.0,0.0,0.0,0.0,0.0,0.0,0.0,0.0,0.0,0.0,0.0,0.0,0.0,0.0,0.0,0.0,0.0,0.0,0.0,0.0,0.0,0.0,0.0,0.0,0.0,0.0,0.0,0.0,0.0,0.0,0.0,0.0,0.0,0.0,0.0,0.0,0.0,0.0,0.0,0.0,0.0,0.0,0.0,0.0,0.0,0.0,0.0,0.0,0.0,0.0,0.0,0.0,0.0,0.0,0.0,0.0,0.0,0.0,0.0,0.0,0.0,0.0,0.0,0.0,0.0,0.0,0.0,0.0,0.0,0.0,0.0,0.0,0.0,0.0,0.0,0.0,0.0,0.0,0.0,0.0,0.0,0.0,0.0,0.0,-0.6515,-0.6342,-0.6218,-0.6119,-0.6053,0.0,0.0,0.0,0.0,0.0,0.0,0.0,0.0,0.0,0.0,0.0,0.0,0.0,0.0,0.0,0.0,0.0,0.0,0.0,0.0,0.0,0.0,0.0,0.0,0.0,0.0,0.0,0.0,0.0,0.0,0.0,0.0,0.0,0.0,0.0,0.0,0.0,0.0,0.0,0.0,0.0,0.0,0.0,0.0,0.0,0.0,0.0,0.0,0.0,0.0,0.0,0.0,0.0,0.0,0.0,0.0,0.0,0.0,0.0,0.0,0.0,0.0,0.0,0.0,0.0,0.0,0.0,0.0,0.0,0.0,0.0,0.0,0.0,0.0,0.0,0.0,0.0,0.0,0.0,0.0,0.0,0.0,0.0,0.0,0.0,0.0,0.0,0.0,0.0,0.0,0.0,0.0,0.0,0.0,0.0,0.0,0.0,0.0,0.0,0.0,0.0,0.0,0.0,0.0,0.0,0.0,0.0,0.0,0.0,0.0,0.0,0.0,-0.6805,-0.6589,-0.6383,0.0,0.0,0.0,0.0,0.0,0.0,0.0,0.0,0.0,0.0,0.0,0.0,0.0,0.0,0.0,0.0,0.0,0.0,0.0,0.0,0.0,0.0,0.0,0.0,0.0,0.0,0.0,0.0,0.0,0.0,0.0,0.0,0.0,0.0,0.0,0.0,0.0,0.0,0.0,0.0,0.0,0.0,0.0,0.0,0.0,0.0,0.0,0.0,0.0,0.0,0.0,0.0,0.0,0.0,0.0,0.0,0.0,0.0,0.0,0.0,0.0,0.0,0.0,0.0,0.0,0.0,0.0,0.0,0.0,0.0,0.0,0.0,0.0,0.0,0.0,0.0,0.0,0.0,0.0,0.0,0.0,0.0,0.0,0.0,0.0,0.0,0.0,0.0,0.0,0.0,0.0,0.0,0.0,0.0,0.0,0.0,0.0,0.0,0.0,0.0,0.0,0.0,0.0,0.0,0.0,0.0,0.0,0.0,0.0,0.0,-0.7918,-0.7715,-0.7681,0.0,-0.6894,0.0,0.0,0.0,0.0,0.0,0.0,0.0,0.0,0.0,0.0,0.0,0.0,0.0,0.0,0.0,0.0,0.0,0.0,0.0,0.0,0.0,0.0,0.0,0.0,0.0,0.0,0.0,0.0,0.0,0.0,0.0,0.0,0.0,0.0,0.0,0.0,0.0,0.0,0.0,0.0,0.0,0.0,0.0,0.0,0.0,0.0,0.0,0.0,0.0,0.0,0.0,0.0,0.0,0.0,0.0,0.0,0.0,0.0,0.0,0.0,0.0,0.0,0.0,0.0,0.0,0.0,0.0,0.0,0.0,0.0,0.0,0.0,0.0,0.0,0.0,0.0,0.0,0.0,0.0,0.0,0.0,0.0,0.0,0.0,0.0,0.0,0.0,0.0,0.0,0.0,0.0,0.0,0.0,0.0,0.0,0.0,0.0,0.0,0.0,0.0,0.0,0.0,0.0,0.0,0.0,0.0,0.0,0.0,0.0,0.0,-0.8422,-0.8107,-0.8015,-0.7841,0.0,0.0,0.0,0.0,0.0,0.0,0.0,0.0,0.0,0.0,0.0,0.0,0.0,0.0,0.0,0.0,0.0,0.0,0.0,0.0,0.0,0.0,0.0,0.0,0.0,0.0,0.0,0.0,0.0,0.0,0.0,0.0,0.0,0.0,0.0,0.0,0.0,0.0,0.0,0.0,0.0,0.0,0.0,0.0,0.0,0.0,0.0,0.0,0.0,0.0,0.0,0.0,0.0,0.0,0.0,0.0,0.0,0.0,0.0,0.0,0.0,0.0,0.0,0.0,0.0,0.0,0.0,0.0,0.0,0.0,0.0,0.0,0.0,0.0,0.0,0.0,0.0,0.0,0.0,0.0,0.0,0.0,0.0,0.0,0.0,0.0,0.0,0.0,0.0,0.0,0.0,0.0,0.0,0.0,0.0,0.0,0.0,0.0,0.0,0.0,0.0,0.0,0.0,0.0,0.0,0.0,0.0,0.0,0.0,0.0,-0.9041,-0.9059,-0.8838,-0.8603,-0.8449,-0.8422,0.0,0.0,0.0,0.0,0.0,0.0,0.0,0.0,0.0,0.0,0.0,0.0,0.0,0.0,0.0,0.0,0.0,0.0,0.0,0.0,0.0,0.0,0.0,0.0,0.0,0.0,0.0,0.0,0.0,0.0,0.0,0.0,0.0,0.0,0.0,0.0,0.0,0.0,0.0,0.0,0.0,0.0,0.0,0.0,0.0,0.0,0.0,0.0,0.0,0.0,0.0,0.0,0.0,0.0,0.0,0.0,0.0,0.0,0.0,0.0,0.0,0.0,0.0,0.0,0.0,0.0,0.0,0.0,0.0,0.0,0.0,0.0,0.0,0.0,0.0,0.0,0.0,0.0,0.0,0.0,0.0,0.0,0.0,0.0,0.0,0.0,0.0,0.0,0.0,0.0,0.0,0.0,0.0,0.0,0.0,0.0,0.0,0.0,0.0,0.0,0.0,0.0,0.0,0.0,0.0,0.0,0.0,0.0,-0.9622,-0.9708,-0.9879,-1.0071,-0.9667,-0.9329,0.0,0.0,0.0,0.0,0.0,0.0,0.0,0.0,0.0,0.0,0.0,0.0,0.0,0.0,0.0,0.0,0.0,0.0,0.0,0.0,0.0,0.0,0.0,0.0,0.0,0.0,0.0,0.0,0.0,0.0,0.0,0.0,0.0,0.0,0.0,0.0,0.0,0.0,0.0,0.0,0.0,0.0,0.0,0.0,0.0,0.0,0.0,0.0,0.0,0.0,0.0,0.0,0.0,0.0,0.0,0.0,0.0,0.0,0.0,0.0,0.0,0.0,0.0,0.0,0.0,0.0,0.0,0.0,0.0,0.0,0.0,0.0,0.0,0.0,0.0,0.0,0.0,0.0,0.0,0.0,0.0,0.0,0.0,0.0,0.0,0.0,0.0,0.0,0.0,0.0,0.0,0.0,0.0,0.0,0.0,0.0,0.0,0.0,0.0,0.0,0.0,0.0,0.0,0.0,0.0,0.0,0.0,0.0,0.0,-1.0025,-1.0349,-1.053,-1.0621,-1.0356,-1.0026,0.0,0.0,0.0,0.0,0.0,0.0,0.0,0.0,0.0,0.0,0.0,0.0,0.0,0.0,0.0,0.0,0.0,0.0,0.0,0.0,0.0,0.0,0.0,0.0,0.0,0.0,0.0,0.0,0.0,0.0,0.0,0.0,0.0,0.0,0.0,0.0,0.0,0.0,0.0,0.0,0.0,0.0,0.0,0.0,0.0,0.0,0.0,0.0,0.0,0.0,0.0,0.0,0.0,0.0,0.0,0.0,0.0,0.0,0.0,0.0,0.0,0.0,0.0,0.0,0.0,0.0,0.0,0.0,0.0,0.0,0.0,0.0,0.0,0.0,0.0,0.0,0.0,0.0,0.0,0.0,0.0,0.0,0.0,0.0,0.0,0.0,0.0,0.0,0.0,0.0,0.0,0.0,0.0,0.0,0.0,0.0,0.0,0.0,0.0,0.0,0.0,0.0,0.0,0.0,0.0,0.0,0.0,0.0,0.0,-1.0839,-1.1328,-1.1561,-1.1571,-1.1278,-1.0849,0.0,0.0,0.0,0.0,0.0,0.0,0.0,0.0,0.0,0.0,0.0,0.0,0.0,0.0,0.0,0.0,0.0,0.0,0.0,0.0,0.0,0.0,0.0,0.0,0.0,0.0,0.0,0.0,0.0,0.0,0.0,0.0,0.0,0.0,0.0,0.0,0.0,0.0,0.0,0.0,0.0,0.0,0.0,0.0,0.0,0.0,0.0,0.0,0.0,0.0,0.0,0.0,0.0,0.0,0.0,0.0,0.0,0.0,0.0,0.0,0.0,0.0,0.0,0.0,0.0,0.0,0.0,0.0,0.0,0.0,0.0,0.0,0.0,0.0,0.0,0.0,0.0,0.0,0.0,0.0,0.0,0.0,0.0,0.0,0.0,0.0,0.0,0.0,0.0,0.0,0.0,0.0,0.0,0.0,0.0,0.0,0.0,0.0,0.0,0.0,0.0,0.0,0.0,0.0,0.0,0.0,0.0,0.0,-1.1109,-1.2184,-1.2745,-1.2997,-1.2985,-1.2476,-1.1929,0.0,0.0,0.0,0.0,0.0,0.0,0.0,0.0,0.0,0.0,0.0,0.0,0.0,0.0,0.0,0.0,0.0,0.0,0.0,0.0,0.0,0.0,0.0,0.0,0.0,0.0,0.0,0.0,0.0,0.0,0.0,0.0,0.0,0.0,0.0,0.0,0.0,0.0,0.0,0.0,0.0,0.0,0.0,0.0,0.0,0.0,0.0,0.0,0.0,0.0,0.0,0.0,0.0,0.0,0.0,0.0,0.0,0.0,0.0,0.0,0.0,0.0,0.0,0.0,0.0,0.0,0.0,0.0,0.0,0.0,0.0,0.0,0.0,0.0,0.0,0.0,0.0,0.0,0.0,0.0,0.0,0.0,0.0,0.0,0.0,0.0,0.0,0.0,0.0,0.0,0.0,0.0,0.0,0.0,0.0,0.0,0.0,0.0,0.0,0.0,0.0,0.0,0.0,0.0,0.0,0.0,0.0,0.0,0.0,-1.3558,-1.3918,-1.4012,-1.3924,-1.3579,-1.2926,0.0,0.0,0.0,0.0,0.0,0.0,0.0,0.0,0.0,0.0,0.0,0.0,0.0,0.0,0.0,0.0,0.0,0.0,0.0,0.0,0.0,0.0,0.0,0.0,0.0,0.0,0.0,0.0,0.0,0.0,0.0,0.0,0.0,0.0,0.0,0.0,0.0,0.0,0.0,0.0,0.0,0.0,0.0,0.0,0.0,0.0,0.0,0.0,0.0,0.0,0.0,0.0,0.0,0.0,0.0,0.0,0.0,0.0,0.0,0.0,0.0,0.0,0.0,0.0,0.0,0.0,0.0,0.0,0.0,0.0,0.0,0.0,0.0,0.0,0.0,0.0,0.0,0.0,0.0,0.0,0.0,0.0,0.0,0.0,0.0,0.0,0.0,0.0,0.0,0.0,0.0,0.0,0.0,0.0,0.0,0.0,0.0,0.0,0.0,0.0,0.0,0.0,0.0,0.0,0.0,0.0,0.0,0.0,0.0,-1.5101,-1.5068,-1.5009,-1.4858,-1.4494,-1.3753,-1.2609,0.0,0.0,0.0,0.0,0.0,0.0,0.0,0.0,0.0,0.0,0.0,0.0,0.0,0.0,0.0,0.0,0.0,0.0,0.0,0.0,0.0,0.0,0.0,0.0,0.0,0.0,0.0,0.0,0.0,0.0,0.0,0.0,0.0,0.0,0.0,0.0,0.0,0.0,0.0,0.0,0.0,0.0,0.0,0.0,0.0,0.0,0.0,0.0,0.0,0.0,0.0,0.0,0.0,0.0,0.0,0.0,0.0,0.0,0.0,0.0,0.0,0.0,0.0,0.0,0.0,0.0,0.0,0.0,0.0,0.0,0.0,0.0,0.0,0.0,0.0,0.0,0.0,0.0,0.0,0.0,0.0,0.0,0.0,0.0,0.0,0.0,0.0,0.0,0.0,0.0,0.0,0.0,0.0,0.0,0.0,0.0,0.0,0.0,0.0,0.0,0.0,0.0,0.0,0.0,0.0,0.0,0.0,0.0,-1.6687,-1.6192,-1.5891,-1.5878,-1.5337,-1.4469,0.0,0.0,0.0,0.0,0.0,0.0,0.0,0.0,0.0,0.0,0.0,0.0,0.0,0.0,0.0,0.0,0.0,0.0,0.0,0.0,0.0,0.0,0.0,0.0,0.0,0.0,0.0,0.0,0.0,0.0,0.0,0.0,0.0,0.0,0.0,0.0,0.0,0.0,0.0,0.0,0.0,0.0,0.0,0.0,0.0,0.0,0.0,0.0,0.0,0.0,0.0,0.0,0.0,0.0,0.0,0.0,0.0,0.0,0.0,0.0,0.0,0.0,0.0,0.0,0.0,0.0,0.0,0.0,0.0,0.0,0.0,0.0,0.0,0.0,0.0,0.0,0.0,0.0,0.0,0.0,0.0,0.0,0.0,0.0,0.0,0.0,0.0,0.0,0.0,0.0,0.0,0.0,0.0,0.0,0.0,0.0,0.0,0.0,0.0,0.0,0.0,0.0,0.0,0.0,0.0,0.0,0.0,0.0,0.0,-1.6647,-1.6981,-1.7128,-1.7101,-1.6139,-1.515,0.0,0.0,0.0,0.0,0.0,0.0,0.0,0.0,0.0,0.0,0.0,0.0,0.0,0.0,0.0,0.0,0.0,0.0,0.0,0.0,0.0,0.0,0.0,0.0,0.0,0.0,0.0,0.0,0.0,0.0,0.0,0.0,0.0,0.0,0.0,0.0,0.0,0.0,0.0,0.0,0.0,0.0,0.0,0.0,0.0,0.0,0.0,0.0,0.0,0.0,0.0,0.0,0.0,0.0,0.0,0.0,0.0,0.0,0.0,0.0,0.0,0.0,0.0,0.0,0.0,0.0,0.0,0.0,0.0,0.0,0.0,0.0,0.0,0.0,0.0,0.0,0.0,0.0,0.0,0.0,0.0,0.0,0.0,0.0,0.0,0.0,0.0,0.0,0.0,0.0,0.0,0.0,0.0,0.0,0.0,0.0,0.0,0.0,0.0,0.0,0.0,0.0,0.0,0.0,0.0,0.0,0.0,0.0,-1.6086,-1.7248,-1.7609,-1.7836,-1.7969,-1.682,-1.5671,0.0,0.0,0.0,0.0,0.0,0.0,0.0,0.0,0.0,0.0,0.0,0.0,0.0,0.0,0.0,0.0,0.0,0.0,0.0,0.0,0.0,0.0,0.0,0.0,0.0,0.0,0.0,0.0,0.0,0.0,0.0,0.0,0.0,0.0,0.0,0.0,0.0,0.0,0.0,0.0,0.0,0.0,0.0,0.0,0.0,0.0,0.0,0.0,0.0,0.0,0.0,0.0,0.0,0.0,0.0,0.0,0.0,0.0,0.0,0.0,0.0,0.0,0.0,0.0,0.0,0.0,0.0,0.0,0.0,0.0,0.0,0.0,0.0,0.0,0.0,0.0,0.0,0.0,0.0,0.0,0.0,0.0,0.0,0.0,0.0,0.0,0.0,0.0,0.0,0.0,0.0,0.0,0.0,0.0,0.0,0.0,0.0,0.0,0.0,0.0,0.0,0.0,0.0,0.0,0.0,0.0,0.0,0.0,-1.6874,-1.7955,-1.8049,-1.825,-1.845,-1.7328,-1.6032,0.0,0.0,0.0,0.0,0.0,0.0,0.0,0.0,0.0,0.0,0.0,0.0,0.0,0.0,0.0,0.0,0.0,0.0,0.0,0.0,0.0,0.0,0.0,0.0,0.0,0.0,0.0,0.0,0.0,0.0,0.0,0.0,0.0,0.0,0.0,0.0,0.0,0.0,0.0,0.0,0.0,0.0,0.0,0.0,0.0,0.0,0.0,0.0,0.0,0.0,0.0,0.0,0.0,0.0,0.0,0.0,0.0,0.0,0.0,0.0,0.0,0.0,0.0,0.0,0.0,0.0,0.0,0.0,0.0,0.0,0.0,0.0,0.0,0.0,0.0,0.0,0.0,0.0,0.0,0.0,0.0,0.0,0.0,0.0,0.0,0.0,0.0,0.0,0.0,0.0,0.0,0.0,0.0,0.0,0.0,0.0,0.0,0.0,0.0,0.0,0.0,0.0,0.0,0.0,0.0,0.0,0.0,0.0,-1.7074,-1.7942,-1.849,-1.8651,-1.849,-1.7328,-1.6126,0.0,0.0,0.0,0.0,0.0,0.0,0.0,0.0,0.0,0.0,0.0,0.0,0.0,0.0,0.0,0.0,0.0,0.0,0.0,0.0,0.0,0.0,0.0,0.0,0.0,0.0,0.0,0.0,0.0,0.0,0.0,0.0,0.0,0.0,0.0,0.0,0.0,0.0,0.0,0.0,0.0,0.0,0.0,0.0,0.0,0.0,0.0,0.0,-1.0586,0.0,0.0,0.0,0.0,0.0,0.0,0.0,0.0,0.0,0.0,0.0,0.0,0.0,0.0,0.0,0.0,0.0,0.0,0.0,0.0,0.0,0.0,0.0,0.0,0.0,0.0,0.0,0.0,0.0,0.0,0.0,0.0,0.0,0.0,0.0,0.0,0.0,0.0,0.0,0.0,0.0,0.0,0.0,0.0,0.0,0.0,0.0,0.0,0.0,0.0,0.0,0.0,0.0,0.0,0.0,0.0,0.0,0.0,0.0,-1.7341,-1.821,-1.8677,-1.8784,-1.8477,-1.7595,-1.6513,0.0,0.0,0.0,0.0,0.0,0.0,0.0,0.0,0.0,0.0,0.0,0.0,0.0,0.0,0.0,0.0,0.0,0.0,0.0,0.0,0.0,0.0,0.0,0.0,0.0,0.0,0.0,0.0,0.0,0.0,0.0,0.0,0.0,0.0,0.0,0.0,0.0,0.0,0.0,0.0,0.0,0.0,0.0,0.0,0.0,0.0,0.0,0.0,0.0,0.0,0.0,0.0,0.0,0.0,0.0,0.0,0.0,0.0,0.0,0.0,0.0,0.0,0.0,0.0,0.0,0.0,0.0,0.0,0.0,0.0,0.0,0.0,0.0,0.0,0.0,0.0,0.0,0.0,0.0,0.0,0.0,0.0,0.0,0.0,0.0,0.0,0.0,0.0,0.0,0.0,0.0,0.0,0.0,0.0,0.0,0.0,0.0,0.0,0.0,0.0,0.0,0.0,0.0,0.0,0.0,0.0,0.0,-1.662,-1.7688,-1.8464,-1.8824,-1.8824,-1.849,-1.7903,-1.6914,-1.5511,0.0,0.0,0.0,0.0,0.0,0.0,0.0,0.0,0.0,0.0,0.0,0.0,0.0,0.0,0.0,0.0,0.0,0.0,0.0,0.0,0.0,0.0,0.0,0.0,0.0,0.0,0.0,0.0,0.0,0.0,0.0,0.0,0.0,0.0,0.0,0.0,0.0,0.0,-0.9833,-1.0608,0.0,0.0,0.0,0.0,0.0,0.0,0.0,0.0,-1.1209,0.0,0.0,0.0,0.0,0.0,0.0,0.0,0.0,0.0,0.0,0.0,0.0,0.0,0.0,0.0,0.0,0.0,0.0,0.0,0.0,0.0,0.0,0.0,0.0,0.0,0.0,0.0,0.0,0.0,0.0,0.0,0.0,0.0,0.0,0.0,0.0,0.0,0.0,0.0,0.0,0.0,0.0,0.0,0.0,0.0,0.0,0.0,0.0,0.0,0.0,0.0,0.0,0.0,0.0,0.0,0.0,-1.5704,-1.6914,-1.7836,-1.8477,-1.9025,-1.9038,-1.8504,-1.7903,-1.7007,-1.5731,0.0,0.0,0.0,0.0,0.0,0.0,0.0,0.0,0.0,0.0,0.0,0.0,0.0,0.0,0.0,0.0,0.0,0.0,0.0,0.0,0.0,0.0,0.0,0.0,0.0,0.0,0.0,0.0,0.0,0.0,0.0,0.0,0.0,0.0,0.0,0.0,0.0,0.0,0.0,-1.1363,-1.1685,0.0,0.0,0.0,0.0,0.0,0.0,0.0,0.0,-1.1236,0.0,0.0,0.0,0.0,0.0,0.0,0.0,0.0,0.0,0.0,0.0,0.0,0.0,0.0,0.0,0.0,0.0,0.0,0.0,0.0,0.0,0.0,0.0,0.0,0.0,0.0,0.0,0.0,0.0,0.0,0.0,0.0,0.0,0.0,0.0,0.0,0.0,0.0,0.0,0.0,0.0,0.0,0.0,0.0,0.0,0.0,0.0,0.0,0.0,0.0,0.0,0.0,0.0,0.0,0.0,-1.5798,-1.7154,-1.8036,-1.849,-1.9065,-1.9078,-1.8504,-1.7903,-1.7034,0.0,0.0,0.0,0.0,0.0,0.0,0.0,0.0,0.0,0.0,0.0,0.0,0.0,0.0,0.0,0.0,0.0,0.0,0.0,0.0,0.0,0.0,0.0,0.0,0.0,0.0,0.0,0.0,0.0,0.0,0.0,0.0,0.0,0.0,0.0,0.0,0.0,0.0,0.0,0.0,-1.173,-1.2104,-1.2154,0.0,0.0,0.0,0.0,0.0,0.0,-1.2091,-1.1837,0.0,0.0,0.0,0.0,0.0,0.0,0.0,0.0,0.0,0.0,0.0,0.0,0.0,0.0,0.0,0.0,0.0,0.0,0.0,0.0,0.0,0.0,0.0,0.0,0.0,0.0,0.0,0.0,0.0,0.0,0.0,0.0,0.0,0.0,0.0,0.0,0.0,0.0,0.0,0.0,0.0,0.0,0.0,0.0,0.0,0.0,0.0,0.0,0.0,0.0,0.0,0.0,0.0,0.0,0.0,-1.5925,-1.7276,-1.8169,-1.8584,-1.9092,-1.9078,-1.8504,-1.7903,-1.7034,0.0,0.0,0.0,0.0,0.0,0.0,0.0,0.0,0.0,0.0,0.0,0.0,0.0,0.0,0.0,0.0,0.0,0.0,0.0,0.0,0.0,0.0,0.0,0.0,0.0,0.0,0.0,0.0,0.0,0.0,0.0,0.0,0.0,0.0,0.0,0.0,0.0,0.0,0.0,0.0,0.0,-1.2518,-1.2918,-1.3146,0.0,0.0,0.0,0.0,-1.3307,-1.2854,0.0,0.0,0.0,0.0,0.0,0.0,0.0,0.0,0.0,0.0,0.0,0.0,0.0,0.0,0.0,0.0,0.0,0.0,0.0,0.0,0.0,0.0,0.0,0.0,0.0,0.0,0.0,0.0,0.0,0.0,0.0,0.0,0.0,0.0,0.0,0.0,0.0,0.0,0.0,0.0,0.0,0.0,0.0,0.0,0.0,0.0,0.0,0.0,0.0,0.0,0.0,0.0,0.0,0.0,0.0,0.0,-1.6219,-1.7422,-1.8262,-1.8851,-1.9199,-1.9149,-1.8504,-1.7903,-1.7034,0.0,0.0,0.0,0.0,0.0,0.0,0.0,0.0,0.0,0.0,0.0,0.0,0.0,0.0,0.0,0.0,0.0,0.0,0.0,0.0,0.0,0.0,0.0,0.0,0.0,0.0,0.0,0.0,0.0,0.0,0.0,0.0,0.0,0.0,0.0,0.0,0.0,0.0,0.0,0.0,0.0,-1.2945,-1.3467,-1.3533,-1.3681,0.0,0.0,-1.3895,-1.36,-1.3493,0.0,0.0,0.0,0.0,0.0,0.0,0.0,0.0,0.0,0.0,0.0,0.0,0.0,0.0,0.0,0.0,0.0,0.0,0.0,0.0,0.0,0.0,0.0,0.0,0.0,0.0,0.0,0.0,0.0,0.0,0.0,0.0,0.0,0.0,0.0,0.0,0.0,0.0,0.0,0.0,0.0,0.0,0.0,0.0,0.0,0.0,0.0,0.0,0.0,0.0,0.0,0.0,0.0,0.0,0.0,-1.5271,-1.6335,-1.7609,-1.849,-1.8918,-1.9212,-1.9172,-1.8744,-1.7983,-1.7114,0.0,0.0,0.0,0.0,0.0,0.0,0.0,0.0,0.0,0.0,0.0,0.0,0.0,0.0,0.0,0.0,0.0,0.0,0.0,0.0,0.0,0.0,0.0,0.0,0.0,0.0,0.0,0.0,0.0,0.0,0.0,0.0,0.0,0.0,0.0,0.0,0.0,0.0,0.0,0.0,0.0,0.0,-1.3828,-1.4175,0.0,0.0,0.0,-1.4536,-1.4416,0.0,0.0,0.0,0.0,0.0,0.0,0.0,0.0,0.0,0.0,0.0,0.0,0.0,0.0,0.0,0.0,0.0,0.0,0.0,0.0,0.0,0.0,0.0,0.0,0.0,0.0,0.0,0.0,0.0,0.0,0.0,0.0,0.0,0.0,0.0,0.0,0.0,0.0,0.0,0.0,0.0,0.0,0.0,0.0,0.0,0.0,0.0,0.0,0.0,0.0,0.0,0.0,0.0,0.0,0.0,0.0,0.0,-1.638,-1.7769,-1.8704,-1.9132,-1.9279,-1.9265,-1.9038,-1.817,0.0,0.0,0.0,0.0,0.0,0.0,0.0,0.0,0.0,0.0,0.0,0.0,0.0,0.0,0.0,0.0,0.0,0.0,0.0,0.0,0.0,0.0,0.0,0.0,0.0,0.0,0.0,-0.7839,0.0,0.0,0.0,0.0,0.0,0.0,0.0,0.0,0.0,0.0,0.0,0.0,0.0,0.0,-1.3906,-1.4456,-1.4897,-1.5231,0.0,0.0,-1.5424,-1.5357,-1.5044,-1.4723,0.0,0.0,0.0,0.0,0.0,0.0,0.0,0.0,0.0,0.0,0.0,0.0,0.0,0.0,0.0,0.0,0.0,0.0,0.0,0.0,0.0,0.0,0.0,0.0,0.0,0.0,0.0,0.0,0.0,0.0,0.0,0.0,0.0,0.0,0.0,0.0,0.0,0.0,0.0,0.0,0.0,0.0,0.0,0.0,0.0,0.0,0.0,0.0,0.0,0.0,0.0,0.0,0.0,0.0,-1.5571,-1.6673,-1.7876,-1.8891,-1.9693,-1.9492,-1.9359,-1.9319,-1.8477,-1.7543,0.0,0.0,0.0,0.0,0.0,0.0,0.0,0.0,0.0,0.0,0.0,0.0,0.0,0.0,0.0,0.0,0.0,0.0,0.0,0.0,0.0,0.0,0.0,0.0,0.0,0.0,0.0,0.0,0.0,0.0,0.0,0.0,0.0,0.0,0.0,0.0,0.0,0.0,0.0,0.0,0.0,-1.4456,-1.5518,-1.5704,-1.5965,0.0,-1.6593,-1.65,-1.6219,-1.5925,-1.5551,-1.5035,0.0,0.0,0.0,0.0,0.0,0.0,0.0,0.0,0.0,0.0,0.0,0.0,0.0,0.0,0.0,0.0,0.0,0.0,0.0,0.0,0.0,0.0,0.0,0.0,0.0,0.0,0.0,0.0,0.0,0.0,0.0,0.0,0.0,0.0,0.0,0.0,0.0,0.0,0.0,0.0,0.0,0.0,0.0,0.0,0.0,0.0,0.0,0.0,0.0,0.0,0.0,0.0,0.0,-1.5678,-1.7018,-1.8143,-1.9092,-1.9773,-1.9867,-1.9813,-1.9639,-1.8784,-1.7903,0.0,0.0,0.0,0.0,0.0,0.0,0.0,0.0,0.0,0.0,0.0,0.0,0.0,0.0,0.0,0.0,0.0,0.0,0.0,0.0,0.0,0.0,0.0,0.0,0.0,0.0,0.0,0.0,-0.9587,-0.9724,-0.9977,0.0,0.0,0.0,0.0,0.0,0.0,0.0,0.0,0.0,0.0,-1.5563,-1.6767,-1.707,0.0,0.0,-1.7336,-1.714,-1.6842,-1.6545,-1.6179,-1.5591,-1.515,0.0,0.0,0.0,0.0,0.0,0.0,0.0,0.0,0.0,0.0,0.0,0.0,0.0,0.0,0.0,0.0,0.0,0.0,0.0,0.0,0.0,0.0,0.0,0.0,0.0,0.0,0.0,0.0,0.0,0.0,0.0,0.0,0.0,0.0,0.0,0.0,0.0,0.0,0.0,0.0,0.0,0.0,0.0,0.0,0.0,0.0,0.0,0.0,0.0,0.0,0.0,0.0,-1.5812,-1.7192,-1.8317,-1.9252,-1.992,-2.012,-2.0174,-2.0054,-1.9212,-1.837,0.0,0.0,0.0,0.0,0.0,0.0,0.0,0.0,0.0,0.0,0.0,0.0,0.0,0.0,0.0,0.0,0.0,0.0,0.0,0.0,0.0,0.0,0.0,0.0,0.0,0.0,0.0,0.0,-1.0405,-1.0352,-1.0332,0.0,0.0,0.0,0.0,0.0,0.0,0.0,0.0,0.0,0.0,-1.6697,-1.7731,-1.811,-1.8334,-1.8418,-1.8237,-1.8022,-1.7719,-1.7391,-1.7059,-1.641,0.0,0.0,0.0,0.0,0.0,0.0,0.0,0.0,0.0,0.0,0.0,0.0,0.0,0.0,0.0,0.0,0.0,0.0,0.0,0.0,0.0,0.0,0.0,0.0,0.0,0.0,0.0,-1.356,0.0,0.0,-1.2757,0.0,0.0,0.0,0.0,0.0,0.0,0.0,0.0,0.0,0.0,0.0,0.0,0.0,0.0,0.0,0.0,0.0,0.0,0.0,0.0,0.0,0.0,-1.5979,-1.7206,-1.8343,-1.9359,-2.0187,-2.0167,-2.0374,-2.0615,-1.9872,-1.9065,-1.8437,0.0,0.0,0.0,0.0,0.0,0.0,0.0,0.0,0.0,0.0,0.0,0.0,0.0,0.0,0.0,0.0,0.0,0.0,0.0,0.0,0.0,0.0,0.0,0.0,0.0,0.0,-1.1516,-1.1479,-1.1241,0.0,0.0,0.0,0.0,0.0,0.0,0.0,0.0,0.0,-1.5976,-1.7007,-1.7823,-1.8457,-1.8794,-1.9172,-1.9386,-1.9373,-1.9275,-1.8952,-1.8604,-1.8272,0.0,0.0,0.0,0.0,0.0,0.0,0.0,0.0,0.0,0.0,0.0,0.0,0.0,0.0,0.0,0.0,0.0,0.0,0.0,0.0,0.0,0.0,0.0,0.0,0.0,0.0,0.0,-1.4897,-1.4763,0.0,0.0,0.0,0.0,0.0,0.0,0.0,0.0,0.0,0.0,0.0,-1.6469,-1.6469,0.0,0.0,0.0,0.0,0.0,0.0,0.0,0.0,0.0,0.0,0.0,0.0,-1.666,-1.8009,-1.9011,-1.984,-2.0508,-2.0708,-2.0775,-2.0668,-2.0013,-1.9011,-1.7688,0.0,0.0,0.0,0.0,0.0,0.0,0.0,0.0,0.0,0.0,0.0,0.0,0.0,0.0,0.0,0.0,0.0,0.0,0.0,0.0,0.0,0.0,0.0,0.0,0.0,-1.1591,0.0,0.0,0.0,0.0,0.0,0.0,0.0,0.0,0.0,0.0,0.0,-1.6024,-1.7246,-1.8374,-1.9492,-2.0472,-2.0879,-2.1168,0.0,0.0,0.0,0.0,0.0,0.0,0.0,0.0,0.0,0.0,0.0,0.0,0.0,0.0,-1.5752,-1.4589,-1.4376,-1.4442,-1.4629,0.0,0.0,0.0,0.0,0.0,0.0,0.0,0.0,0.0,0.0,0.0,0.0,0.0,0.0,-1.6099,0.0,-1.5605,0.0,0.0,0.0,0.0,0.0,0.0,0.0,0.0,-1.7101,-1.7542,-1.797,-1.797,-1.797,0.0,-1.7622,-1.6834,0.0,0.0,0.0,0.0,0.0,0.0,0.0,0.0,-1.7261,-1.8611,-1.9412,-2.008,-2.0655,-2.0962,-2.1015,-2.0828,-2.016,-1.9158,-1.7862,-1.6807,-1.5792,0.0,0.0,0.0,0.0,0.0,0.0,0.0,0.0,0.0,0.0,0.0,0.0,0.0,0.0,0.0,0.0,0.0,0.0,0.0,0.0,0.0,0.0,0.0,-1.2676,0.0,0.0,0.0,0.0,0.0,0.0,0.0,0.0,0.0,-1.5332,-1.6218,-1.738,-1.8629,-1.9779,-2.0876,-2.1765,0.0,0.0,0.0,0.0,0.0,0.0,0.0,-2.0674,-2.0132,-1.9759,-1.9304,-1.8796,-1.8482,-1.821,-1.8196,0.0,0.0,-1.6299,-1.6032,-1.6112,-1.642,-1.6473,-1.662,-1.7101,-1.7422,-1.7809,0.0,0.0,0.0,0.0,0.0,0.0,0.0,0.0,-1.7649,-1.7554,0.0,-1.7259,0.0,0.0,0.0,0.0,-1.638,-1.6647,0.0,0.0,-1.841,-1.8851,-1.9386,-1.947,-1.947,-1.9457,-1.9132,-1.8824,-1.8437,-1.6807,0.0,0.0,0.0,0.0,0.0,0.0,-1.7836,-1.8958,-1.9546,-2.012,-2.0695,-2.0975,-2.1096,-2.1069,-2.0267,-1.9546,-1.8931,-1.7809,-1.6794,-1.5851,-1.4776,0.0,0.0,0.0,0.0,0.0,0.0,0.0,0.0,0.0,0.0,0.0,0.0,0.0,0.0,0.0,0.0,0.0,0.0,0.0,0.0,-1.4159,0.0,0.0,0.0,0.0,0.0,0.0,0.0,0.0,0.0,0.0,-1.7062,-1.7823,-1.8847,-2.0106,0.0,0.0,0.0,0.0,-2.3273,-2.3242,-2.3257,-2.3135,-2.284,-2.272,-2.244,-2.1491,0.0,0.0,-2.0095,-1.9689,-1.9457,-1.9484,-1.9484,-1.9145,-1.829,-1.8063,-1.8143,-1.8464,-1.8517,-1.8651,-1.8931,-1.9199,-1.9573,-2.0134,0.0,0.0,0.0,0.0,-1.9078,-1.9172,-1.9158,-1.9158,-1.9118,-1.9011,-1.8597,0.0,0.0,0.0,0.0,0.0,0.0,-1.8758,-1.9541,-1.9634,-2.0054,-2.0601,-2.0615,-2.0601,-2.0601,-2.0521,-2.0227,-1.9733,-1.9225,-1.8143,-1.6603,0.0,0.0,0.0,0.0,-1.8891,-1.9813,-2.0227,-2.0708,-2.136,-2.1176,-2.1015,-2.0802,-2.0561,-2.0054,-1.9265,-1.8704,-1.7903,-1.6871,-1.6107,0.0,0.0,0.0,0.0,0.0,0.0,0.0,0.0,0.0,0.0,0.0,0.0,0.0,0.0,0.0,0.0,0.0,0.0,0.0,-1.4783,-1.5043,-1.5116,0.0,0.0,0.0,0.0,0.0,0.0,0.0,0.0,0.0,-1.9564,-1.9857,-2.0395,0.0,0.0,-2.2916,-2.3501,-2.4131,-2.4578,-2.4559,-2.4582,0.0,-2.4109,-2.3661,-2.3278,-2.3009,-2.2407,-2.1772,-2.1282,-2.0901,-2.0787,-2.1006,-2.08,-2.0575,-2.0535,-1.984,-1.9519,-1.992,-2.0054,-2.0147,-2.0428,-2.0722,-2.1092,-2.1844,-2.1122,-2.0374,-2.0054,-2.008,-2.0241,-2.0321,-2.0321,-2.0321,-2.0321,-2.0294,-1.9947,-1.972,-1.9599,-1.9319,0.0,0.0,0.0,-2.0027,-2.0748,-2.0762,-2.1015,-2.1443,-2.1456,-2.1456,-2.1456,-2.1456,-2.1216,-2.0748,-2.0762,-2.0067,-1.8744,0.0,-1.8263,-1.8744,-1.9212,-1.9813,-2.0548,-2.0869,-2.132,-2.1775,-2.155,-2.1323,-2.1105,-2.0909,-2.0548,-1.9907,-1.9492,-1.8838,-1.7903,-1.7288,-1.6486,0.0,0.0,0.0,0.0,0.0,0.0,0.0,0.0,0.0,0.0,0.0,-1.1838,-1.2325,0.0,0.0,0.0,-1.4853,-1.5687,-1.6316,-1.633,0.0,0.0,0.0,0.0,0.0,0.0,0.0,-1.8716,-1.9813,-2.0764,-2.1393,-2.1701,-2.2083,-2.2707,-2.3202,-2.384,-2.4611,0.0,-2.5738,-2.5695,-2.5824,-2.587,-2.5631,-2.5307,-2.4942,-2.4698,-2.384,-2.3098,-2.2726,-2.2391,-2.2251,-2.2387,-2.2277,-2.222,-2.2642,-2.2046,-2.138,-2.14,-2.1363,-2.1456,-2.175,-2.2044,-2.2311,-2.3367,-2.3247,-2.1884,-2.1296,-2.1256,-2.1283,-2.1283,-2.1283,-2.1283,-2.1269,-2.1243,-2.1216,-2.1056,-2.0762,-2.0494,0.0,-2.0788,-2.0775,-2.1082,-2.1681,-2.1708,-2.1882,-2.2084,-2.2124,-2.2111,-2.2098,-2.2098,-2.1924,-2.1695,-2.1681,-2.1534,-2.1162,-2.0107,-1.9693,-1.9947,-2.0201,-2.0615,-2.1176,-2.1443,-2.1775,-2.1977,-2.2004,-2.1884,-2.1655,-2.1323,-2.1029,-2.0708,-2.0187,-1.9626,-1.9011,-1.845,-1.7756,-1.6887,0.0,0.0,0.0,0.0,0.0,0.0,0.0,0.0,0.0,0.0,0.0,0.0,0.0,0.0,0.0,-1.6448,0.0,-1.7911,-1.7969,0.0,0.0,0.0,-1.8613,-1.8906,-1.9324,-1.9725,-2.0325,0.0,0.0,-2.2623,-2.3237,-2.3672,-2.3783,-2.4098,-2.4624,-2.5576,-2.6296,-2.676,-2.6679,-2.6999,-2.7222,-2.7121,-2.7057,-2.6788,-2.62,-2.5445,-2.4769,-2.444,-2.413,-2.3882,-2.3961,-2.3884,-2.3972,-2.4496,-2.4205,-2.3735,-2.2768,-2.2525,-2.2605,-2.2846,-2.31,-2.33,-2.3661,-2.3634,-2.3287,-2.2873,-2.2472,-2.2699,-2.2806,-2.2806,-2.2806,-2.2659,-2.2432,-2.2205,-2.1951,-2.167,-2.1603,-2.1603,-2.167,-2.167,-2.1871,-2.2218,-2.2445,-2.2712,-2.302,-2.3247,-2.3233,-2.302,-2.3006,-2.2726,-2.2231,-2.2218,-2.2058,-2.1777,-2.1496,-2.1283,-2.1212,-2.1203,-2.1416,-2.1777,-2.1844,-2.1911,-2.1991,-2.2205,-2.2178,-2.1897,-2.1817,-2.1537,-2.1029,-2.0882,-2.0428,-1.9639,-1.9252,-1.8758,-1.809,-1.7441,0.0,0.0,0.0,0.0,0.0,0.0,0.0,0.0,0.0,-1.4282,-1.4885,0.0,-1.6184,0.0,-1.7765,-1.8649,-1.9294,-1.9353,0.0,0.0,-2.0003,-2.0179,-2.0267,-2.0998,-2.1554,-2.1701,-2.2564,-2.3193,-2.334,-2.372,-2.4157,-2.471,-2.4853,-2.5083,-2.5574,-2.6455,-2.7117,-2.7097,-2.7356,-2.7599,-2.7621,-2.738,-2.7142,-2.6663,-2.636,-2.6262,-2.6522,-2.6203,-2.6039,-2.6261,-2.6136,-2.5809,-2.5396,-2.52,-2.4904,-2.4366,-2.3806,-2.346,-2.3541,-2.3621,-2.3741,-2.4155,-2.4155,-2.4155,-2.3955,-2.3647,-2.3554,-2.3527,-2.3527,-2.3527,-2.3434,-2.333,-2.31,-2.2939,-2.2779,-2.2779,-2.2779,-2.2779,-2.2779,-2.2873,-2.302,-2.3193,-2.3354,-2.3527,-2.3701,-2.3688,-2.3527,-2.3527,-2.3354,-2.3033,-2.302,-2.2873,-2.2579,-2.2579,-2.2432,-2.2204,-2.2004,-2.2017,-2.2178,-2.2311,-2.2378,-2.2378,-2.2525,-2.2485,-2.2191,-2.2178,-2.1964,-2.1523,-2.1496,-2.1149,-2.0428,-2.0348,-2.005,-1.9334,-1.8851,-1.8468,0.0,0.0,0.0,0.0,0.0,0.0,0.0,0.0,0.0,0.0,0.0,-1.7765,-1.8555,-1.9374,-2.0135,-2.0779,-2.0837,-2.1013,-2.1467,-2.1672,-2.1789,-2.1789,-2.2403,-2.2813,-2.2813,-2.353,-2.4027,-2.4042,-2.4305,-2.4716,-2.5026,-2.5225,-2.55,-2.604,-2.6853,-2.7491,-2.7653,-2.8207,-2.8728,-2.8845,-2.8618,-2.8364,-2.8322,-2.8209,-2.8147,-2.8223,-2.8051,-2.7888,-2.7911,-2.7772,-2.7483,-2.7038,-2.657,-2.6214,-2.5608,-2.4915,-2.4386,-2.4155,-2.4262,-2.4409,-2.4636,-2.4636,-2.4636,-2.4636,-2.4596,-2.4088,-2.3888,-2.3875,-2.3875,-2.3861,-2.3821,-2.3794,-2.3781,-2.3781,-2.3781,-2.3781,-2.3781,-2.3781,-2.3781,-2.3781,-2.3808,-2.3821,-2.3834,-2.3861,-2.3861,-2.3834,-2.3834,-2.3808,-2.3781,-2.3781,-2.3634,-2.3394,-2.338,-2.3247,-2.3048,-2.2686,-2.2512,-2.2485,-2.2739,-2.2859,-2.2859,-2.2859,-2.2739,-2.2485,-2.2472,-2.2338,-2.2058,-2.2044,-2.179,-2.132,-2.157,-2.13,-2.0598,-2.0268,-1.9962,0.0,-1.8984,0.0,0.0,0.0,0.0,0.0,0.0,0.0,0.0,-1.8789,-1.9579,-2.0413,-2.1015,-2.1701,-2.2301,-2.2359,-2.2593,-2.3149,-2.3237,-2.3237,-2.3252,-2.353,-2.372,-2.372,-2.4262,-2.4627,-2.4694,-2.4943,-2.5134,-2.5163,-2.5381,-2.5854,-2.6641,-2.7232,-2.7766,-2.8246,-2.9287,-2.9996,-3.0259,-3.0175,-3.0083,-3.0397,-3.0232,-3.0002,-2.9798,-2.9745,-2.9586,-2.9234,-2.9119,-2.8932,-2.8788,-2.8099,-2.7318,-2.6502,-2.574,-2.5179,-2.4764,-2.4836,-2.5077,-2.4636,-2.4636,-2.4636,-2.4636,-2.4549,-2.4516,-2.4476,-2.4476,-2.4402,-2.4342,-2.4102,-2.3875,-2.3781,-2.3781,-2.3781,-2.3781,-2.3781,-2.3781,-2.3781,-2.3781,-2.4008,-2.4128,-2.4142,-2.4369,-2.4356,-2.4128,-2.4115,-2.4008,-2.3781,-2.3781,-2.3741,-2.3688,-2.3688,-2.3661,-2.3594,0.0,0.0,0.0,-2.2832,-2.2859,-2.2859,-2.2859,-2.2832,-2.2779,-2.2779,0.0,-2.2352,-2.2338,-2.2311,-2.2223,-2.2107,0.0,0.0,0.0,0.0,0.0,0.0,0.0,0.0,0.0,0.0,0.0,-2.0911,-2.0837,-1.9901,-2.0867,-2.1613,-2.1818,-2.2389,-2.2901,-2.3281,-2.3325,-2.3486,-2.3837,-2.3896,-2.3896,-2.391,-2.4203,-2.4444,-2.4393,-2.4797,-2.5031,-2.5046,-2.509,-2.5154,-2.5403,-2.5516,-2.5963,-2.6878,-2.7228,-2.7662,-2.8592,-2.985,-3.0728,-3.088,-3.1082,-3.1198,-3.1357,-3.1357,-3.1381,-3.1493,-3.1323,-3.1167,-3.102,-3.0539,-2.9916,-2.9282,-2.8491,-2.771,-2.6619,-2.6217,-2.5805,-2.5147,-2.5037,-2.5144,-2.4636,-2.4636,-2.4636,-2.4636,0.0,-2.4636,-2.4636,-2.4636,-2.4636,-2.4556,-2.4409,-2.4262,-2.4195,-2.4195,-2.4195,-2.4195,-2.4195,-2.4195,-2.4195,-2.4209,-2.4342,-2.4422,-2.4422,-2.4569,-2.4556,-2.4422,-2.4422,-2.4342,-2.4209,-2.4195,-2.4128,-2.3981,-2.3981,-2.3915,-2.3768,-2.3621,-2.3327,-2.2941,-2.2859,-2.2859,-2.2859,-2.2859,-2.2859,-2.2859,-2.2859,0.0,0.0,0.0,0.0,0.0,0.0,0.0,0.0,0.0,0.0,-2.2378,-2.2049,-2.1906,-2.1906,-2.1906,-2.1906,-2.1906,-2.2506,-2.2535,-2.1715,-2.2418,-2.2886,-2.2886,-2.331,-2.372,-2.4042,-2.4086,-2.4276,-2.473,-2.4803,-2.4847,-2.5022,-2.5183,-2.5286,-2.5301,-2.5432,-2.5535,-2.5535,-2.552,-2.5593,-2.574,-2.5769,-2.6036,-2.6728,-2.7192,-2.794,-2.931,-3.0495,-3.1311,-3.1513,-3.1868,-3.2178,-3.2322,-3.2376,-3.2471,-3.2675,-3.24,-3.2071,-3.1877,-3.1347,-3.0726,-3.003,-2.9353,-2.8592,-2.7453,-2.6797,-2.6391,-2.5922,-2.5671,-2.5621,-2.4636,-2.4636,-2.4636,-2.4636,-2.4636,-2.4636,-2.4636,-2.4636,-2.4636,0.0,0.0,-2.4636,-2.4636,-2.4636,-2.4636,-2.4636,-2.4636,-2.4636,-2.4636,-2.4636,-2.4636,-2.4636,-2.4636,-2.4636,-2.4636,-2.4636,-2.4636,-2.4636,-2.4636,-2.4636,-2.4516,-2.4302,-2.4289,-2.4142,-2.3861,-2.3848,-2.3581,-2.3115,-2.2966,-2.2939,-2.2939,-2.2886,-2.2859,-2.2859,-2.2859,-2.2859,-2.2859,-2.2928,-2.3025,-2.3185,-2.3507,-2.37,-2.3796,-2.3781,-2.3735,-2.3676,-2.3427,-2.3281,-2.3281,-2.3281,-2.334,-2.3442,-2.3691,-2.3691,-2.331,-2.3574,-2.3764,-2.3764,-2.4115,-2.4452,-2.4715,-2.4803,-2.5037,-2.5564,-2.5622,-2.5725,-2.5959,-2.6018,-2.5974,-2.6018,-2.5974,-2.6018,-2.5988,-2.5988,-2.6047,-2.6091,-2.6105,-2.6276,-2.6813,-2.7555,-2.8451,-2.9916,-3.0857,-3.1643,-3.1948,-3.2458,-3.2819,-3.3061,-3.3185,-3.3312,-3.324,-3.2999,-3.2579,-3.2245,-3.1874,-3.1287,-3.0711,-3.0018,-2.9357,-2.8266,-2.7488,-2.6801,-2.6666,-2.6388,-2.6181,-2.4636,-2.4636,-2.4636,-2.4636,-2.4636,-2.4636,-2.4636,-2.4636,-2.4636,-2.4636,-2.4636,-2.4636,-2.4636,-2.4636,-2.4636,-2.4636,-2.4636,-2.4636,-2.4636,-2.4636,-2.4636,-2.4636,-2.4636,-2.4636,-2.4636,-2.4636,-2.4636,-2.4636,-2.4636,-2.4636,-2.4609,-2.4583,-2.4569,-2.4422,-2.4168,-2.4142,-2.3981,-2.3647,-2.3394,-2.326,-2.326,-2.3006,-2.2859,-2.2859,-2.2873,-2.2859,-2.2859,-2.3201,-2.3461,-2.3828,-2.4167,-2.4362,-2.4459,-2.4452,-2.4305,-2.4042,-2.3969,-2.3954,-2.3954,-2.394,-2.4188,-2.4782,-2.4899,-2.4665,-2.4027,-2.4247,-2.4437,-2.4452,-2.4964,-2.5344,-2.5403,-2.5622,-2.5798,-2.593,-2.5944,-2.5974,-2.6047,-2.6047,-2.6061,-2.6061,-2.6018,-2.6047,-2.6076,-2.6061,-2.6179,-2.6369,-2.6427,-2.673,-2.761,-2.8317,-2.8991,-2.9864,-3.085,-3.1651,-3.2088,-3.2715,-3.3149,-3.3309,-3.3517,-3.3623,-3.3436,-3.3071,-3.2756,-3.2647,-3.1895,-3.1293,-3.1251,-3.0145,-2.93,-2.8567,-2.8049,-2.7452,-2.6854,-2.6707,-2.67,-2.4877,-2.485,-2.4703,-2.4636,-2.4636,-2.4636,-2.4636,-2.4636,-2.4636,-2.4636,-2.4636,-2.4636,-2.4636,-2.4636,-2.4636,-2.4636,-2.4636,-2.4636,-2.4636,-2.4636,-2.4636,-2.4636,-2.4636,-2.4636,-2.4636,-2.4636,-2.4636,-2.4636,-2.4636,-2.4636,-2.4636,-2.4636,-2.4636,-2.4569,-2.4449,-2.4436,-2.4369,-2.4235,-2.3794,-2.3567,-2.3567,-2.342,-2.3354,-2.3423,-2.3354,-2.348,-2.3676,-2.3665,-2.3928,-2.4547,-2.4527,-2.4573,-2.4847,-2.4832,-2.4774,-2.4627,-2.4774,-2.4876,-2.4862,-2.5037,-2.5257,-2.5549,-2.5579,-2.5461,-2.5169,-2.5271,-2.5359,-2.5359,-2.5637,-2.5798,-2.5798,-2.593,-2.6091,-2.6266,-2.6281,-2.6354,-2.6515,-2.6544,-2.6544,-2.6544,-2.6544,-2.6544,-2.6544,-2.6544,-2.6588,-2.6749,-2.6764,-2.7112,-2.797,-2.8295,-2.883,-2.9982,-3.0963,-3.1754,-3.2333,-3.2911,-3.3348,-3.3539,-3.386,-3.404,-3.3884,-3.357,-3.3393,-3.3265,-3.2377,-3.1626,-3.1515,-3.0564,-2.9683,-2.9215,-2.8538,-2.7876,-2.7401,-2.6936,-2.661,-2.5184,-2.5157,-2.493,-2.4796,-2.4743,-2.473,-2.4703,-2.4562,-2.4636,-2.4636,-2.4636,-2.4636,-2.4636,-2.4636,-2.4636,-2.4636,-2.4636,-2.4636,-2.4636,-2.4636,-2.4636,-2.4636,-2.4636,-2.4636,-2.4636,-2.4636,-2.4636,-2.4636,-2.4636,-2.4636,-2.4636,-2.4636,-2.4636,-2.4636,-2.4636,-2.4636,-2.4636,-2.4609,-2.4195,-2.3941,-2.3861,-2.3808,-2.3768,-2.3781,-2.3897,-2.4039,-2.4282,-2.4287,-2.4526,-2.5068,-2.4922,-2.4998,-2.5271,-2.5339,-2.5271,-2.5369,-2.5505,-2.5637,-2.5652,-2.5871,-2.6047,-2.612,-2.612,-2.6164,-2.6222,-2.6237,-2.6164,-2.6047,-2.6061,-2.612,-2.6135,-2.6208,-2.6339,-2.6574,-2.6617,-2.6705,-2.6939,-2.6998,-2.6998,-2.6998,-2.6998,-2.6983,-2.6998,-2.6998,-2.6969,-2.6969,-2.6998,-2.7274,-2.7913,-2.813,-2.8738,-3.0095,-3.099,-3.1576,-3.2351,-3.2948,-3.3335,-3.3666,-3.4153,-3.4424,-3.4374,-3.4109,-3.3835,-3.3597,-3.2826,-3.1993,-3.1614,-3.0775,-3.0114,-2.9686,-2.902,-2.8246,-2.7698,-2.7083,-2.6544,-2.5478,-2.5478,-2.5424,-2.5277,-2.505,-2.5037,-2.489,-2.4676,-2.4636,-2.4636,-2.4663,-2.4636,-2.4576,-2.4636,-2.4636,-2.4636,-2.4636,-2.4636,-2.4636,-2.4636,-2.4636,-2.4636,-2.4636,-2.4636,-2.4636,-2.4636,-2.4636,-2.4636,-2.4636,-2.4636,-2.4636,-2.4636,-2.4636,-2.4636,-2.4636,-2.4636,-2.4636,-2.4636,-2.4583,-2.4436,-2.4168,-2.3901,-2.3781,-2.3768,-2.411,-2.4309,-2.4408,-2.4989,-2.5412,-2.5482,-2.572,-2.5845,-2.5915,-2.5915,-2.5915,-2.5915,-2.5944,-2.5974,-2.5988,-2.6003,-2.6164,-2.6427,-2.6457,-2.6574,-2.6837,-2.6881,-2.6632,-2.6237,-2.631,-2.6442,-2.6486,-2.6705,-2.6852,-2.6881,-2.691,-2.6954,-2.6983,-2.6998,-2.6998,-2.6998,-2.6998,-2.6998,-2.6998,-2.6998,-2.6998,-2.6998,-2.6998,-2.7231,-2.7901,-2.8191,-2.8806,-3.0267,-3.0745,-3.1006,-3.1804,-3.2649,-3.3322,-3.3536,-3.4269,-3.4702,-3.4631,-3.4252,-3.385,-3.3687,-3.2699,-3.2109,-3.1642,-3.1008,-3.013,-2.9868,-2.9323,-2.8602,-2.7805,-2.7309,-2.6942,-2.5772,-2.5758,-2.5585,-2.5451,-2.5344,-2.5331,-2.5264,-2.5157,-2.5157,-2.5157,-2.5157,-2.5157,-2.497,-2.4636,-2.4636,-2.4636,-2.4636,-2.4636,-2.4636,-2.4636,-2.4636,-2.4636,-2.4636,-2.4636,-2.4636,-2.4636,-2.4636,-2.4636,-2.4636,-2.4636,-2.4636,-2.4636,-2.4636,-2.4636,-2.4636,-2.4636,-2.4636,-2.4636,-2.4636,-2.4569,-2.4462,-2.4342,-2.4275,-2.4275,-2.4639,-2.4915,-2.5177,-2.554,-2.5798,-2.6082,-2.6049,-2.6018,-2.6018,-2.6018,-2.6018,-2.6032,-2.6193,-2.6383,-2.6574,-2.6588,-2.6647,-2.6793,-2.6793,-2.6852,-2.6969,-2.6998,-2.6866,-2.6676,-2.672,-2.6793,-2.6793,-2.691,-2.6998,-2.6998,-2.6998,-2.6998,-2.6998,-2.6998,-2.6998,-2.6998,-2.6998,-2.6998,-2.6998,-2.6998,-2.6998,-2.6998,-2.6998,-2.7275,-2.7936,-2.8289,-2.9012,-3.0217,-3.0787,-3.161,-3.2604,-3.3284,-3.3767,-3.427,-3.4902,-3.5212,-3.5194,-3.4807,-3.4394,-3.403,-3.307,-3.2211,-3.1699,-3.0901,-3.0052,-2.9802,-2.9355,-2.8683,-2.8217,-2.7873,-2.7391,-2.6157,-2.6039,-2.5838,-2.5705,-2.5638,-2.5638,-2.5585,-2.5518,-2.5518,-2.5518,-2.5518,-2.5518,-2.5277,-2.4903,-2.4796,-2.4716,-2.4562,-2.4636,-2.4636,-2.4636,-2.4636,-2.4636,-2.4636,-2.4636,-2.4636,-2.4636,-2.4636,-2.4636,-2.4636,-2.4636,-2.4636,-2.4636,-2.4636,-2.4636,-2.4636,-2.4636,-2.4636,-2.4636,-2.4636,-2.4636,-2.4623,-2.4636,-2.4636,-2.4636,-2.5079,-2.5506,-2.5786,-2.6025,-2.6344,-2.6632,-2.6413,-2.6281,-2.6281,-2.6281,-2.6281,-2.6296,-2.65,-2.6735,-2.6983,-2.6998,-2.6998,-2.6998,-2.6998,-2.6998,-2.6998,-2.6998,-2.6998,-2.6969,-2.6998,-2.6983,-2.6998,-2.6998,-2.6998,-2.6998,-2.6998,-2.6998,-2.6998,-2.6998,-2.6998,-2.6998,-2.6998,-2.6998,-2.6998,-2.6998,-2.7013,-2.7115,-2.7144,-2.7379,-2.8014,-2.8564,-2.9205,-3.0335,-3.1144,-3.2131,-3.3325,-3.3906,-3.4305,-3.4957,-3.5449,-3.5981,-3.5907,-3.562,-3.5099,-3.4519,-3.3533,-3.261,-3.187,-3.0949,-3.0169,-2.968,-2.9369,-2.8948,-2.8593,-2.83,-2.7907,-2.6373,-2.636,-2.636,-2.6172,-2.6023,-2.601,-2.5785,-2.5571,-2.5545,-2.5531,-2.5558,-2.5545,-2.5504,-2.5438,-2.5197,-2.4917,-2.4676,-2.4663,-2.4663,-2.4663,-2.4562,-2.4636,-2.4636,-2.4636,-2.4636,-2.4636,-2.4636,-2.4636,-2.4636,-2.4636,-2.4636,-2.4636,-2.4636,-2.4636,-2.4636,-2.4636,-2.4636,-2.4636,-2.4636,-2.4636,-2.4636,-2.4636,-2.4636,-2.4636,-2.5359,-2.5726,-2.5873,-2.6531,-2.6969,-2.6969,-2.6925,-2.6925,-2.6925,-2.6925,-2.6896,-2.6925,-2.6939,-2.6969,-2.6983,-2.6998,-2.6998,-2.6998,-2.6998,-2.6998,-2.6998,-2.6998,-2.6998,-2.6998,-2.6998,-2.6998,-2.6998,-2.6998,-2.6998,-2.6998,-2.6998,-2.6998,-2.6998,-2.6998,-2.6998,-2.6998,-2.7027,-2.7042,-2.7027,-2.6998,-2.7188,-2.7378,-2.7452,-2.7717,-2.8282,-2.8822,-2.95,-3.0609,-3.1458,-3.2243,-3.2844,-3.3856,-3.4622,-3.5282,-3.6088,-3.6657,-3.6594,-3.6376,-3.5733,-3.4968,-3.4043,-3.3103,-3.2094,-3.1315,-3.063,-3.015,-2.9924,-2.9587,-2.8931,-2.8709,-2.8343,-2.64,-2.64,-2.64,-2.6333,-2.6239,-2.6226,-2.6172,-2.6079,-2.6079,-2.6066,-2.6079,-2.6066,-2.5972,-2.5785,-2.5769,-2.5478,-2.5197,-2.501,-2.4917,-2.4903,-2.473,-2.4636,-2.4636,-2.4636,-2.4636,-2.4636,-2.4636,-2.4636,-2.4636,-2.4636,-2.4636,-2.4636,-2.4636,-2.4636,-2.4636,-2.4636,-2.4636,-2.4636,-2.4636,-2.4636,-2.4636,-2.4636,-2.4636,-2.4636,-2.5359,-2.58,-2.58,-2.6546,-2.6998,-2.6998,-2.6998,-2.6998,-2.6998,-2.6998,-2.6998,-2.6998,-2.6998,-2.6998,-2.6998,-2.6998,-2.6998,-2.6998,-2.6998,-2.6998,-2.6998,-2.6998,-2.6998,-2.6998,-2.6998,-2.6998,-2.6998,-2.6998,-2.6998,-2.6998,-2.6998,-2.7013,-2.6998,-2.6998,-2.6998,-2.7027,-2.7159,-2.7305,-2.7335,-2.7466,-2.7642,-2.7744,-2.7773,-2.801,-2.8397,-2.879,-2.9503,-3.0593,-3.1676,-3.2786,-3.4009,-3.4673,-3.537,-3.6098,-3.6673,-3.6852,-3.6823,-3.651,-3.5842,-3.4879,-3.4125,-3.3192,-3.2091,-3.1048,-3.0498,-3.0484,-3.0173,-2.992,-2.9365,-2.9102,-2.8648,-2.64,-2.64,-2.64,-2.64,-2.64,-2.64,-2.64,-2.64,-2.64,-2.64,-2.6386,-2.6386,-2.6279,-2.6119,-2.6092,-2.5999,-2.5758,-2.5398,-2.517,-2.5064,-2.4877,-2.473,-2.4649,-2.4636,-2.4636,-2.4636,-2.4636,-2.4636,-2.4636,-2.4636,-2.4636,-2.4636,-2.4636,-2.4636,-2.4636,-2.4636,-2.4636,-2.4636,-2.4636,-2.4636,-2.4636,-2.4636,-2.4636,-2.4857,-2.5433,-2.58,-2.58,-2.6546,-2.6998,-2.6998,-2.6998,-2.6998,-2.6998,-2.6998,-2.6998,-2.6998,-2.6998,-2.6998,-2.6998,-2.6998,-2.6998,-2.6998,-2.6998,-2.6998,-2.6998,-2.6998,-2.7042,-2.7115,-2.7144,-2.7159,-2.7276,-2.7305,-2.7261,-2.7203,-2.7232,-2.7305,-2.7305,-2.7305,-2.732,-2.7364,-2.751,-2.7613,-2.7642,-2.7817,-2.7888,-2.8005,-2.8034,-2.8195,-2.8637,-2.9064,-2.9679,-3.0757,-3.1952,-3.3129,-3.4243,-3.5063,-3.5958,-3.666,-3.6936,-3.7076,-3.6875,-3.6461,-3.5792,-3.488,-3.3961,-3.3002,-3.1957,-3.0905,-3.0536,-3.0563,-3.0427,-3.0224,-2.9841,-2.9523,-2.8964,-2.64,-2.64,-2.64,-2.64,-2.64,-2.64,-2.64,-2.64,-2.64,-2.64,-2.64,-2.64,-2.6373,-2.6373,-2.6346,-2.636,-2.6226,-2.5785,-2.5424,-2.5184,-2.5104,-2.493,-2.469,-2.469,-2.4663,-2.4636,-2.4636,-2.4636,-2.4636,-2.4636,-2.4636,-2.4636,-2.4636,-2.4636,-2.4636,-2.4636,-2.4636,-2.4636,-2.4636,-2.4636,-2.4636,-2.4636,-2.4784,-2.5152,-2.558,-2.58,-2.5873,-2.6619,-2.6998,-2.6998,-2.6998,-2.6998,-2.6998,-2.6998,-2.6998,-2.6998,-2.6998,-2.7013,-2.7027,-2.7056,-2.71,-2.71,-2.7056,-2.71,-2.713,-2.71,-2.7203,-2.7422,-2.7481,-2.7583,-2.7742,-2.7815,-2.7788,-2.7569,-2.7686,-2.7757,-2.7801,-2.7844,-2.7844,-2.7815,-2.7844,-2.7874,-2.7888,-2.8037,-2.8107,-2.8373,-2.8491,-2.8666,-2.9134,-2.9582,-3.0231,-3.1124,-3.211,-3.3206,-3.4271,-3.532,-3.633,-3.7089,-3.7228,-3.727,-3.6851,-3.6412,-3.5783,-3.4872,-3.3937,-3.2975,-3.2284,-3.1227,-3.0984,-3.0949,-3.0822,-3.0571,-3.0084,-2.9691,-2.9294,-2.64,-2.64,-2.64,-2.64,-2.64,-2.64,-2.64,-2.64,-2.64,-2.64,-2.64,-2.64,-2.64,-2.64,-2.64,-2.64,-2.6373,-2.6186,-2.5959,-2.5678,-2.5478,-2.5224,-2.4983,-2.4943,-2.4836,-2.4663,-2.4636,-2.4562,-2.4649,-2.4649,-2.4636,-2.4636,-2.4649,-2.4636,-2.4663,-2.4636,-2.4636,-2.4636,-2.4636,-2.4636,-2.4636,-2.4636,-2.4797,-2.5239,-2.558,-2.5946,-2.6166,-2.6692,-2.6998,-2.6998,-2.6998,-2.6998,-2.6998,-2.6998,-2.6998,-2.7013,-2.7203,-2.732,-2.7349,-2.7525,-2.7627,-2.7567,-2.7642,-2.7656,-2.7656,-2.7627,-2.7671,-2.7788,-2.7803,-2.7861,-2.7888,-2.8093,-2.8139,-2.7847,-2.7891,-2.7903,-2.7932,-2.7903,-2.7874,-2.7903,-2.8063,-2.8271,-2.833,-2.8417,-2.8608,-2.8739,-2.893,-2.9208,-2.9433,-2.9777,-3.04,-3.1346,-3.2279,-3.3194,-3.4451,-3.5388,-3.6154,-3.6782,-3.7064,-3.7091,-3.6745,-3.6092,-3.545,-3.4687,-3.3813,-3.3063,-3.2289,-3.1762,-3.1484,-3.1417,-3.1347,-3.0936,-3.0368,-2.9854,-2.9511,-2.64,-2.64,-2.64,-2.64,-2.64,-2.64,-2.64,-2.64,-2.64,-2.64,-2.64,-2.64,-2.64,-2.64,-2.64,-2.64,-2.64,-2.64,-2.6293,-2.6092,-2.5812,-2.5518,-2.5277,-2.5237,-2.5157,-2.4997,-2.497,-2.4957,-2.4957,-2.4957,-2.4957,-2.497,-2.4957,-2.497,-2.4957,-2.4957,-2.4957,-2.4957,-2.497,-2.4957,-2.497,-2.512,-2.5344,-2.5778,-2.615,-2.6595,-2.6965,-2.7201,-2.7291,-2.7217,-2.7276,-2.7349,-2.7349,-2.7364,-2.7349,-2.7378,-2.751,-2.7656,-2.7671,-2.7817,-2.7874,-2.7874,-2.7874,-2.7859,-2.7859,-2.7874,-2.7903,-2.8034,-2.8063,-2.8169,-2.8315,-2.8461,-2.8491,-2.833,-2.8315,-2.83,-2.83,-2.83,-2.8315,-2.8373,-2.8491,-2.8578,-2.8666,-2.8871,-2.9061,-2.9105,-2.9354,-2.9647,-2.972,-3.0005,-3.0773,-3.1568,-3.2313,-3.3399,-3.4752,-3.5505,-3.6028,-3.6349,-3.6702,-3.6719,-3.6575,-3.5488,-3.4686,-3.3985,-3.3121,-3.29,-3.2284,-3.1934,-3.1666,-3.1783,-3.177,-3.1052,-3.0365,-3.0049,-2.9731,-2.64,-2.64,-2.64,-2.64,-2.64,-2.64,-2.64,-2.64,-2.64,-2.64,-2.64,-2.64,-2.64,-2.64,-2.64,-2.64,-2.64,-2.6386,-2.6386,-2.6293,-2.6092,-2.5825,-2.5571,-2.5491,-2.5438,-2.5438,-2.5438,-2.5464,-2.5411,-2.5411,-2.5518,-2.5438,-2.5424,-2.5491,-2.5424,-2.5491,-2.5438,-2.5424,-2.5451,-2.5451,-2.5451,-2.5846,-2.6226,-2.6578,-2.7032,-2.7409,-2.7696,-2.7815,-2.7803,-2.7583,-2.7744,-2.7771,-2.783,-2.7874,-2.7876,-2.7786,-2.7874,-2.7903,-2.7903,-2.799,-2.8005,-2.8095,-2.811,-2.8008,-2.802,-2.8139,-2.8136,-2.8432,-2.8461,-2.8564,-2.8769,-2.8842,-2.8842,-2.8871,-2.8783,-2.8798,-2.8871,-2.8842,-2.8783,-2.8812,-2.8886,-2.89,-2.89,-2.9178,-2.931,-2.9456,-2.969,-2.9968,-3.0188,-3.0498,-3.1048,-3.1805,-3.2551,-3.3498,-3.4848,-3.5278,-3.5725,-3.6038,-3.6218,-3.6136,-3.6037,-3.5014,-3.4048,-3.3345,-3.2965,-3.2654,-3.2371,-3.2131,-3.2017,-3.2076,-3.1772,-3.1008,-3.0604,-3.0354,-2.9973,-2.64,-2.64,-2.64,-2.64,-2.64,-2.64,-2.64,-2.64,-2.64,-2.64,-2.64,-2.64,-2.64,-2.64,-2.64,-2.64,-2.64,-2.64,-2.64,-2.6373,-2.6333,-2.6119,-2.5838,-2.5625,-2.5531,-2.5545,-2.5571,-2.5518,-2.5518,-2.5558,-2.5545,-2.5518,-2.5558,-2.5545,-2.5518,-2.5545,-2.5518,-2.5518,-2.5518,-2.5531,-2.5621,-2.5927,-2.6281,-2.6724,-2.7207,-2.76,-2.7917,-2.8107,-2.8078,-2.7861,-2.7891,-2.7874,-2.7903,-2.7917,-2.7932,-2.7947,-2.8122,-2.8238,-2.8344,-2.8505,-2.8622,-2.8637,-2.8578,-2.8637,-2.8637,-2.8637,-2.8681,-2.8769,-2.8783,-2.8798,-2.8871,-2.8886,-2.8886,-2.8886,-2.8886,-2.8886,-2.8886,-2.8886,-2.8886,-2.8886,-2.89,-2.9017,-2.9208,-2.9354,-2.9515,-2.9734,-2.9998,-3.0357,-3.0495,-3.0856,-3.1327,-3.2191,-3.2945,-3.3788,-3.4602,-3.5038,-3.539,-3.5657,-3.5724,-3.5473,-3.5206,-3.455,-3.3638,-3.2865,-3.2895,-3.2741,-3.2599,-3.2354,-3.2383,-3.2368,-3.196,-3.1376,-3.1035,-3.0765,-3.0206,-2.64,-2.64,-2.64,-2.64,-2.64,-2.64,-2.64,-2.64,-2.64,-2.64,-2.64,-2.64,-2.64,-2.64,-2.64,-2.64,-2.64,-2.64,-2.64,-2.64,-2.6386,-2.6293,-2.6119,-2.5945,-2.5879,-2.5879,-2.5879,-2.5892,-2.5892,-2.5879,-2.5879,-2.5905,-2.5879,-2.5892,-2.5905,-2.5879,-2.5879,-2.5892,-2.5879,-2.5879,-2.5879,-2.6421,-2.6807,-2.7179,-2.7654,-2.8114,-2.8373,-2.8534,-2.8534,-2.8388,-2.8359,-2.8344,-2.8344,-2.8344,-2.8344,-2.8359,-2.8534,-2.8637,-2.8651,-2.8798,-2.8886,-2.8886,-2.8886,-2.8886,-2.8871,-2.8886,-2.8886,-2.8886,-2.8886,-2.8886,-2.8886,-2.8886,-2.8886,-2.8886,-2.8886,-2.8886,-2.8886,-2.8886,-2.8959,-2.9047,-2.9105,-2.9208,-2.9624,-2.9756,-2.9851,-3.0071,-3.0349,-3.0583,-3.0803,-3.1124,-3.1657,-3.2399,-3.2874,-3.3507,-3.4088,-3.446,-3.4757,-3.5099,-3.5083,-3.4811,-3.4507,-3.4096,-3.3517,-3.2902,-3.2892,-3.2836,-3.272,-3.2602,-3.2617,-3.247,-3.2129,-3.1685,-3.1329,-3.0705,-3.0272,-2.64,-2.64,-2.64,-2.64,-2.64,-2.64,-2.64,-2.64,-2.64,-2.64,-2.64,-2.64,-2.64,-2.64,-2.64,-2.64,-2.64,-2.64,-2.64,-2.64,-2.64,-2.636,-2.6346,-2.6306,-2.6293,-2.6306,-2.6373,-2.6346,-2.6293,-2.6319,-2.636,-2.6306,-2.6333,-2.6373,-2.6293,-2.6333,-2.6373,-2.6319,-2.6293,-2.6358,-2.6516,-2.7052,-2.7429,-2.7756,-2.8302,-2.8705,-2.8812,-2.8856,-2.8842,-2.8871,-2.8886,-2.8827,-2.8842,-2.8871,-2.8856,-2.8827,-2.8812,-2.8856,-2.8871,-2.8871,-2.8886,-2.8886,-2.8886,-2.8886,-2.8886,-2.8886,-2.8886,-2.8886,-2.8886,-2.8886,-2.8886,-2.8886,-2.8886,-2.89,-2.8915,-2.8944,-2.8944,-2.8944,-2.9061,-2.9339,-2.9383,-2.9588,-2.9947,-3.024,-3.0446,-3.0554,-3.0773,-3.0949,-3.1198,-3.149,-3.1952,-3.2528,-3.2804,-3.2996,-3.3406,-3.3787,-3.4114,-3.438,-3.4365,-3.416,-3.395,-3.3649,-3.3305,-3.3073,-3.2896,-3.2808,-3.2778,-3.2749,-3.2763,-3.2498,-3.2054,-3.1685,-3.124,-3.0526,-3.0003,-2.64,-2.64,-2.64,-2.64,-2.64,-2.64,-2.64,-2.64,-2.64,-2.64,-2.64,-2.64,-2.64,-2.64,-2.64,-2.64,-2.64,-2.64,-2.64,-2.64,-2.64,-2.64,-2.64,-2.64,-2.64,-2.64,-2.64,-2.64,-2.64,-2.64,-2.64,-2.64,-2.64,-2.64,-2.64,-2.64,-2.64,-2.64,-2.64,-2.6544,-2.686,-2.7333,-2.779,-2.8118,-2.8666,-2.8886,-2.8886,-2.8886,-2.8886,-2.8886,-2.8886,-2.8886,-2.8886,-2.8886,-2.8886,-2.8886,-2.8886,-2.8886,-2.8886,-2.8886,-2.8886,-2.8886,-2.8886,-2.8886,-2.8886,-2.8886,-2.8886,-2.8886,-2.8886,-2.89,-2.893,-2.89,-2.8944,-2.9003,-2.9149,-2.9281,-2.9266,-2.9266,-2.9325,-2.9427,-2.9632,-2.9881,-3.0269,-3.032,-3.0598,-3.0978,-3.1198,-3.1359,-3.1593,-3.1856,-3.2261,-3.2654,-3.289,-3.3081,-3.33,-3.358,-3.3656,-3.3777,-3.3719,-3.3646,-3.3453,-3.3423,-3.3176,-3.294,-3.2837,-3.2763,-3.2763,-3.2778,-3.2778,-3.2409,-3.204,-3.1596,-3.1062,-3.0348,-2.9913,-2.64,-2.64,-2.64,-2.64,-2.64,-2.64,-2.64,-2.64,-2.64,-2.64,-2.64,-2.64,-2.64,-2.64,-2.64,-2.64,-2.64,-2.64,-2.64,-2.64,-2.64,-2.64,-2.64,-2.64,-2.64,-2.64,-2.64,-2.64,-2.64,-2.64,-2.64,-2.64,-2.64,-2.64,-2.64,-2.64,-2.64,-2.64,-2.6386,-2.6623,-2.7032,-2.7412,-2.7947,-2.8431,-2.8822,-2.8886,-2.8886,-2.8886,-2.8886,-2.8886,-2.8886,-2.8886,-2.8886,-2.8886,-2.8886,-2.8886,-2.8886,-2.8886,-2.8886,-2.8886,-2.8886,-2.8886,-2.8886,-2.8886,-2.8886,-2.8886,-2.8886,-2.8886,-2.89,-2.893,-2.909,-2.912,-2.9164,-2.9354,-2.9486,-2.9603,-2.9603,-2.9603,-2.9676,-2.9873,-3.0079,-3.0246,-3.0451,-3.0612,-3.0832,-3.1227,-3.1476,-3.1651,-3.1885,-3.2134,-3.2382,-3.2719,-3.2969,-3.3146,-3.3322,-3.3337,-3.3322,-3.3279,-3.319,-3.3205,-3.3073,-3.3087,-3.3029,-3.294,-3.2763,-3.2763,-3.2763,-3.2778,-3.2601,-3.2232,-3.1774,-3.1418,-3.0884,-3.0272,-3.0003,-2.64,-2.64,-2.64,-2.64,-2.64,-2.64,-2.64,-2.64,-2.64,-2.64,-2.64,-2.64,-2.64,-2.64,-2.64,-2.64,-2.64,-2.64,-2.64,-2.64,-2.64,-2.64,-2.64,-2.64,-2.64,-2.64,-2.64,-2.64,-2.64,-2.64,-2.64,-2.64,-2.64,-2.64,-2.64,-2.64,-2.64,-2.64,-2.6544,-2.6781,-2.7097,-2.7569,-2.8182,-2.873,-2.8886,-2.8886,-2.8886,-2.8886,-2.8886,-2.8886,-2.8886,-2.8886,-2.8886,-2.8886,-2.8886,-2.8886,-2.8886,-2.8886,-2.8886,-2.8886,-2.8886,-2.8886,-2.8886,-2.8886,-2.8886,-2.8886,-2.8886,-2.893,-2.8959,-2.9134,-2.9398,-2.9456,-2.9588,-2.9764,-2.9866,-2.9939,-3.0035,-2.9968,-3.0144,-3.0313,-3.0349,-3.0554,-3.0817,-3.1022,-3.1242,-3.1461,-3.171,-3.1959,-3.2193,-3.2368,-3.2602,-3.269,-3.2896,-3.294,-3.3117,-3.3117,-3.3117,-3.3029,-3.294,-3.2852,-3.2852,-3.2852,-3.294,-3.2852,-3.2763,-3.2763,-3.2675,-3.2586,-3.2321,-3.1966,-3.1507,-3.1062,-3.0616,-3.0182,-3.0003,-2.64,-2.64,-2.64,-2.64,-2.64,-2.64,-2.64,-2.64,-2.64,-2.64,-2.64,-2.64,-2.64,-2.64,-2.64,-2.64,-2.64,-2.64,-2.64,-2.64,-2.64,-2.64,-2.64,-2.64,-2.64,-2.64,-2.64,-2.64,-2.64,-2.64,-2.64,-2.64,-2.64,-2.64,-2.64,-2.64,-2.64,-2.6465,-2.6702,-2.7018,-2.7412,-2.7961,-2.8353,-2.89,-2.8886,-2.8886,-2.8886,-2.8886,-2.8886,-2.8886,-2.8886,-2.8886,-2.8886,-2.8886,-2.8886,-2.8886,-2.8886,-2.8886,-2.8886,-2.8886,-2.8886,-2.8886,-2.8886,-2.8886,-2.8886,-2.89,-2.8915,-2.9003,-2.9178,-2.9427,-2.9749,-2.9778,-2.9807,-2.9925,-3.0115,-3.0261,-3.0305,-3.0422,-3.0495,-3.0451,-3.0627,-3.0817,-3.1066,-3.1315,-3.1549,-3.1783,-3.2076,-3.228,-3.25,-3.2602,-3.2764,-3.2808,-3.2837,-3.2852,-3.2852,-3.2852,-3.2852,-3.294,-3.2852,-3.2852,-3.2852,-3.2852,-3.2763,-3.2763,-3.2763,-3.2763,-3.2586,-3.2409,-3.2054,-3.1699,-3.124,-3.0705,-3.0451,-3.0093,-3.0003,-2.64,-2.64,-2.64,-2.64,-2.64,-2.64,-2.64,-2.64,-2.64,-2.64,-2.64,-2.64,-2.64,-2.64,-2.64,-2.64,-2.64,-2.64,-2.64,-2.64,-2.64,-2.64,-2.64,-2.64,-2.64,-2.64,-2.64,-2.64,-2.64,-2.64,-2.64,-2.64,-2.64,-2.64,-2.64,-2.64,-2.64,-2.6465,-2.6781,-2.7254,-2.7712,-2.8275,-2.8744,-2.8822,-2.8886,-2.8886,-2.8886,-2.8886,-2.8886,-2.8886,-2.8886,-2.8886,-2.8886,-2.8886,-2.8886,-2.8886,-2.8886,-2.8886,-2.8886,-2.8886,-2.8886,-2.8886,-2.8886,-2.8886,-2.8886,-2.89,-2.8988,-2.9178,-2.9442,-2.9764,-3.0071,-3.01,-3.0188,-3.0349,-3.0495,-3.0568,-3.0627,-3.0744,-3.0685,-3.0583,-3.07,-3.092,-3.1227,-3.1505,-3.1798,-3.2105,-3.2398,-3.2588,-3.2749,-3.2763,-3.2763,-3.2763,-3.2763,-3.2763,-3.2763,-3.2763,-3.2763,-3.2763,-3.2763,-3.2763,-3.2763,-3.2763,-3.2763,-3.2763,-3.2763,-3.2675,-3.2409,-3.2143,-3.1788,-3.1432,-3.1,-3.0567,-3.0285,-3.0093,-3.007,-2.64,-2.64,-2.64,-2.64,-2.64,-2.64,-2.64,-2.64,-2.64,-2.64,-2.64,-2.64,-2.64,-2.64,-2.64,-2.64,-2.64,-2.64,-2.64,-2.64,-2.64,-2.64,-2.64,-2.64,-2.64,-2.64,-2.64,-2.64,-2.64,-2.64,-2.64,-2.64,-2.64,-2.64,-2.64,-2.64,-2.64,-2.6544,-2.6953,-2.7333,-2.7961,-2.8495,-2.8886,-2.8886,-2.8886,-2.8886,-2.8886,-2.8886,-2.8886,-2.8886,-2.8886,-2.8886,-2.8886,-2.8886,-2.8886,-2.8886,-2.8886,-2.8886,-2.8886,-2.8886,-2.8886,-2.8886,-2.8886,-2.8915,-2.9047,-2.9149,-2.9266,-2.9544,-2.9873,-3.01,-3.0378,-3.0451,-3.0554,-3.0685,-3.0773,-3.0817,-3.0788,-3.0803,-3.0803,-3.0773,-3.0817,-3.0978,-3.1242,-3.1578,-3.1856,-3.2193,-3.2471,-3.2632,-3.2763,-3.2763,-3.2763,-3.2763,-3.2763,-3.2763,-3.2763,-3.2763,-3.2763,-3.2763,-3.2763,-3.2763,-3.2763,-3.2763,-3.2793,-3.2822,-3.2498,-3.2409,-3.2143,-3.1905,-3.1592,-3.1159,-3.0801,-3.0524,-3.0402,-3.0351,-3.0287,-2.64,-2.64,-2.64,-2.64,-2.64,-2.64,-2.64,-2.64,-2.64,-2.64,-2.64,-2.64,-2.64,-2.64,-2.64,-2.64,-2.64,-2.64,-2.64,-2.64,-2.64,-2.64,-2.64,-2.64,-2.64,-2.64,-2.64,-2.64,-2.64,-2.64,-2.64,-2.64,-2.64,-2.64,-2.64,-2.64,-2.64,-2.6544,-2.7162,-2.7869,-2.8573,-2.8808,-2.8886,-2.8886,-2.8886,-2.8886,-2.8886,-2.8886,-2.8886,-2.8886,-2.8886,-2.8886,-2.8886,-2.8886,-2.8886,-2.8886,-2.8886,-2.8886,-2.8886,-2.8886,-2.893,-2.8944,-2.893,-2.9047,-2.9281,-2.9573,-2.9822,-3.0269,-3.0357,-3.0393,-3.0642,-3.0729,-3.0788,-3.0788,-3.0817,-3.0817,-3.0817,-3.0817,-3.0817,-3.0817,-3.0817,-3.0978,-3.1212,-3.1563,-3.1915,-3.2237,-3.2529,-3.2676,-3.2763,-3.2763,-3.2763,-3.2763,-3.2763,-3.2763,-3.2837,-3.2822,-3.2866,-3.2837,-3.2895,-3.2895,-3.2968,-3.3012,-3.2806,-3.2717,-3.2436,-3.2198,-3.1987,-3.1657,-3.136,-3.1056,-3.0727,-3.0735,-3.0767,-3.0662,-3.0568,-2.64,-2.64,-2.64,-2.64,-2.64,-2.64,-2.64,-2.64,-2.64,-2.64,-2.64,-2.64,-2.64,-2.64,-2.64,-2.64,-2.64,-2.64,-2.64,-2.64,-2.64,-2.64,-2.64,-2.64,-2.64,-2.64,-2.64,-2.64,-2.64,-2.64,-2.64,-2.64,-2.64,-2.64,-2.64,-2.64,-2.6558,-2.6939,-2.7569,-2.8275,-2.8744,-2.8886,-2.8886,-2.8886,-2.8886,-2.8886,-2.8886,-2.8886,-2.8886,-2.8886,-2.8886,-2.8886,-2.8886,-2.8886,-2.8886,-2.8886,-2.8886,-2.8886,-2.8886,-2.89,-2.9003,-2.9134,-2.9193,-2.9325,-2.9632,-2.9939,-3.0173,-3.0401,-3.0525,-3.0685,-3.0773,-3.0817,-3.0817,-3.0817,-3.0817,-3.0817,-3.0817,-3.0817,-3.0817,-3.0817,-3.0846,-3.0993,-3.1198,-3.1549,-3.1885,-3.2178,-3.2485,-3.2705,-3.2763,-3.2763,-3.2763,-3.2763,-3.2763,-3.2763,-3.2866,-3.2924,-3.3041,-3.31,-3.3319,-3.3334,-3.3273,-3.3259,-3.2948,-3.2707,-3.2461,-3.2175,-3.1833,-3.1492,-3.1207,-3.0981,-3.0791,-3.0847,-3.0889,-3.0808,-3.0742,-2.64,-2.64,-2.64,-2.64,-2.64,-2.64,-2.64,-2.64,-2.64,-2.64,-2.64,-2.64,-2.64,-2.64,-2.64,-2.64,-2.64,-2.64,-2.64,-2.64,-2.64,-2.64,-2.64,-2.64,-2.64,-2.64,-2.64,-2.64,-2.64,-2.64,-2.64,-2.64,-2.64,-2.64,-2.64,-2.6465,-2.6623,-2.7175,-2.7883,-2.8431,-2.8822,-2.8886,-2.8886,-2.8886,-2.8886,-2.8886,-2.8886,-2.8886,-2.8886,-2.8886,-2.8886,-2.8886,-2.8886,-2.8886,-2.8959,-2.9017,-2.9061,-2.912,-2.9134,-2.9164,-2.9208,-2.9398,-2.9617,-2.9764,-3.0035,-3.0357,-3.0466,-3.051,-3.0656,-3.0773,-3.0817,-3.0817,-3.0817,-3.0817,-3.0817,-3.0817,-3.0817,-3.0817,-3.0817,-3.0817,-3.0846,-3.0934,-3.1168,-3.1549,-3.1856,-3.2134,-3.2412,-3.2705,-3.2763,-3.2763,-3.2763,-3.2763,-3.2763,-3.2763,-3.2837,-3.2954,-3.3115,-3.32,-3.3419,-3.346,-3.322,-3.3158,-3.2933,-3.2654,-3.2345,-3.207,-3.1684,-3.1418,-3.1181,-3.1018,-3.1008,-3.1062,-3.1022,-3.0969,-3.0996,-2.64,-2.64,-2.64,-2.64,-2.64,-2.64,-2.64,-2.64,-2.64,-2.64,-2.64,-2.64,-2.64,-2.64,-2.64,-2.64,-2.64,-2.64,-2.64,-2.64,-2.64,-2.64,-2.64,-2.64,-2.64,-2.64,-2.64,-2.64,-2.64,-2.64,-2.64,-2.64,-2.64,-2.64,-2.6386,-2.6465,-2.686,-2.7412,-2.804,-2.851,-2.8822,-2.8886,-2.8886,-2.8886,-2.8886,-2.8886,-2.8886,-2.8886,-2.8886,-2.8886,-2.8886,-2.8944,-2.8973,-2.8973,-2.9076,-2.9281,-2.9339,-2.9456,-2.9603,-2.95,-2.9529,-2.9793,-3.0056,-3.0232,-3.0401,-3.0598,-3.0759,-3.0729,-3.0788,-3.0803,-3.0817,-3.0817,-3.0817,-3.0817,-3.0817,-3.0817,-3.0817,-3.0817,-3.0817,-3.0817,-3.089,-3.1022,-3.1256,-3.1651,-3.1871,-3.2149,-3.2471,-3.2763,-3.2763,-3.2763,-3.2763,-3.2763,-3.2763,-3.2763,-3.2778,-3.291,-3.3011,-3.3067,-3.3165,-3.3129,-3.3033,-3.2894,-3.2542,-3.2225,-3.1845,-3.1799,-3.159,-3.1335,-3.1123,-3.1142,-3.1223,-3.1263,-3.133,-3.1356,-3.141,-2.64,-2.64,-2.64,-2.64,-2.64,-2.64,-2.64,-2.64,-2.64,-2.64,-2.64,-2.64,-2.64,-2.64,-2.64,-2.64,-2.64,-2.64,-2.64,-2.64,-2.64,-2.64,-2.64,-2.64,-2.64,-2.64,-2.64,-2.64,-2.64,-2.6453,-2.64,-2.64,-2.6453,-2.64,-2.6465,-2.6623,-2.7097,-2.7555,-2.804,-2.851,-2.8822,-2.8886,-2.8886,-2.8886,-2.8886,-2.8886,-2.8886,-2.8886,-2.8886,-2.89,-2.89,-2.9017,-2.9164,-2.9178,-2.9354,-2.9617,-2.9676,-2.9851,-3.0123,-2.9895,-2.9837,-3.0129,-3.0437,-3.0627,-3.0598,-3.0759,-3.0817,-3.0817,-3.0817,-3.0817,-3.0817,-3.0817,-3.0817,-3.0817,-3.0817,-3.0817,-3.0817,-3.0817,-3.0876,-3.0905,-3.1051,-3.1198,-3.1476,-3.1783,-3.1973,-3.2163,-3.25,-3.2763,-3.2763,-3.2763,-3.2763,-3.2763,-3.2763,-3.2675,-3.2689,-3.2835,-3.2907,-3.2872,-3.2912,-3.2799,-3.2577,-3.2147,-3.1794,-3.1556,-3.145,-3.1256,-3.1205,-3.1099,-3.1127,-3.1169,-3.137,-3.153,-3.161,-3.1664,-3.1637,-2.64,-2.64,-2.64,-2.64,-2.64,-2.64,-2.64,-2.64,-2.64,-2.64,-2.64,-2.64,-2.64,-2.64,-2.64,-2.64,-2.64,-2.64,-2.64,-2.64,-2.64,-2.64,-2.64,-2.64,-2.64,-2.64,-2.6507,-2.6533,-2.656,-2.6613,-2.6694,-2.6707,-2.664,-2.6613,-2.6465,-2.6781,-2.7175,-2.7633,-2.804,-2.851,-2.8808,-2.8886,-2.8886,-2.8886,-2.8886,-2.8886,-2.8886,-2.89,-2.8973,-2.9017,-2.909,-2.9222,-2.9398,-2.9559,-2.9705,-2.9881,-3.0123,-3.0159,-3.032,-3.0334,-3.0246,-3.0495,-3.0642,-3.0773,-3.0817,-3.0817,-3.0817,-3.0817,-3.0817,-3.0817,-3.0817,-3.0817,-3.0817,-3.0817,-3.0817,-3.0817,-3.0817,-3.0832,-3.0934,-3.1007,-3.1183,-3.1373,-3.1741,-3.1946,-3.2092,-3.231,-3.2573,-3.2763,-3.2763,-3.2763,-3.2763,-3.2763,-3.2763,-3.2675,-3.2601,-3.2511,-3.2433,-3.238,-3.2342,-3.2239,-3.2078,-3.1634,-3.1307,-3.1215,-3.1018,-3.082,-3.0794,-3.078,-3.1021,-3.1249,-3.137,-3.145,-3.165,-3.1664,-3.157,-2.64,-2.64,-2.64,-2.64,-2.64,-2.64,-2.64,-2.64,-2.64,-2.64,-2.64,-2.64,-2.64,-2.64,-2.64,-2.64,-2.64,-2.64,-2.64,-2.64,-2.64,-2.64,-2.6413,-2.6413,-2.6493,-2.648,-2.6653,-2.6814,-2.6814,-2.6987,-2.7121,-2.7148,-2.7054,-2.6894,-2.6519,-2.6781,-2.7175,-2.7633,-2.804,-2.851,-2.8808,-2.8886,-2.8886,-2.8886,-2.8886,-2.8886,-2.8988,-2.8988,-2.9105,-2.9325,-2.9354,-2.9529,-2.9807,-2.9851,-3.0012,-3.0305,-3.0334,-3.0495,-3.0744,-3.0759,-3.0744,-3.0729,-3.0803,-3.0817,-3.0817,-3.0817,-3.0817,-3.0817,-3.0817,-3.0817,-3.0817,-3.0817,-3.0817,-3.0817,-3.0817,-3.0817,-3.0817,-3.0934,-3.1051,-3.1198,-3.1344,-3.1549,-3.1917,-3.2134,-3.2264,-3.244,-3.266,-3.2763,-3.2586,-3.2498,-3.2409,-3.2409,-3.2409,-3.2321,-3.2143,-3.2054,-3.1977,-3.1845,-3.1701,-3.1603,-3.1518,-3.1181,-3.0961,-3.0794,-3.0686,-3.0421,-3.0474,-3.0541,-3.0728,-3.0889,-3.1116,-3.1263,-3.149,-3.157,-3.1396,-2.64,-2.64,-2.64,-2.64,-2.64,-2.64,-2.64,-2.64,-2.64,-2.64,-2.64,-2.64,-2.64,-2.64,-2.64,-2.64,-2.64,-2.64,-2.64,-2.64,-2.6413,-2.64,-2.644,-2.6587,-2.668,-2.676,-2.6947,-2.7121,-2.7121,-2.7295,-2.7268,-2.735,-2.7295,-2.7054,-2.68,-2.693,-2.7175,-2.7633,-2.804,-2.851,-2.8822,-2.8886,-2.89,-2.89,-2.8915,-2.9003,-2.9193,-2.9208,-2.9383,-2.9647,-2.969,-2.9851,-3.0115,-3.0269,-3.0334,-3.0583,-3.0656,-3.07,-3.0803,-3.0803,-3.0817,-3.0817,-3.0817,-3.0817,-3.0817,-3.0817,-3.0817,-3.0817,-3.0817,-3.0817,-3.0817,-3.0817,-3.0817,-3.0817,-3.0817,-3.0817,-3.0861,-3.1081,-3.1242,-3.1417,-3.1578,-3.1729,-3.1944,-3.1706,-3.1731,-3.1699,-3.1877,-3.1951,-3.1863,-3.1774,-3.1685,-3.1685,-3.1685,-3.1685,-3.1596,-3.1596,-3.1343,-3.1125,-3.0973,-3.0794,-3.0709,-3.0664,-3.0546,-3.0287,-3.0181,-3.01,-3.0194,-3.0274,-3.0314,-3.0461,-3.0702,-3.0929,-3.1116,-3.1142,-3.1022,-2.64,-2.64,-2.64,-2.64,-2.64,-2.64,-2.64,-2.64,-2.64,-2.64,-2.64,-2.64,-2.64,-2.64,-2.64,-2.64,-2.64,-2.64,-2.64,-2.6413,-2.6507,-2.6547,-2.6653,-2.6814,-2.6947,-2.7054,-2.7241,-2.7415,-2.7428,-2.7522,-2.7685,-2.7602,-2.7468,-2.7512,-2.7351,-2.7485,-2.7624,-2.8058,-2.849,-2.864,-2.8788,-2.89,-2.8959,-2.9032,-2.912,-2.9208,-2.9442,-2.9588,-2.9771,-2.9925,-3.0071,-3.0188,-3.0407,-3.0539,-3.0627,-3.0773,-3.0817,-3.0817,-3.0817,-3.0817,-3.0817,-3.0817,-3.0817,-3.0817,-3.0817,-3.0817,-3.0817,-3.0817,-3.0817,-3.0817,-3.0817,-3.0817,-3.0817,-3.0817,-3.0846,-3.0846,-3.1037,-3.1242,-3.1335,-3.1509,-3.157,-3.1741,-3.1791,-3.1376,-3.1151,-3.1062,-3.0973,-3.1062,-3.1137,-3.1137,-3.1151,-3.124,-3.124,-3.124,-3.1151,-3.1062,-3.0794,-3.0451,-3.0361,-3.0272,-3.0209,-3.0267,-3.007,-2.9913,-2.9967,-2.9993,-2.9953,-2.9993,-3.0087,-3.0181,-3.0301,-3.0515,-3.0728,-3.0755,-3.0702,-2.64,-2.64,-2.64,-2.64,-2.64,-2.64,-2.64,-2.64,-2.64,-2.64,-2.64,-2.64,-2.64,-2.64,-2.64,-2.64,-2.6426,-2.6426,-2.6453,-2.6533,-2.672,-2.6787,-2.6934,-2.7121,-2.7241,-2.7375,-2.7535,-2.7722,-2.7736,-2.7869,-2.8087,-2.81,-2.7802,-2.7944,-2.8139,-2.8235,-2.8351,-2.8636,-2.8841,-2.8979,-2.9178,-2.9061,-2.9208,-2.9325,-2.9412,-2.9573,-2.9764,-2.9976,-3.0152,-3.0328,-3.0446,-3.0554,-3.07,-3.0817,-3.0817,-3.0817,-3.0817,-3.0817,-3.0817,-3.0817,-3.0817,-3.0817,-3.0817,-3.0817,-3.0817,-3.0817,-3.0817,-3.0817,-3.0817,-3.0817,-3.0817,-3.0817,-3.0817,-3.0846,-3.089,-3.1007,-3.1227,-3.1391,-3.141,-3.1455,-3.1409,-3.1444,-3.1259,-3.0884,-3.0616,-3.0526,-3.0526,-3.0526,-3.0705,-3.0884,-3.0884,-3.0884,-3.0884,-3.0884,-3.0794,-3.0616,-3.0437,-3.0182,-3.0093,-3.0003,-2.9913,-2.9913,-2.9913,-2.9913,-2.9913,-2.9913,-2.9913,-2.9913,-2.994,-3.002,-3.01,-3.0207,-3.0434,-3.0528,-3.0515,-2.64,-2.64,-2.64,-2.64,-2.64,-2.64,-2.64,-2.64,-2.64,-2.64,-2.64,-2.64,-2.64,-2.64,-2.64,-2.64,-2.648,-2.6573,-2.668,-2.6814,-2.7001,-2.7094,-2.7241,-2.7415,-2.7535,-2.7669,-2.7829,-2.806,-2.8087,-2.8234,-2.8234,-2.8181,-2.8114,-2.8408,-2.8883,-2.9091,-2.9043,-2.9167,-2.9442,-2.9472,-2.9559,-2.95,-2.9617,-2.9676,-2.972,-2.991,-3.0129,-3.0203,-3.0378,-3.0598,-3.0671,-3.0773,-3.0788,-3.0817,-3.0817,-3.0817,-3.0817,-3.0817,-3.0817,-3.0817,-3.0817,-3.0817,-3.0817,-3.0817,-3.0817,-3.0817,-3.0817,-3.0817,-3.0817,-3.0817,-3.0817,-3.0817,-3.0861,-3.092,-3.1007,-3.1128,-3.1361,-3.1425,-3.1512,-3.1263,-3.1211,-3.0881,-3.0691,-3.0526,-3.0272,-3.0093,-3.0093,-3.0182,-3.0258,-3.0437,-3.0526,-3.0526,-3.0526,-3.0437,-3.0348,-3.0182,-3.0093,-2.9913,-2.9913,-2.9913,-2.9913,-2.9913,-2.9913,-2.9913,-2.9913,-2.9913,-2.9913,-2.9913,-2.9913,-2.9913,-2.998,-3.0047,-3.0127,-3.0234,-3.0287,-2.64,-2.64,-2.64,-2.64,-2.64,-2.64,-2.64,-2.64,-2.64,-2.64,-2.64,-2.64,-2.6453,-2.656,-2.6587,-2.664,-2.6787,-2.6921,-2.7001,-2.7068,-2.7295,-2.7388,-2.7535,-2.7709,-2.7856,-2.7949,-2.8016,-2.8194,-2.8234,-2.8234,-2.8234,-2.8234,-2.8234,-2.8726,-2.9202,-2.9411,-2.9604,-2.9828,-2.9967,-2.9998,-3.0005,-2.9976,-2.9925,-3.0042,-3.0056,-3.0232,-3.0466,-3.0525,-3.0642,-3.0803,-3.0817,-3.0817,-3.0817,-3.0817,-3.0817,-3.0817,-3.0817,-3.0817,-3.0817,-3.0817,-3.0817,-3.0817,-3.0817,-3.0817,-3.0817,-3.0817,-3.0817,-3.0817,-3.0817,-3.0817,-3.0817,-3.0832,-3.092,-3.1022,-3.1128,-3.1332,-3.1382,-3.1541,-3.1407,-3.1137,-3.082,-3.0472,-3.0169,-3.0003,-2.9913,-2.9913,-3.0003,-3.0003,-3.0003,-3.0093,-3.0182,-3.0182,-3.0093,-3.0003,-2.9913,-2.9913,-2.9913,-2.9913,-2.9913,-2.9913,-2.9913,-2.9913,-2.9913,-2.9913,-2.9913,-2.9913,-2.9913,-2.9913,-2.9913,-2.9913,-2.9913,-2.9967,-2.9993,-3.002,-3.0034,-2.64,-2.64,-2.64,-2.64,-2.64,-2.64,-2.64,-2.64,-2.64,-2.64,-2.64,-2.6426,-2.6587,-2.6734,-2.6827,-2.6974,-2.7108,-2.7241,-2.7295,-2.7321,-2.7602,-2.7736,-2.7816,-2.7989,-2.8043,-2.8194,-2.8234,-2.8234,-2.8234,-2.8234,-2.8234,-2.8234,-2.8305,-2.8726,-2.9398,-2.9663,-2.9912,-3.0408,-3.0369,-3.029,-3.01,-3.0027,-3.0152,-3.0334,-3.0422,-3.051,-3.0715,-3.0803,-3.0817,-3.0817,-3.0817,-3.0817,-3.0817,-3.0817,-3.0817,-3.0817,-3.0817,-3.0817,-3.0817,-3.0817,-3.0817,-3.0817,-3.0817,-3.0817,-3.0817,-3.0817,-3.0817,-3.0817,-3.0817,-3.092,-3.0949,-3.0924,-3.1011,-3.1131,-3.1293,-3.1325,-3.131,-3.1232,-3.0975,-3.0759,-3.0458,-3.0093,-3.0093,-2.9913,-2.9913,-2.9913,-2.9913,-2.9913,-2.9913,-2.9913,-2.9913,-2.9913,-2.9913,-2.9913,-2.9913,-2.9913,-2.9913,-2.9913,-2.9913,-2.9913,-2.9913,-2.9913,-2.9913,-2.9913,-2.9913,-2.9913,-2.9913,-2.9913,-2.9913,-2.9913,-2.9913,-2.9913,-2.9913,-2.9913,-2.9913,-2.64,-2.64,-2.64,-2.64,-2.64,-2.64,-2.64,-2.64,-2.64,-2.64,-2.6426,-2.6613,-2.676,-2.6854,-2.7081,-2.7241,-2.7321,-2.7535,-2.7589,-2.7669,-2.7883,-2.7963,-2.8016,-2.8167,-2.8234,-2.8234,-2.8234,-2.8234,-2.8234,-2.8234,-2.8234,-2.8234,-2.8403,-2.8992,-2.9565,-2.983,-3.0248,-3.0734,-3.0729,-3.0612,-3.0525,-3.0554,-3.0656,-3.07,-3.0715,-3.07,-3.0817,-3.0817,-3.0817,-3.0817,-3.0817,-3.0817,-3.0817,-3.0817,-3.0817,-3.0817,-3.0817,-3.0734,-3.0749,-3.0749,-3.0749,-3.0749,-3.0749,-3.0832,-3.0817,-3.0817,-3.0832,-3.0846,-3.089,-3.1007,-3.104,-3.1113,-3.1146,-3.1266,-3.1354,-3.1208,-3.113,-3.0873,-3.0609,-3.0307,-2.999,-2.9913,-2.9913,-2.9913,-2.9913,-2.9913,-2.9913,-2.9913,-2.9913,-2.9913,-2.9913,-2.9913,-2.9913,-2.9913,-2.9913,-2.9913,-2.9913,-2.9913,-2.9913,-2.9913,-2.9913,-2.9913,-2.9913,-2.9913,-2.9913,-2.9913,-2.9913,-2.9913,-2.9913,-2.9913,-2.9913,-2.9913,-2.9913,-2.9913,-2.9913,-2.64,-2.64,-2.64,-2.64,-2.64,-2.64,-2.64,-2.64,-2.64,-2.6466,-2.6587,-2.6747,-2.6894,-2.7041,-2.7321,-2.7549,-2.7629,-2.7816,-2.7883,-2.7976,-2.8016,-2.8181,-2.8234,-2.8234,-2.8234,-2.8234,-2.8234,-2.8234,-2.8234,-2.8221,-2.8221,-2.8487,-2.874,-2.916,-2.9747,-3.0081,-3.0415,-3.0749,-3.0817,-3.0817,-3.0817,-3.0817,-3.0817,-3.0817,-3.0817,-3.0817,-3.0817,-3.0817,-3.0817,-3.0817,-3.0817,-3.0817,-3.0817,-3.0817,-3.0817,-3.0817,-3.0734,-3.0734,-3.0582,-3.0513,-3.0513,-3.0542,-3.0687,-3.0661,-3.104,-3.107,-3.1029,-3.1029,-3.111,-3.1198,-3.1092,-3.1122,-3.1024,-3.108,-3.1048,-3.1028,-3.077,-3.0506,-3.032,-3.0066,-2.9913,-2.9913,-2.9913,-2.9913,-2.9913,-2.9913,-2.9913,-2.9913,-2.9913,-2.9913,-2.9913,-2.9913,-2.9913,-2.9913,-2.9913,-2.9913,-2.9913,-2.9913,-2.9913,-2.9913,-2.9913,-2.9913,-2.9913,-2.9913,-2.9913,-2.9913,-2.9913,-2.9913,-2.9913,-2.9913,-2.9913,-2.9913,-2.9913,-2.9913,-2.9913,-2.64,-2.64,-2.64,-2.64,-2.64,-2.64,-2.64,-2.64,-2.644,-2.6587,-2.6814,-2.6921,-2.7108,-2.7335,-2.7615,-2.7896,-2.814,-2.8127,-2.8181,-2.8194,-2.8207,-2.8234,-2.8234,-2.8234,-2.8234,-2.8234,-2.8234,-2.8234,-2.8234,-2.8221,-2.8389,-2.874,-2.9076,-2.9328,-2.9928,-3.0346,-3.0499,-3.0749,-3.0817,-3.0817,-3.0817,-3.0817,-3.0817,-3.0817,-3.0817,-3.0817,-3.0817,-3.0817,-3.0817,-3.0817,-3.0817,-3.0817,-3.0817,-3.0817,-3.0665,-3.0665,-3.0665,-3.0415,-3.0263,-3.0167,-3.0167,-3.0238,-3.0467,-3.0709,-3.1007,-3.115,-3.1108,-3.1137,-3.1206,-3.115,-3.1038,-3.1023,-3.0932,-3.0839,-3.0761,-3.0743,-3.039,-3.0169,-3.0093,-2.9913,-2.9913,-2.9913,-2.9913,-2.9913,-2.9913,-2.9913,-2.9913,-2.9913,-2.9913,-2.9913,-2.9913,-2.9913,-2.9913,-2.9913,-2.9913,-2.9913,-2.9913,-2.9913,-2.9913,-2.9913,-2.9913,-2.9913,-2.9913,-2.9913,-2.9913,-2.9913,-2.9913,-2.9913,-2.9913,-2.9913,-2.9913,-2.9913,-2.9913,-2.9913,-2.9913,-2.64,-2.64,-2.64,-2.64,-2.64,-2.64,-2.64,-2.6426,-2.664,-2.6787,-2.6947,-2.7335,-2.7589,-2.7629,-2.8006,-2.8194,-2.8194,-2.8234,-2.8234,-2.8221,-2.8234,-2.8234,-2.8234,-2.8234,-2.8234,-2.8234,-2.8234,-2.8234,-2.8234,-2.8234,-2.8403,-2.8824,-2.923,-2.9663,-3.0081,-3.0415,-3.0665,-3.0817,-3.0817,-3.0817,-3.0817,-3.0817,-3.0817,-3.0817,-3.0817,-3.0817,-3.0817,-3.0817,-3.0817,-3.0817,-3.0817,-3.0734,-3.0734,-3.0665,-3.0582,-3.0332,-3.0332,-3.004,-2.9915,-2.9874,-2.993,-2.9972,-3.0197,-3.0493,-3.0708,-3.065,-3.0749,-3.0904,-3.0935,-3.0805,-3.0772,-3.093,-3.0895,-3.056,-3.0417,-3.0253,-3.0052,-3.0003,-2.9913,-2.9913,-2.9913,-2.9913,-2.9913,-2.9913,-2.9913,-2.9913,-2.9913,-2.9913,-2.9913,-2.9913,-2.9913,-2.9913,-2.9913,-2.9913,-2.9913,-2.9913,-2.9913,-2.9913,-2.9913,-2.9913,-2.9913,-2.9913,-2.9913,-2.9913,-2.9913,-2.9913,-2.9913,-2.9913,-2.9913,-2.9913,-2.9913,-2.9913,-2.9913,-2.9913,-2.9913]}]]